Time,TemperatureF,DewpointF,PressureIn,WindDirection,WindDirectionDegrees,WindSpeedMPH,WindSpeedGustMPH,Humidity,HourlyPrecipIn,Conditions,Clouds,dailyrainin,SoftwareType,DateUTC
2013-09-30 00:00:00,52.2,48.8,30.06,WNW,302,0.0,1.0,88,0.00,,---,0.00,VWS V14.01,2013-09-30 04:00:00,
2013-09-30 00:01:00,52.2,48.8,30.06,WNW,302,1.0,1.0,88,0.00,,---,0.00,VWS V14.01,2013-09-30 04:01:00,
2013-09-30 00:02:00,52.2,48.8,30.06,WNW,302,0.0,1.0,88,0.00,,---,0.00,VWS V14.01,2013-09-30 04:02:00,
2013-09-30 00:03:00,52.1,48.7,30.06,WNW,302,0.0,1.0,88,0.00,,---,0.00,VWS V14.01,2013-09-30 04:03:00,
2013-09-30 00:04:00,50.9,48.1,30.07,ESE,120,0.0,1.0,90,0.00,,---,0.00,VWS V14.01,2013-09-30 04:04:00,
2013-09-30 00:05:00,52.0,48.6,30.06,WNW,302,0.0,1.0,88,0.00,,---,0.00,VWS V14.01,2013-09-30 04:05:00,
2013-09-30 00:06:00,52.0,48.6,30.06,WNW,302,0.0,1.0,88,0.00,,---,0.00,VWS V14.01,2013-09-30 04:06:00,
2013-09-30 00:07:00,50.9,48.1,30.07,ESE,120,0.0,1.0,90,0.00,,---,0.00,VWS V14.01,2013-09-30 04:07:00,
2013-09-30 00:08:00,50.9,48.1,30.07,ESE,120,0.0,1.0,90,0.00,,---,0.00,VWS V14.01,2013-09-30 04:08:00,
2013-09-30 00:09:00,51.0,48.2,30.07,ESE,120,0.0,1.0,90,0.00,,---,0.00,VWS V14.01,2013-09-30 04:09:00,
2013-09-30 00:10:00,51.8,48.4,30.06,WNW,302,0.0,0.0,88,0.00,,---,0.00,VWS V14.01,2013-09-30 04:10:00,
2013-09-30 00:11:00,50.9,48.1,30.07,ESE,120,0.0,0.0,90,0.00,,---,0.00,VWS V14.01,2013-09-30 04:11:00,
2013-09-30 00:12:00,51.6,48.2,30.06,WNW,302,0.0,0.0,88,0.00,,---,0.00,VWS V14.01,2013-09-30 04:12:00,
2013-09-30 00:13:00,51.5,48.1,30.06,WNW,302,0.0,0.0,88,0.00,,---,0.00,VWS V14.01,2013-09-30 04:13:00,
2013-09-30 00:14:00,50.8,48.0,30.07,ESE,120,0.0,0.0,90,0.00,,---,0.00,VWS V14.01,2013-09-30 04:14:00,
2013-09-30 00:15:00,51.3,48.2,30.06,WNW,302,1.0,1.0,89,0.00,,---,0.00,VWS V14.01,2013-09-30 04:15:00,
2013-09-30 00:16:00,50.6,47.5,30.07,ESE,120,0.0,0.0,89,0.00,,---,0.00,VWS V14.01,2013-09-30 04:16:00,
2013-09-30 00:17:00,51.1,48.0,30.06,WNW,302,0.0,1.0,89,0.00,,---,0.00,VWS V14.01,2013-09-30 04:17:00,
2013-09-30 00:18:00,50.5,47.7,30.07,ESE,120,0.0,0.0,90,0.00,,---,0.00,VWS V14.01,2013-09-30 04:18:00,
2013-09-30 00:19:00,50.5,47.7,30.07,ESE,120,0.0,0.0,90,0.00,,---,0.00,VWS V14.01,2013-09-30 04:19:00,
2013-09-30 00:20:00,50.5,48.0,30.07,ESE,121,0.0,0.0,91,0.00,,---,0.00,VWS V14.01,2013-09-30 04:20:00,
2013-09-30 00:21:00,50.5,48.0,30.07,ESE,121,0.0,0.0,91,0.00,,---,0.00,VWS V14.01,2013-09-30 04:21:00,
2013-09-30 00:22:00,50.5,48.0,30.07,ESE,121,0.0,0.0,91,0.00,,---,0.00,VWS V14.01,2013-09-30 04:22:00,
2013-09-30 00:23:00,50.5,47.7,30.07,ESE,121,0.0,0.0,90,0.00,,---,0.00,VWS V14.01,2013-09-30 04:23:00,
2013-09-30 00:24:00,50.5,48.0,30.07,SE,131,0.0,0.0,91,0.00,,---,0.00,VWS V14.01,2013-09-30 04:24:00,
2013-09-30 00:25:00,50.5,48.0,30.07,SSE,156,0.0,2.0,91,0.00,,---,0.00,VWS V14.01,2013-09-30 04:25:00,
2013-09-30 00:26:00,50.5,48.0,30.07,SSE,156,0.0,2.0,91,0.00,,---,0.00,VWS V14.01,2013-09-30 04:26:00,
2013-09-30 00:27:00,50.6,48.1,30.07,SW,221,0.0,2.0,91,0.00,,---,0.00,VWS V14.01,2013-09-30 04:27:00,
2013-09-30 00:28:00,50.6,48.1,30.07,WSW,244,1.0,2.0,91,0.00,,---,0.00,VWS V14.01,2013-09-30 04:28:00,
2013-09-30 00:29:00,50.7,47.9,30.05,WNW,302,0.0,1.0,90,0.00,,---,0.00,VWS V14.01,2013-09-30 04:29:00,
2013-09-30 00:30:00,50.6,47.8,30.05,WNW,302,0.0,1.0,90,0.00,,---,0.00,VWS V14.01,2013-09-30 04:30:00,
2013-09-30 00:31:00,50.9,48.1,30.07,SW,225,0.0,2.0,90,0.00,,---,0.00,VWS V14.01,2013-09-30 04:31:00,
2013-09-30 00:32:00,50.9,48.1,30.07,SW,225,0.0,2.0,90,0.00,,---,0.00,VWS V14.01,2013-09-30 04:32:00,
2013-09-30 00:33:00,51.0,48.2,30.07,WSW,245,0.0,1.0,90,0.00,,---,0.00,VWS V14.01,2013-09-30 04:33:00,
2013-09-30 00:34:00,50.3,47.8,30.05,WNW,302,0.0,0.0,91,0.00,,---,0.00,VWS V14.01,2013-09-30 04:34:00,
2013-09-30 00:35:00,51.1,48.3,30.06,SW,236,0.0,1.0,90,0.00,,---,0.00,VWS V14.01,2013-09-30 04:35:00,
2013-09-30 00:36:00,51.2,48.4,30.07,SW,236,0.0,1.0,90,0.00,,---,0.00,VWS V14.01,2013-09-30 04:36:00,
2013-09-30 00:37:00,51.2,48.4,30.07,SW,236,0.0,1.0,90,0.00,,---,0.00,VWS V14.01,2013-09-30 04:37:00,
2013-09-30 00:38:00,51.3,48.5,30.07,West,269,0.0,1.0,90,0.00,,---,0.00,VWS V14.01,2013-09-30 04:38:00,
2013-09-30 00:39:00,51.3,48.5,30.06,WSW,240,0.0,1.0,90,0.00,,---,0.00,VWS V14.01,2013-09-30 04:39:00,
2013-09-30 00:40:00,50.1,47.9,30.05,WNW,302,0.0,0.0,92,0.00,,---,0.00,VWS V14.01,2013-09-30 04:40:00,
2013-09-30 00:41:00,51.4,48.6,30.06,SW,236,1.0,2.0,90,0.00,,---,0.00,VWS V14.01,2013-09-30 04:41:00,
2013-09-30 00:42:00,50.0,47.8,30.05,WNW,302,0.0,0.0,92,0.00,,---,0.00,VWS V14.01,2013-09-30 04:42:00,
2013-09-30 00:43:00,51.6,48.5,30.07,West,266,0.0,2.0,89,0.00,,---,0.00,VWS V14.01,2013-09-30 04:43:00,
2013-09-30 00:44:00,51.7,48.6,30.07,WSW,246,0.0,2.0,89,0.00,,---,0.00,VWS V14.01,2013-09-30 04:44:00,
2013-09-30 00:45:00,51.8,48.7,30.07,WSW,248,0.0,2.0,89,0.00,,---,0.00,VWS V14.01,2013-09-30 04:45:00,
2013-09-30 00:46:00,51.8,48.7,30.07,WSW,247,0.0,1.0,89,0.00,,---,0.00,VWS V14.01,2013-09-30 04:46:00,
2013-09-30 00:47:00,50.0,47.8,30.05,WNW,302,0.0,0.0,92,0.00,,---,0.00,VWS V14.01,2013-09-30 04:47:00,
2013-09-30 00:48:00,52.0,48.9,30.07,SW,218,1.0,2.0,89,0.00,,---,0.00,VWS V14.01,2013-09-30 04:48:00,
2013-09-30 00:49:00,52.0,48.6,30.07,WSW,239,1.0,2.0,88,0.00,,---,0.00,VWS V14.01,2013-09-30 04:49:00,
2013-09-30 00:50:00,52.0,48.6,30.07,WSW,240,0.0,2.0,88,0.00,,---,0.00,VWS V14.01,2013-09-30 04:50:00,
2013-09-30 00:51:00,52.1,48.7,30.06,WSW,253,0.0,2.0,88,0.00,,---,0.00,VWS V14.01,2013-09-30 04:51:00,
2013-09-30 00:52:00,52.1,48.7,30.06,WSW,252,0.0,2.0,88,0.00,,---,0.00,VWS V14.01,2013-09-30 04:52:00,
2013-09-30 00:53:00,52.2,48.8,30.06,WSW,253,0.0,2.0,88,0.00,,---,0.00,VWS V14.01,2013-09-30 04:53:00,
2013-09-30 00:54:00,52.2,48.8,30.06,WNW,302,1.0,1.0,88,0.00,,---,0.00,VWS V14.01,2013-09-30 04:54:00,
2013-09-30 00:55:00,52.2,48.8,30.06,WNW,302,0.0,1.0,88,0.00,,---,0.00,VWS V14.01,2013-09-30 04:55:00,
2013-09-30 00:56:00,52.2,48.8,30.06,WNW,302,0.0,1.0,88,0.00,,---,0.00,VWS V14.01,2013-09-30 04:56:00,
2013-09-30 00:57:00,52.3,48.9,30.06,WNW,302,0.0,1.0,88,0.00,,---,0.00,VWS V14.01,2013-09-30 04:57:00,
2013-09-30 00:58:00,52.3,48.9,30.06,WNW,302,0.0,1.0,88,0.00,,---,0.00,VWS V14.01,2013-09-30 04:58:00,
2013-09-30 00:59:00,52.3,48.9,30.06,WNW,302,0.0,1.0,88,0.00,,---,0.00,VWS V14.01,2013-09-30 04:59:00,
2013-09-30 01:00:00,52.2,48.8,30.06,WNW,302,0.0,1.0,88,0.00,,---,0.00,VWS V14.01,2013-09-30 05:00:00,
2013-09-30 01:01:00,52.2,48.8,30.06,WNW,302,1.0,1.0,88,0.00,,---,0.00,VWS V14.01,2013-09-30 05:01:00,
2013-09-30 01:02:00,52.2,48.8,30.06,WNW,302,0.0,1.0,88,0.00,,---,0.00,VWS V14.01,2013-09-30 05:02:00,
2013-09-30 01:03:00,52.1,48.7,30.06,WNW,302,0.0,1.0,88,0.00,,---,0.00,VWS V14.01,2013-09-30 05:03:00,
2013-09-30 01:04:00,52.1,48.7,30.06,WNW,302,0.0,1.0,88,0.00,,---,0.00,VWS V14.01,2013-09-30 05:04:00,
2013-09-30 01:05:00,52.0,48.6,30.06,WNW,302,0.0,1.0,88,0.00,,---,0.00,VWS V14.01,2013-09-30 05:05:00,
2013-09-30 01:06:00,52.0,48.6,30.06,WNW,302,0.0,1.0,88,0.00,,---,0.00,VWS V14.01,2013-09-30 05:06:00,
2013-09-30 01:07:00,52.0,48.6,30.06,WNW,302,0.0,0.0,88,0.00,,---,0.00,VWS V14.01,2013-09-30 05:07:00,
2013-09-30 01:08:00,52.0,48.6,30.06,WNW,302,0.0,0.0,88,0.00,,---,0.00,VWS V14.01,2013-09-30 05:08:00,
2013-09-30 01:09:00,51.9,48.5,30.06,WNW,302,0.0,0.0,88,0.00,,---,0.00,VWS V14.01,2013-09-30 05:09:00,
2013-09-30 01:10:00,51.8,48.4,30.06,WNW,302,0.0,0.0,88,0.00,,---,0.00,VWS V14.01,2013-09-30 05:10:00,
2013-09-30 01:11:00,51.7,48.3,30.06,WNW,302,0.0,0.0,88,0.00,,---,0.00,VWS V14.01,2013-09-30 05:11:00,
2013-09-30 01:12:00,51.6,48.2,30.06,WNW,302,0.0,0.0,88,0.00,,---,0.00,VWS V14.01,2013-09-30 05:12:00,
2013-09-30 01:13:00,51.5,48.1,30.06,WNW,302,0.0,0.0,88,0.00,,---,0.00,VWS V14.01,2013-09-30 05:13:00,
2013-09-30 01:14:00,51.0,48.2,30.07,WSW,245,0.0,1.0,90,0.00,,---,0.00,VWS V14.01,2013-09-30 05:14:00,
2013-09-30 01:15:00,51.3,48.2,30.06,WNW,302,1.0,1.0,89,0.00,,---,0.00,VWS V14.01,2013-09-30 05:15:00,
2013-09-30 01:16:00,51.2,48.1,30.06,WNW,302,0.0,1.0,89,0.00,,---,0.00,VWS V14.01,2013-09-30 05:16:00,
2013-09-30 01:17:00,51.1,48.0,30.06,WNW,302,0.0,1.0,89,0.00,,---,0.00,VWS V14.01,2013-09-30 05:17:00,
2013-09-30 01:18:00,51.0,47.9,30.06,WNW,302,0.0,1.0,89,0.00,,---,0.00,VWS V14.01,2013-09-30 05:18:00,
2013-09-30 01:19:00,50.9,48.1,30.06,WNW,302,0.0,1.0,90,0.00,,---,0.00,VWS V14.01,2013-09-30 05:19:00,
2013-09-30 01:20:00,50.9,48.1,30.06,WNW,302,0.0,1.0,90,0.00,,---,0.00,VWS V14.01,2013-09-30 05:20:00,
2013-09-30 01:21:00,51.4,48.3,30.06,WSW,240,0.0,1.0,89,0.00,,---,0.00,VWS V14.01,2013-09-30 05:21:00,
2013-09-30 01:22:00,50.8,48.3,30.06,WNW,302,0.0,0.0,91,0.00,,---,0.00,VWS V14.01,2013-09-30 05:22:00,
2013-09-30 01:23:00,50.8,48.3,30.06,WNW,302,0.0,0.0,91,0.00,,---,0.00,VWS V14.01,2013-09-30 05:23:00,
2013-09-30 01:24:00,50.8,48.3,30.06,WNW,302,0.0,0.0,91,0.00,,---,0.00,VWS V14.01,2013-09-30 05:24:00,
2013-09-30 01:25:00,50.9,48.4,30.05,WNW,302,0.0,0.0,91,0.00,,---,0.00,VWS V14.01,2013-09-30 05:25:00,
2013-09-30 01:26:00,50.9,48.4,30.05,WNW,302,1.0,1.0,91,0.00,,---,0.00,VWS V14.01,2013-09-30 05:26:00,
2013-09-30 01:27:00,50.9,48.1,30.05,WNW,302,0.0,1.0,90,0.00,,---,0.00,VWS V14.01,2013-09-30 05:27:00,
2013-09-30 01:28:00,50.8,48.0,30.05,WNW,302,0.0,1.0,90,0.00,,---,0.00,VWS V14.01,2013-09-30 05:28:00,
2013-09-30 01:29:00,52.0,48.9,30.07,SW,218,1.0,2.0,89,0.00,,---,0.00,VWS V14.01,2013-09-30 05:29:00,
2013-09-30 01:30:00,50.6,47.8,30.05,WNW,302,0.0,1.0,90,0.00,,---,0.00,VWS V14.01,2013-09-30 05:30:00,
2013-09-30 01:31:00,50.5,47.7,30.05,WNW,302,0.0,1.0,90,0.00,,---,0.00,VWS V14.01,2013-09-30 05:31:00,
2013-09-30 01:32:00,50.4,47.6,30.05,WNW,302,0.0,1.0,90,0.00,,---,0.00,VWS V14.01,2013-09-30 05:32:00,
2013-09-30 01:33:00,50.4,47.9,30.05,WNW,302,0.0,1.0,91,0.00,,---,0.00,VWS V14.01,2013-09-30 05:33:00,
2013-09-30 01:34:00,50.3,47.8,30.05,WNW,302,0.0,0.0,91,0.00,,---,0.00,VWS V14.01,2013-09-30 05:34:00,
2013-09-30 01:35:00,52.2,48.8,30.06,WNW,302,1.0,1.0,88,0.00,,---,0.00,VWS V14.01,2013-09-30 05:35:00,
2013-09-30 01:36:00,50.2,47.7,30.05,WNW,302,0.0,0.0,91,0.00,,---,0.00,VWS V14.01,2013-09-30 05:36:00,
2013-09-30 01:37:00,50.1,47.6,30.05,WNW,302,0.0,0.0,91,0.00,,---,0.00,VWS V14.01,2013-09-30 05:37:00,
2013-09-30 01:38:00,50.1,47.9,30.05,WNW,302,0.0,0.0,92,0.00,,---,0.00,VWS V14.01,2013-09-30 05:38:00,
2013-09-30 01:39:00,50.1,47.9,30.05,WNW,302,0.0,0.0,92,0.00,,---,0.00,VWS V14.01,2013-09-30 05:39:00,
2013-09-30 01:40:00,52.3,48.9,30.06,WNW,302,0.0,1.0,88,0.00,,---,0.00,VWS V14.01,2013-09-30 05:40:00,
2013-09-30 01:41:00,50.1,47.9,30.05,WNW,302,0.0,0.0,92,0.00,,---,0.00,VWS V14.01,2013-09-30 05:41:00,
2013-09-30 01:42:00,50.0,47.8,30.05,WNW,302,0.0,0.0,92,0.00,,---,0.00,VWS V14.01,2013-09-30 05:42:00,
2013-09-30 01:43:00,50.0,47.8,30.05,WNW,302,0.0,0.0,92,0.00,,---,0.00,VWS V14.01,2013-09-30 05:43:00,
2013-09-30 01:44:00,50.0,47.8,30.05,WNW,302,0.0,0.0,92,0.00,,---,0.00,VWS V14.01,2013-09-30 05:44:00,
2013-09-30 01:45:00,50.0,47.8,30.05,WNW,302,0.0,0.0,92,0.00,,---,0.00,VWS V14.01,2013-09-30 05:45:00,
2013-09-30 01:46:00,50.0,47.8,30.05,WNW,302,0.0,0.0,92,0.00,,---,0.00,VWS V14.01,2013-09-30 05:46:00,
2013-09-30 01:47:00,50.0,47.8,30.05,WNW,302,0.0,0.0,92,0.00,,---,0.00,VWS V14.01,2013-09-30 05:47:00,
2013-09-30 01:48:00,52.0,48.6,30.06,WNW,302,0.0,0.0,88,0.00,,---,0.00,VWS V14.01,2013-09-30 05:48:00,
2013-09-30 01:49:00,49.9,47.7,30.05,WNW,302,0.0,0.0,92,0.00,,---,0.00,VWS V14.01,2013-09-30 05:49:00,
2013-09-30 01:50:00,50.0,47.8,30.05,WNW,302,0.0,0.0,92,0.00,,---,0.00,VWS V14.01,2013-09-30 05:50:00,
2013-09-30 01:51:00,50.0,48.1,30.05,WNW,284,0.0,1.0,93,0.00,,---,0.00,VWS V14.01,2013-09-30 05:51:00,
2013-09-30 01:52:00,50.1,48.2,30.05,West,278,0.0,1.0,93,0.00,,---,0.00,VWS V14.01,2013-09-30 05:52:00,
2013-09-30 01:53:00,50.1,48.2,30.05,West,278,0.0,1.0,93,0.00,,---,0.00,VWS V14.01,2013-09-30 05:53:00,
2013-09-30 01:54:00,50.1,47.9,30.05,West,278,0.0,1.0,92,0.00,,---,0.00,VWS V14.01,2013-09-30 05:54:00,
2013-09-30 01:55:00,51.3,47.9,30.06,WNW,302,0.0,0.0,88,0.00,,---,0.00,VWS V14.01,2013-09-30 05:55:00,
2013-09-30 01:56:00,50.1,47.6,30.05,West,277,0.0,1.0,91,0.00,,---,0.00,VWS V14.01,2013-09-30 05:56:00,
2013-09-30 01:57:00,50.0,47.5,30.05,West,278,0.0,0.0,91,0.00,,---,0.00,VWS V14.01,2013-09-30 05:57:00,
2013-09-30 01:58:00,50.0,47.8,30.05,West,277,0.0,0.0,92,0.00,,---,0.00,VWS V14.01,2013-09-30 05:58:00,
2013-09-30 01:59:00,49.9,47.7,30.05,West,278,0.0,0.0,92,0.00,,---,0.00,VWS V14.01,2013-09-30 05:59:00,
2013-09-30 02:00:00,50.9,48.1,30.06,WNW,302,0.0,1.0,90,0.00,,---,0.00,VWS V14.01,2013-09-30 06:00:00,
2013-09-30 02:01:00,50.0,47.8,30.05,West,277,0.0,1.0,92,0.00,,---,0.00,VWS V14.01,2013-09-30 06:01:00,
2013-09-30 02:02:00,50.0,47.8,30.05,West,277,0.0,1.0,92,0.00,,---,0.00,VWS V14.01,2013-09-30 06:02:00,
2013-09-30 02:03:00,50.1,48.2,30.05,West,277,0.0,1.0,93,0.00,,---,0.00,VWS V14.01,2013-09-30 06:03:00,
2013-09-30 02:04:00,50.1,47.9,30.05,West,277,0.0,1.0,92,0.00,,---,0.00,VWS V14.01,2013-09-30 06:04:00,
2013-09-30 02:05:00,50.8,48.3,30.06,WNW,302,0.0,0.0,91,0.00,,---,0.00,VWS V14.01,2013-09-30 06:05:00,
2013-09-30 02:06:00,50.2,48.0,30.05,West,277,0.0,0.0,92,0.00,,---,0.00,VWS V14.01,2013-09-30 06:06:00,
2013-09-30 02:07:00,50.2,48.0,30.05,West,277,0.0,0.0,92,0.00,,---,0.00,VWS V14.01,2013-09-30 06:07:00,
2013-09-30 02:08:00,50.2,48.0,30.05,West,277,0.0,0.0,92,0.00,,---,0.00,VWS V14.01,2013-09-30 06:08:00,
2013-09-30 02:09:00,50.1,47.9,30.05,West,277,0.0,0.0,92,0.00,,---,0.00,VWS V14.01,2013-09-30 06:09:00,
2013-09-30 02:10:00,50.1,47.6,30.05,West,277,0.0,0.0,91,0.00,,---,0.00,VWS V14.01,2013-09-30 06:10:00,
2013-09-30 02:11:00,50.0,47.5,30.05,West,277,0.0,0.0,91,0.00,,---,0.00,VWS V14.01,2013-09-30 06:11:00,
2013-09-30 02:12:00,50.5,47.7,30.05,WNW,302,0.0,1.0,90,0.00,,---,0.00,VWS V14.01,2013-09-30 06:12:00,
2013-09-30 02:13:00,49.8,47.3,30.05,West,277,0.0,0.0,91,0.00,,---,0.00,VWS V14.01,2013-09-30 06:13:00,
2013-09-30 02:14:00,49.7,47.2,30.05,West,277,0.0,0.0,91,0.00,,---,0.00,VWS V14.01,2013-09-30 06:14:00,
2013-09-30 02:15:00,49.6,47.1,30.04,West,266,0.0,0.0,91,0.00,,---,0.00,VWS V14.01,2013-09-30 06:15:00,
2013-09-30 02:16:00,49.6,47.4,30.05,West,265,0.0,1.0,92,0.00,,---,0.00,VWS V14.01,2013-09-30 06:16:00,
2013-09-30 02:17:00,50.2,47.7,30.05,WNW,302,0.0,0.0,91,0.00,,---,0.00,VWS V14.01,2013-09-30 06:17:00,
2013-09-30 02:18:00,49.6,47.4,30.05,West,266,0.0,1.0,92,0.00,,---,0.00,VWS V14.01,2013-09-30 06:18:00,
2013-09-30 02:19:00,49.5,47.3,30.05,West,266,0.0,1.0,92,0.00,,---,0.00,VWS V14.01,2013-09-30 06:19:00,
2013-09-30 02:20:00,49.5,47.3,30.05,West,266,0.0,1.0,92,0.00,,---,0.00,VWS V14.01,2013-09-30 06:20:00,
2013-09-30 02:21:00,49.4,47.2,30.05,West,266,0.0,0.0,92,0.00,,---,0.00,VWS V14.01,2013-09-30 06:21:00,
2013-09-30 02:22:00,50.1,47.9,30.05,WNW,302,0.0,0.0,92,0.00,,---,0.00,VWS V14.01,2013-09-30 06:22:00,
2013-09-30 02:23:00,49.3,47.1,30.05,West,266,0.0,0.0,92,0.00,,---,0.00,VWS V14.01,2013-09-30 06:23:00,
2013-09-30 02:24:00,49.3,47.1,30.05,West,266,0.0,0.0,92,0.00,,---,0.00,VWS V14.01,2013-09-30 06:24:00,
2013-09-30 02:25:00,49.2,47.0,30.05,West,266,0.0,0.0,92,0.00,,---,0.00,VWS V14.01,2013-09-30 06:25:00,
2013-09-30 02:26:00,49.2,47.0,30.05,West,266,0.0,0.0,92,0.00,,---,0.00,VWS V14.01,2013-09-30 06:26:00,
2013-09-30 02:27:00,50.0,47.8,30.05,WNW,302,0.0,0.0,92,0.00,,---,0.00,VWS V14.01,2013-09-30 06:27:00,
2013-09-30 02:28:00,49.0,46.8,30.05,West,266,0.0,0.0,92,0.00,,---,0.00,VWS V14.01,2013-09-30 06:28:00,
2013-09-30 02:29:00,48.9,46.7,30.05,West,266,0.0,0.0,92,0.00,,---,0.00,VWS V14.01,2013-09-30 06:29:00,
2013-09-30 02:30:00,49.0,47.1,30.05,West,266,0.0,0.0,93,0.00,,---,0.00,VWS V14.01,2013-09-30 06:30:00,
2013-09-30 02:31:00,49.1,47.2,30.05,West,266,1.0,1.0,93,0.00,,---,0.00,VWS V14.01,2013-09-30 06:31:00,
2013-09-30 02:32:00,50.0,48.1,30.05,WNW,284,0.0,1.0,93,0.00,,---,0.00,VWS V14.01,2013-09-30 06:32:00,
2013-09-30 02:33:00,49.1,47.2,30.05,East,82,2.0,3.0,93,0.00,,---,0.00,VWS V14.01,2013-09-30 06:33:00,
2013-09-30 02:34:00,49.0,47.1,30.05,ENE,75,2.0,3.0,93,0.00,,---,0.00,VWS V14.01,2013-09-30 06:34:00,
2013-09-30 02:35:00,48.9,46.7,30.05,East,82,2.0,3.0,92,0.00,,---,0.00,VWS V14.01,2013-09-30 06:35:00,
2013-09-30 02:36:00,48.9,47.0,30.05,ENE,78,2.0,3.0,93,0.00,,---,0.00,VWS V14.01,2013-09-30 06:36:00,
2013-09-30 02:37:00,50.1,47.6,30.05,West,277,0.0,1.0,91,0.00,,---,0.00,VWS V14.01,2013-09-30 06:37:00,
2013-09-30 02:38:00,49.0,47.3,30.05,East,86,1.0,3.0,94,0.00,,---,0.00,VWS V14.01,2013-09-30 06:38:00,
2013-09-30 02:39:00,49.1,47.5,30.05,East,86,1.0,3.0,94,0.00,,---,0.00,VWS V14.01,2013-09-30 06:39:00,
2013-09-30 02:40:00,49.2,47.5,30.05,East,86,1.0,3.0,94,0.00,,---,0.00,VWS V14.01,2013-09-30 06:40:00,
2013-09-30 02:41:00,49.2,47.3,30.05,East,92,0.0,3.0,93,0.00,,---,0.00,VWS V14.01,2013-09-30 06:41:00,
2013-09-30 02:42:00,50.0,47.8,30.05,West,277,0.0,1.0,92,0.00,,---,0.00,VWS V14.01,2013-09-30 06:42:00,
2013-09-30 02:43:00,48.9,46.7,30.05,East,92,0.0,2.0,92,0.00,,---,0.00,VWS V14.01,2013-09-30 06:43:00,
2013-09-30 02:44:00,48.8,46.9,30.05,East,91,0.0,1.0,93,0.00,,---,0.00,VWS V14.01,2013-09-30 06:44:00,
2013-09-30 02:45:00,48.7,46.8,30.05,East,91,0.0,1.0,93,0.00,,---,0.00,VWS V14.01,2013-09-30 06:45:00,
2013-09-30 02:46:00,48.7,46.8,30.05,East,91,0.0,1.0,93,0.00,,---,0.00,VWS V14.01,2013-09-30 06:46:00,
2013-09-30 02:47:00,50.2,48.0,30.05,West,277,0.0,0.0,92,0.00,,---,0.00,VWS V14.01,2013-09-30 06:47:00,
2013-09-30 02:48:00,48.5,46.6,30.05,East,92,1.0,1.0,93,0.00,,---,0.00,VWS V14.01,2013-09-30 06:48:00,
2013-09-30 02:49:00,48.3,46.4,30.05,East,92,0.0,1.0,93,0.00,,---,0.00,VWS V14.01,2013-09-30 06:49:00,
2013-09-30 02:50:00,48.2,46.3,30.05,East,96,1.0,1.0,93,0.00,,---,0.00,VWS V14.01,2013-09-30 06:50:00,
2013-09-30 02:51:00,48.0,46.1,30.05,East,96,0.0,1.0,93,0.00,,---,0.00,VWS V14.01,2013-09-30 06:51:00,
2013-09-30 02:52:00,50.0,47.5,30.05,West,277,0.0,0.0,91,0.00,,---,0.00,VWS V14.01,2013-09-30 06:52:00,
2013-09-30 02:53:00,47.7,45.8,30.05,East,90,0.0,1.0,93,0.00,,---,0.00,VWS V14.01,2013-09-30 06:53:00,
2013-09-30 02:54:00,47.6,45.7,30.05,East,90,0.0,1.0,93,0.00,,---,0.00,VWS V14.01,2013-09-30 06:54:00,
2013-09-30 02:55:00,47.6,45.7,30.05,East,90,1.0,1.0,93,0.00,,---,0.00,VWS V14.01,2013-09-30 06:55:00,
2013-09-30 02:56:00,47.5,45.9,30.05,East,90,1.0,1.0,94,0.00,,---,0.00,VWS V14.01,2013-09-30 06:56:00,
2013-09-30 02:57:00,49.6,47.4,30.05,West,265,0.0,1.0,92,0.00,,---,0.00,VWS V14.01,2013-09-30 06:57:00,
2013-09-30 02:58:00,47.6,46.0,30.05,East,91,0.0,1.0,94,0.00,,---,0.00,VWS V14.01,2013-09-30 06:58:00,
2013-09-30 02:59:00,47.6,46.0,30.06,East,90,0.0,1.0,94,0.00,,---,0.00,VWS V14.01,2013-09-30 06:59:00,
2013-09-30 03:00:00,47.6,46.2,30.05,East,91,0.0,1.0,95,0.00,,---,0.00,VWS V14.01,2013-09-30 07:00:00,
2013-09-30 03:01:00,47.7,46.3,30.05,East,90,1.0,1.0,95,0.00,,---,0.00,VWS V14.01,2013-09-30 07:01:00,
2013-09-30 03:02:00,49.4,47.2,30.05,West,266,0.0,0.0,92,0.00,,---,0.00,VWS V14.01,2013-09-30 07:02:00,
2013-09-30 03:03:00,47.7,46.3,30.06,East,90,0.0,1.0,95,0.00,,---,0.00,VWS V14.01,2013-09-30 07:03:00,
2013-09-30 03:04:00,47.7,46.3,30.06,East,91,0.0,1.0,95,0.00,,---,0.00,VWS V14.01,2013-09-30 07:04:00,
2013-09-30 03:05:00,47.8,46.4,30.06,East,90,0.0,1.0,95,0.00,,---,0.00,VWS V14.01,2013-09-30 07:05:00,
2013-09-30 03:06:00,47.7,46.3,30.06,East,90,1.0,1.0,95,0.00,,---,0.00,VWS V14.01,2013-09-30 07:06:00,
2013-09-30 03:07:00,49.2,47.0,30.05,West,266,0.0,0.0,92,0.00,,---,0.00,VWS V14.01,2013-09-30 07:07:00,
2013-09-30 03:08:00,47.6,46.0,30.06,East,90,1.0,2.0,94,0.00,,---,0.00,VWS V14.01,2013-09-30 07:08:00,
2013-09-30 03:09:00,47.5,45.9,30.06,East,90,1.0,2.0,94,0.00,,---,0.00,VWS V14.01,2013-09-30 07:09:00,
2013-09-30 03:10:00,47.4,45.8,30.06,East,90,1.0,2.0,94,0.00,,---,0.00,VWS V14.01,2013-09-30 07:10:00,
2013-09-30 03:11:00,47.3,45.7,30.06,East,90,0.0,2.0,94,0.00,,---,0.00,VWS V14.01,2013-09-30 07:11:00,
2013-09-30 03:12:00,49.1,47.2,30.05,West,266,1.0,1.0,93,0.00,,---,0.00,VWS V14.01,2013-09-30 07:12:00,
2013-09-30 03:13:00,47.3,45.9,30.06,East,90,1.0,1.0,95,0.00,,---,0.00,VWS V14.01,2013-09-30 07:13:00,
2013-09-30 03:14:00,47.3,45.9,30.06,East,90,1.0,1.0,95,0.00,,---,0.00,VWS V14.01,2013-09-30 07:14:00,
2013-09-30 03:15:00,47.4,46.0,30.06,East,90,1.0,1.0,95,0.00,,---,0.00,VWS V14.01,2013-09-30 07:15:00,
2013-09-30 03:16:00,47.4,46.0,30.06,East,90,0.0,1.0,95,0.00,,---,0.00,VWS V14.01,2013-09-30 07:16:00,
2013-09-30 03:17:00,48.9,47.0,30.05,ENE,78,2.0,3.0,93,0.00,,---,0.00,VWS V14.01,2013-09-30 07:17:00,
2013-09-30 03:18:00,47.3,45.9,30.06,East,90,1.0,1.0,95,0.00,,---,0.00,VWS V14.01,2013-09-30 07:18:00,
2013-09-30 03:19:00,47.3,45.9,30.06,East,88,2.0,2.0,95,0.00,,---,0.00,VWS V14.01,2013-09-30 07:19:00,
2013-09-30 03:20:00,47.1,45.7,30.06,East,86,1.0,2.0,95,0.00,,---,0.00,VWS V14.01,2013-09-30 07:20:00,
2013-09-30 03:21:00,47.0,45.4,30.06,East,86,0.0,2.0,94,0.00,,---,0.00,VWS V14.01,2013-09-30 07:21:00,
2013-09-30 03:22:00,49.2,47.3,30.05,East,92,0.0,3.0,93,0.00,,---,0.00,VWS V14.01,2013-09-30 07:22:00,
2013-09-30 03:23:00,46.8,45.2,30.06,East,86,0.0,2.0,94,0.00,,---,0.00,VWS V14.01,2013-09-30 07:23:00,
2013-09-30 03:24:00,46.8,45.5,30.06,East,86,0.0,2.0,95,0.00,,---,0.00,VWS V14.01,2013-09-30 07:24:00,
2013-09-30 03:25:00,46.9,45.5,30.06,East,86,0.0,1.0,95,0.00,,---,0.00,VWS V14.01,2013-09-30 07:25:00,
2013-09-30 03:26:00,46.9,45.5,30.06,East,86,0.0,0.0,95,0.00,,---,0.00,VWS V14.01,2013-09-30 07:26:00,
2013-09-30 03:27:00,48.7,46.8,30.05,East,91,0.0,1.0,93,0.00,,---,0.00,VWS V14.01,2013-09-30 07:27:00,
2013-09-30 03:28:00,46.8,45.5,30.05,East,86,0.0,0.0,95,0.00,,---,0.00,VWS V14.01,2013-09-30 07:28:00,
2013-09-30 03:29:00,46.9,45.5,30.06,East,86,0.0,0.0,95,0.00,,---,0.00,VWS V14.01,2013-09-30 07:29:00,
2013-09-30 03:30:00,47.0,45.9,30.06,East,86,0.0,1.0,96,0.00,,---,0.00,VWS V14.01,2013-09-30 07:30:00,
2013-09-30 03:31:00,47.1,46.0,30.05,East,86,0.0,1.0,96,0.00,,---,0.00,VWS V14.01,2013-09-30 07:31:00,
2013-09-30 03:32:00,48.0,46.1,30.05,East,96,0.0,1.0,93,0.00,,---,0.00,VWS V14.01,2013-09-30 07:32:00,
2013-09-30 03:33:00,47.2,46.1,30.06,East,86,0.0,1.0,96,0.00,,---,0.00,VWS V14.01,2013-09-30 07:33:00,
2013-09-30 03:34:00,47.3,46.2,30.06,East,86,0.0,1.0,96,0.00,,---,0.00,VWS V14.01,2013-09-30 07:34:00,
2013-09-30 03:35:00,47.3,46.2,30.06,East,86,0.0,1.0,96,0.00,,---,0.00,VWS V14.01,2013-09-30 07:35:00,
2013-09-30 03:36:00,47.3,46.2,30.06,East,86,0.0,1.0,96,0.00,,---,0.00,VWS V14.01,2013-09-30 07:36:00,
2013-09-30 03:37:00,47.5,45.9,30.05,East,90,1.0,1.0,94,0.00,,---,0.00,VWS V14.01,2013-09-30 07:37:00,
2013-09-30 03:38:00,47.2,46.1,30.06,East,86,0.0,1.0,96,0.00,,---,0.00,VWS V14.01,2013-09-30 07:38:00,
2013-09-30 03:39:00,47.2,46.1,30.06,East,86,0.0,0.0,96,0.00,,---,0.00,VWS V14.01,2013-09-30 07:39:00,
2013-09-30 03:40:00,47.1,46.0,30.06,East,86,0.0,0.0,96,0.00,,---,0.00,VWS V14.01,2013-09-30 07:40:00,
2013-09-30 03:41:00,47.0,45.7,30.06,East,86,0.0,0.0,95,0.00,,---,0.00,VWS V14.01,2013-09-30 07:41:00,
2013-09-30 03:42:00,47.7,46.3,30.05,East,90,1.0,1.0,95,0.00,,---,0.00,VWS V14.01,2013-09-30 07:42:00,
2013-09-30 03:43:00,47.0,45.9,30.06,East,86,0.0,0.0,96,0.00,,---,0.00,VWS V14.01,2013-09-30 07:43:00,
2013-09-30 03:44:00,47.0,45.9,30.06,East,86,0.0,0.0,96,0.00,,---,0.00,VWS V14.01,2013-09-30 07:44:00,
2013-09-30 03:45:00,47.0,45.9,30.06,East,86,0.0,0.0,96,0.00,,---,0.00,VWS V14.01,2013-09-30 07:45:00,
2013-09-30 03:46:00,47.0,45.9,30.06,East,86,0.0,0.0,96,0.00,,---,0.00,VWS V14.01,2013-09-30 07:46:00,
2013-09-30 03:47:00,47.7,46.3,30.06,East,90,1.0,1.0,95,0.00,,---,0.00,VWS V14.01,2013-09-30 07:47:00,
2013-09-30 03:48:00,47.1,46.0,30.06,East,86,0.0,0.0,96,0.00,,---,0.00,VWS V14.01,2013-09-30 07:48:00,
2013-09-30 03:49:00,47.1,46.0,30.06,East,86,0.0,0.0,96,0.00,,---,0.00,VWS V14.01,2013-09-30 07:49:00,
2013-09-30 03:50:00,47.2,46.1,30.06,East,86,0.0,0.0,96,0.00,,---,0.00,VWS V14.01,2013-09-30 07:50:00,
2013-09-30 03:51:00,47.2,46.1,30.06,East,86,0.0,0.0,96,0.00,,---,0.00,VWS V14.01,2013-09-30 07:51:00,
2013-09-30 03:52:00,47.3,45.7,30.06,East,90,0.0,2.0,94,0.00,,---,0.00,VWS V14.01,2013-09-30 07:52:00,
2013-09-30 03:53:00,47.3,46.2,30.06,East,86,0.0,0.0,96,0.00,,---,0.00,VWS V14.01,2013-09-30 07:53:00,
2013-09-30 03:54:00,47.3,46.2,30.06,East,86,0.0,0.0,96,0.00,,---,0.00,VWS V14.01,2013-09-30 07:54:00,
2013-09-30 03:55:00,47.4,46.6,30.06,East,86,0.0,0.0,97,0.00,,---,0.00,VWS V14.01,2013-09-30 07:55:00,
2013-09-30 03:56:00,47.5,46.7,30.06,East,86,0.0,0.0,97,0.00,,---,0.00,VWS V14.01,2013-09-30 07:56:00,
2013-09-30 03:57:00,47.4,46.0,30.06,East,90,0.0,1.0,95,0.00,,---,0.00,VWS V14.01,2013-09-30 07:57:00,
2013-09-30 03:58:00,47.5,46.7,30.05,East,86,0.0,0.0,97,0.00,,---,0.00,VWS V14.01,2013-09-30 07:58:00,
2013-09-30 03:59:00,47.5,46.7,30.05,East,86,0.0,0.0,97,0.00,,---,0.00,VWS V14.01,2013-09-30 07:59:00,
2013-09-30 04:00:00,47.5,46.7,30.05,East,86,0.0,0.0,97,0.00,,---,0.00,VWS V14.01,2013-09-30 08:00:00,
2013-09-30 04:01:00,47.5,46.4,30.05,East,86,0.0,0.0,96,0.00,,---,0.00,VWS V14.01,2013-09-30 08:01:00,
2013-09-30 04:02:00,47.0,45.4,30.06,East,86,0.0,2.0,94,0.00,,---,0.00,VWS V14.01,2013-09-30 08:02:00,
2013-09-30 04:03:00,47.4,46.3,30.05,East,86,0.0,0.0,96,0.00,,---,0.00,VWS V14.01,2013-09-30 08:03:00,
2013-09-30 04:04:00,47.3,46.2,30.05,East,86,0.0,0.0,96,0.00,,---,0.00,VWS V14.01,2013-09-30 08:04:00,
2013-09-30 04:05:00,47.2,46.1,30.05,East,86,0.0,0.0,96,0.00,,---,0.00,VWS V14.01,2013-09-30 08:05:00,
2013-09-30 04:06:00,47.2,46.1,30.05,East,86,0.0,0.0,96,0.00,,---,0.00,VWS V14.01,2013-09-30 08:06:00,
2013-09-30 04:07:00,46.9,45.5,30.06,East,86,0.0,0.0,95,0.00,,---,0.00,VWS V14.01,2013-09-30 08:07:00,
2013-09-30 04:08:00,47.0,45.9,30.05,East,86,0.0,0.0,96,0.00,,---,0.00,VWS V14.01,2013-09-30 08:08:00,
2013-09-30 04:09:00,47.0,45.9,30.05,East,86,0.0,0.0,96,0.00,,---,0.00,VWS V14.01,2013-09-30 08:09:00,
2013-09-30 04:10:00,46.9,45.8,30.05,East,86,0.0,0.0,96,0.00,,---,0.00,VWS V14.01,2013-09-30 08:10:00,
2013-09-30 04:11:00,46.9,45.8,30.05,East,86,0.0,0.0,96,0.00,,---,0.00,VWS V14.01,2013-09-30 08:11:00,
2013-09-30 04:12:00,47.1,46.0,30.05,East,86,0.0,1.0,96,0.00,,---,0.00,VWS V14.01,2013-09-30 08:12:00,
2013-09-30 04:13:00,46.8,45.7,30.05,East,86,0.0,0.0,96,0.00,,---,0.00,VWS V14.01,2013-09-30 08:13:00,
2013-09-30 04:14:00,46.8,45.7,30.05,East,86,0.0,0.0,96,0.00,,---,0.00,VWS V14.01,2013-09-30 08:14:00,
2013-09-30 04:15:00,46.7,45.6,30.05,East,86,0.0,0.0,96,0.00,,---,0.00,VWS V14.01,2013-09-30 08:15:00,
2013-09-30 04:16:00,46.7,45.6,30.05,East,86,0.0,0.0,96,0.00,,---,0.00,VWS V14.01,2013-09-30 08:16:00,
2013-09-30 04:17:00,47.3,46.2,30.06,East,86,0.0,1.0,96,0.00,,---,0.00,VWS V14.01,2013-09-30 08:17:00,
2013-09-30 04:18:00,46.6,45.5,30.05,East,86,0.0,0.0,96,0.00,,---,0.00,VWS V14.01,2013-09-30 08:18:00,
2013-09-30 04:19:00,46.6,45.5,30.05,East,86,0.0,0.0,96,0.00,,---,0.00,VWS V14.01,2013-09-30 08:19:00,
2013-09-30 04:20:00,46.6,45.5,30.05,East,86,0.0,0.0,96,0.00,,---,0.00,VWS V14.01,2013-09-30 08:20:00,
2013-09-30 04:21:00,46.5,45.4,30.05,East,86,0.0,0.0,96,0.00,,---,0.00,VWS V14.01,2013-09-30 08:21:00,
2013-09-30 04:22:00,47.0,45.7,30.06,East,86,0.0,0.0,95,0.00,,---,0.00,VWS V14.01,2013-09-30 08:22:00,
2013-09-30 04:23:00,46.4,45.3,30.05,East,86,0.0,0.0,96,0.00,,---,0.00,VWS V14.01,2013-09-30 08:23:00,
2013-09-30 04:24:00,46.3,45.2,30.05,East,86,0.0,0.0,96,0.00,,---,0.00,VWS V14.01,2013-09-30 08:24:00,
2013-09-30 04:25:00,46.2,45.1,30.05,East,86,0.0,0.0,96,0.00,,---,0.00,VWS V14.01,2013-09-30 08:25:00,
2013-09-30 04:26:00,46.1,45.0,30.05,East,86,0.0,0.0,96,0.00,,---,0.00,VWS V14.01,2013-09-30 08:26:00,
2013-09-30 04:27:00,47.0,45.9,30.06,East,86,0.0,0.0,96,0.00,,---,0.00,VWS V14.01,2013-09-30 08:27:00,
2013-09-30 04:28:00,46.2,45.4,30.05,East,86,0.0,0.0,97,0.00,,---,0.00,VWS V14.01,2013-09-30 08:28:00,
2013-09-30 04:29:00,46.2,45.4,30.05,East,86,0.0,0.0,97,0.00,,---,0.00,VWS V14.01,2013-09-30 08:29:00,
2013-09-30 04:30:00,46.2,45.4,30.05,East,86,0.0,0.0,97,0.00,,---,0.00,VWS V14.01,2013-09-30 08:30:00,
2013-09-30 04:31:00,46.2,45.4,30.05,East,86,0.0,0.0,97,0.00,,---,0.00,VWS V14.01,2013-09-30 08:31:00,
2013-09-30 04:32:00,47.2,46.1,30.06,East,86,0.0,0.0,96,0.00,,---,0.00,VWS V14.01,2013-09-30 08:32:00,
2013-09-30 04:33:00,46.2,45.4,30.05,East,86,0.0,0.0,97,0.00,,---,0.00,VWS V14.01,2013-09-30 08:33:00,
2013-09-30 04:34:00,46.2,45.4,30.05,East,86,0.0,0.0,97,0.00,,---,0.00,VWS V14.01,2013-09-30 08:34:00,
2013-09-30 04:35:00,46.2,45.4,30.06,East,86,0.0,0.0,97,0.00,,---,0.00,VWS V14.01,2013-09-30 08:35:00,
2013-09-30 04:36:00,46.2,45.4,30.05,East,86,0.0,0.0,97,0.00,,---,0.00,VWS V14.01,2013-09-30 08:36:00,
2013-09-30 04:37:00,47.5,46.7,30.06,East,86,0.0,0.0,97,0.00,,---,0.00,VWS V14.01,2013-09-30 08:37:00,
2013-09-30 04:38:00,46.3,45.5,30.06,East,86,0.0,0.0,97,0.00,,---,0.00,VWS V14.01,2013-09-30 08:38:00,
2013-09-30 04:39:00,46.2,45.4,30.06,East,86,0.0,0.0,97,0.00,,---,0.00,VWS V14.01,2013-09-30 08:39:00,
2013-09-30 04:40:00,46.2,45.4,30.06,East,86,0.0,0.0,97,0.00,,---,0.00,VWS V14.01,2013-09-30 08:40:00,
2013-09-30 04:41:00,46.1,45.3,30.06,East,86,0.0,0.0,97,0.00,,---,0.00,VWS V14.01,2013-09-30 08:41:00,
2013-09-30 04:42:00,47.5,46.4,30.05,East,86,0.0,0.0,96,0.00,,---,0.00,VWS V14.01,2013-09-30 08:42:00,
2013-09-30 04:43:00,46.0,45.2,30.06,East,86,0.0,0.0,97,0.00,,---,0.00,VWS V14.01,2013-09-30 08:43:00,
2013-09-30 04:44:00,46.0,45.2,30.06,East,86,0.0,0.0,97,0.00,,---,0.00,VWS V14.01,2013-09-30 08:44:00,
2013-09-30 04:45:00,45.9,45.1,30.06,East,86,0.0,0.0,97,0.00,,---,0.00,VWS V14.01,2013-09-30 08:45:00,
2013-09-30 04:46:00,45.9,45.1,30.06,East,86,0.0,0.0,97,0.00,,---,0.00,VWS V14.01,2013-09-30 08:46:00,
2013-09-30 04:47:00,47.2,46.1,30.05,East,86,0.0,0.0,96,0.00,,---,0.00,VWS V14.01,2013-09-30 08:47:00,
2013-09-30 04:48:00,45.9,45.1,30.06,East,86,0.0,0.0,97,0.00,,---,0.00,VWS V14.01,2013-09-30 08:48:00,
2013-09-30 04:49:00,45.9,45.1,30.06,East,86,0.0,0.0,97,0.00,,---,0.00,VWS V14.01,2013-09-30 08:49:00,
2013-09-30 04:50:00,45.9,45.1,30.06,East,86,0.0,0.0,97,0.00,,---,0.00,VWS V14.01,2013-09-30 08:50:00,
2013-09-30 04:51:00,45.9,45.1,30.06,East,86,0.0,0.0,97,0.00,,---,0.00,VWS V14.01,2013-09-30 08:51:00,
2013-09-30 04:52:00,46.9,45.8,30.05,East,86,0.0,0.0,96,0.00,,---,0.00,VWS V14.01,2013-09-30 08:52:00,
2013-09-30 04:53:00,45.9,45.1,30.06,East,86,0.0,0.0,97,0.00,,---,0.00,VWS V14.01,2013-09-30 08:53:00,
2013-09-30 04:54:00,45.9,45.1,30.06,East,86,0.0,0.0,97,0.00,,---,0.00,VWS V14.01,2013-09-30 08:54:00,
2013-09-30 04:55:00,45.9,45.1,30.06,East,86,0.0,0.0,97,0.00,,---,0.00,VWS V14.01,2013-09-30 08:55:00,
2013-09-30 04:56:00,45.9,45.1,30.06,East,86,0.0,0.0,97,0.00,,---,0.00,VWS V14.01,2013-09-30 08:56:00,
2013-09-30 04:57:00,46.7,45.6,30.05,East,86,0.0,0.0,96,0.00,,---,0.00,VWS V14.01,2013-09-30 08:57:00,
2013-09-30 04:58:00,46.1,45.3,30.06,East,86,0.0,0.0,97,0.00,,---,0.00,VWS V14.01,2013-09-30 08:58:00,
2013-09-30 04:59:00,46.3,45.5,30.06,East,86,0.0,0.0,97,0.00,,---,0.00,VWS V14.01,2013-09-30 08:59:00,
2013-09-30 05:00:00,46.4,45.6,30.06,East,86,0.0,0.0,97,0.00,,---,0.00,VWS V14.01,2013-09-30 09:00:00,
2013-09-30 05:01:00,46.5,45.7,30.06,East,86,0.0,0.0,97,0.00,,---,0.00,VWS V14.01,2013-09-30 09:01:00,
2013-09-30 05:02:00,46.5,45.4,30.05,East,86,0.0,0.0,96,0.00,,---,0.00,VWS V14.01,2013-09-30 09:02:00,
2013-09-30 05:03:00,46.6,46.1,30.06,East,86,0.0,0.0,98,0.00,,---,0.00,VWS V14.01,2013-09-30 09:03:00,
2013-09-30 05:04:00,46.7,46.2,30.06,East,86,0.0,0.0,98,0.00,,---,0.00,VWS V14.01,2013-09-30 09:04:00,
2013-09-30 05:05:00,46.7,46.2,30.06,East,86,0.0,0.0,98,0.00,,---,0.00,VWS V14.01,2013-09-30 09:05:00,
2013-09-30 05:06:00,46.8,46.3,30.06,East,86,0.0,0.0,98,0.00,,---,0.00,VWS V14.01,2013-09-30 09:06:00,
2013-09-30 05:07:00,46.1,45.0,30.05,East,86,0.0,0.0,96,0.00,,---,0.00,VWS V14.01,2013-09-30 09:07:00,
2013-09-30 05:08:00,47.0,46.5,30.06,East,86,0.0,0.0,98,0.00,,---,0.00,VWS V14.01,2013-09-30 09:08:00,
2013-09-30 05:09:00,47.1,46.6,30.06,East,86,0.0,0.0,98,0.00,,---,0.00,VWS V14.01,2013-09-30 09:09:00,
2013-09-30 05:10:00,47.2,46.7,30.06,East,86,0.0,0.0,98,0.00,,---,0.00,VWS V14.01,2013-09-30 09:10:00,
2013-09-30 05:11:00,47.3,46.8,30.06,East,86,0.0,0.0,98,0.00,,---,0.00,VWS V14.01,2013-09-30 09:11:00,
2013-09-30 05:12:00,46.2,45.4,30.05,East,86,0.0,0.0,97,0.00,,---,0.00,VWS V14.01,2013-09-30 09:12:00,
2013-09-30 05:13:00,47.4,46.9,30.06,East,86,0.0,0.0,98,0.00,,---,0.00,VWS V14.01,2013-09-30 09:13:00,
2013-09-30 05:14:00,47.4,46.9,30.06,East,86,0.0,0.0,98,0.00,,---,0.00,VWS V14.01,2013-09-30 09:14:00,
2013-09-30 05:15:00,47.3,46.8,30.06,East,86,0.0,0.0,98,0.00,,---,0.00,VWS V14.01,2013-09-30 09:15:00,
2013-09-30 05:16:00,47.3,46.8,30.06,East,86,0.0,0.0,98,0.00,,---,0.00,VWS V14.01,2013-09-30 09:16:00,
2013-09-30 05:17:00,46.2,45.4,30.05,East,86,0.0,0.0,97,0.00,,---,0.00,VWS V14.01,2013-09-30 09:17:00,
2013-09-30 05:18:00,47.3,46.8,30.06,East,86,0.0,0.0,98,0.00,,---,0.00,VWS V14.01,2013-09-30 09:18:00,
2013-09-30 05:19:00,47.3,46.8,30.06,East,86,0.0,0.0,98,0.00,,---,0.00,VWS V14.01,2013-09-30 09:19:00,
2013-09-30 05:20:00,47.4,46.9,30.06,East,86,0.0,0.0,98,0.00,,---,0.00,VWS V14.01,2013-09-30 09:20:00,
2013-09-30 05:21:00,47.5,47.0,30.06,East,86,0.0,1.0,98,0.00,,---,0.00,VWS V14.01,2013-09-30 09:21:00,
2013-09-30 05:22:00,46.1,45.3,30.06,East,86,0.0,0.0,97,0.00,,---,0.00,VWS V14.01,2013-09-30 09:22:00,
2013-09-30 05:23:00,47.7,47.2,30.06,East,86,0.0,1.0,98,0.00,,---,0.00,VWS V14.01,2013-09-30 09:23:00,
2013-09-30 05:24:00,47.7,47.2,30.06,East,86,0.0,1.0,98,0.00,,---,0.00,VWS V14.01,2013-09-30 09:24:00,
2013-09-30 05:25:00,47.7,47.2,30.06,East,86,0.0,1.0,98,0.00,,---,0.00,VWS V14.01,2013-09-30 09:25:00,
2013-09-30 05:26:00,47.7,47.2,30.06,East,86,0.0,0.0,98,0.00,,---,0.00,VWS V14.01,2013-09-30 09:26:00,
2013-09-30 05:27:00,45.9,45.1,30.06,East,86,0.0,0.0,97,0.00,,---,0.00,VWS V14.01,2013-09-30 09:27:00,
2013-09-30 05:28:00,47.8,47.3,30.06,East,86,0.0,0.0,98,0.00,,---,0.00,VWS V14.01,2013-09-30 09:28:00,
2013-09-30 05:29:00,47.9,47.4,30.06,East,86,0.0,0.0,98,0.00,,---,0.00,VWS V14.01,2013-09-30 09:29:00,
2013-09-30 05:30:00,47.9,47.4,30.06,East,86,0.0,0.0,98,0.00,,---,0.00,VWS V14.01,2013-09-30 09:30:00,
2013-09-30 05:31:00,47.9,47.4,30.06,East,86,0.0,0.0,98,0.00,,---,0.00,VWS V14.01,2013-09-30 09:31:00,
2013-09-30 05:32:00,45.9,45.1,30.06,East,86,0.0,0.0,97,0.00,,---,0.00,VWS V14.01,2013-09-30 09:32:00,
2013-09-30 05:33:00,48.0,47.5,30.06,East,83,1.0,1.0,98,0.00,,---,0.00,VWS V14.01,2013-09-30 09:33:00,
2013-09-30 05:34:00,48.1,47.6,30.06,East,84,0.0,1.0,98,0.00,,---,0.00,VWS V14.01,2013-09-30 09:34:00,
2013-09-30 05:35:00,48.2,47.7,30.06,East,84,0.0,1.0,98,0.00,,---,0.00,VWS V14.01,2013-09-30 09:35:00,
2013-09-30 05:36:00,48.3,47.8,30.06,East,83,0.0,1.0,98,0.00,,---,0.00,VWS V14.01,2013-09-30 09:36:00,
2013-09-30 05:37:00,45.9,45.1,30.06,East,86,0.0,0.0,97,0.00,,---,0.00,VWS V14.01,2013-09-30 09:37:00,
2013-09-30 05:38:00,48.4,47.9,30.06,NNE,29,0.0,1.0,98,0.00,,---,0.00,VWS V14.01,2013-09-30 09:38:00,
2013-09-30 05:39:00,48.4,47.9,30.06,NNE,29,0.0,1.0,98,0.00,,---,0.00,VWS V14.01,2013-09-30 09:39:00,
2013-09-30 05:40:00,48.4,47.9,30.06,NNE,29,0.0,1.0,98,0.00,,---,0.00,VWS V14.01,2013-09-30 09:40:00,
2013-09-30 05:41:00,48.4,47.9,30.06,North,356,0.0,1.0,98,0.00,,---,0.00,VWS V14.01,2013-09-30 09:41:00,
2013-09-30 05:42:00,46.5,45.7,30.06,East,86,0.0,0.0,97,0.00,,---,0.00,VWS V14.01,2013-09-30 09:42:00,
2013-09-30 05:43:00,48.5,48.0,30.06,North,356,0.0,1.0,98,0.00,,---,0.00,VWS V14.01,2013-09-30 09:43:00,
2013-09-30 05:44:00,48.5,48.0,30.06,North,358,1.0,1.0,98,0.00,,---,0.00,VWS V14.01,2013-09-30 09:44:00,
2013-09-30 05:45:00,48.6,48.1,30.06,North,359,0.0,1.0,98,0.00,,---,0.00,VWS V14.01,2013-09-30 09:45:00,
2013-09-30 05:46:00,48.7,48.2,30.06,North,359,0.0,1.0,98,0.00,,---,0.00,VWS V14.01,2013-09-30 09:46:00,
2013-09-30 05:47:00,46.8,46.3,30.06,East,86,0.0,0.0,98,0.00,,---,0.00,VWS V14.01,2013-09-30 09:47:00,
2013-09-30 05:48:00,48.7,48.2,30.06,North,359,0.0,1.0,98,0.00,,---,0.00,VWS V14.01,2013-09-30 09:48:00,
2013-09-30 05:49:00,48.8,48.3,30.06,North,359,0.0,1.0,98,0.00,,---,0.00,VWS V14.01,2013-09-30 09:49:00,
2013-09-30 05:50:00,48.7,48.2,30.06,North,359,0.0,1.0,98,0.00,,---,0.00,VWS V14.01,2013-09-30 09:50:00,
2013-09-30 05:51:00,48.8,48.0,30.06,North,358,0.0,0.0,97,0.00,,---,0.00,VWS V14.01,2013-09-30 09:51:00,
2013-09-30 05:52:00,47.3,46.8,30.06,East,86,0.0,0.0,98,0.00,,---,0.00,VWS V14.01,2013-09-30 09:52:00,
2013-09-30 05:53:00,48.7,47.9,30.06,North,359,0.0,0.0,97,0.00,,---,0.00,VWS V14.01,2013-09-30 09:53:00,
2013-09-30 05:54:00,48.7,47.9,30.07,North,358,0.0,0.0,97,0.00,,---,0.00,VWS V14.01,2013-09-30 09:54:00,
2013-09-30 05:55:00,48.7,47.9,30.07,North,358,0.0,0.0,97,0.00,,---,0.00,VWS V14.01,2013-09-30 09:55:00,
2013-09-30 05:56:00,48.7,47.9,30.07,North,359,0.0,0.0,97,0.00,,---,0.00,VWS V14.01,2013-09-30 09:56:00,
2013-09-30 05:57:00,47.3,46.8,30.06,East,86,0.0,0.0,98,0.00,,---,0.00,VWS V14.01,2013-09-30 09:57:00,
2013-09-30 05:58:00,48.5,47.7,30.07,North,358,0.0,0.0,97,0.00,,---,0.00,VWS V14.01,2013-09-30 09:58:00,
2013-09-30 05:59:00,48.5,47.7,30.07,North,359,0.0,0.0,97,0.00,,---,0.00,VWS V14.01,2013-09-30 09:59:00,
2013-09-30 06:00:00,48.4,47.6,30.07,North,358,0.0,0.0,97,0.00,,---,0.00,VWS V14.01,2013-09-30 10:00:00,
2013-09-30 06:01:00,48.3,47.5,30.07,North,358,0.0,0.0,97,0.00,,---,0.00,VWS V14.01,2013-09-30 10:01:00,
2013-09-30 06:02:00,47.5,47.0,30.06,East,86,0.0,1.0,98,0.00,,---,0.00,VWS V14.01,2013-09-30 10:02:00,
2013-09-30 06:03:00,48.1,47.0,30.07,North,358,0.0,0.0,96,0.00,,---,0.00,VWS V14.01,2013-09-30 10:03:00,
2013-09-30 06:04:00,48.0,46.9,30.07,North,359,0.0,0.0,96,0.00,,---,0.00,VWS V14.01,2013-09-30 10:04:00,
2013-09-30 06:05:00,48.0,46.9,30.07,North,359,0.0,0.0,96,0.00,,---,0.00,VWS V14.01,2013-09-30 10:05:00,
2013-09-30 06:06:00,48.1,47.3,30.07,North,358,0.0,0.0,97,0.00,,---,0.00,VWS V14.01,2013-09-30 10:06:00,
2013-09-30 06:07:00,47.7,47.2,30.06,East,86,0.0,0.0,98,0.00,,---,0.00,VWS V14.01,2013-09-30 10:07:00,
2013-09-30 06:08:00,48.3,47.5,30.07,North,359,0.0,0.0,97,0.00,,---,0.00,VWS V14.01,2013-09-30 10:08:00,
2013-09-30 06:09:00,48.4,47.6,30.07,North,359,0.0,0.0,97,0.00,,---,0.00,VWS V14.01,2013-09-30 10:09:00,
2013-09-30 06:10:00,48.6,47.8,30.07,North,358,0.0,0.0,97,0.00,,---,0.00,VWS V14.01,2013-09-30 10:10:00,
2013-09-30 06:11:00,48.7,47.9,30.07,North,358,0.0,0.0,97,0.00,,---,0.00,VWS V14.01,2013-09-30 10:11:00,
2013-09-30 06:12:00,47.9,47.4,30.06,East,86,0.0,0.0,98,0.00,,---,0.00,VWS V14.01,2013-09-30 10:12:00,
2013-09-30 06:13:00,48.9,48.1,30.07,NE,47,0.0,1.0,97,0.00,,---,0.00,VWS V14.01,2013-09-30 10:13:00,
2013-09-30 06:14:00,48.9,48.1,30.07,NE,47,0.0,1.0,97,0.00,,---,0.00,VWS V14.01,2013-09-30 10:14:00,
2013-09-30 06:15:00,48.8,48.0,30.07,NE,47,0.0,1.0,97,0.00,,---,0.00,VWS V14.01,2013-09-30 10:15:00,
2013-09-30 06:16:00,48.7,47.6,30.07,NE,47,0.0,1.0,96,0.00,,---,0.00,VWS V14.01,2013-09-30 10:16:00,
2013-09-30 06:17:00,48.3,47.8,30.06,East,83,0.0,1.0,98,0.00,,---,0.00,VWS V14.01,2013-09-30 10:17:00,
2013-09-30 06:18:00,48.4,47.0,30.07,NE,47,0.0,1.0,95,0.00,,---,0.00,VWS V14.01,2013-09-30 10:18:00,
2013-09-30 06:19:00,48.4,47.0,30.08,NE,47,0.0,1.0,95,0.00,,---,0.00,VWS V14.01,2013-09-30 10:19:00,
2013-09-30 06:20:00,48.3,47.2,30.08,NE,51,0.0,1.0,96,0.00,,---,0.00,VWS V14.01,2013-09-30 10:20:00,
2013-09-30 06:21:00,48.2,47.1,30.08,NE,56,0.0,1.0,96,0.00,,---,0.00,VWS V14.01,2013-09-30 10:21:00,
2013-09-30 06:22:00,48.2,47.1,30.08,ENE,58,0.0,1.0,96,0.00,,---,0.00,VWS V14.01,2013-09-30 10:22:00,
2013-09-30 06:23:00,48.5,48.0,30.06,North,356,0.0,1.0,98,0.00,,---,0.00,VWS V14.01,2013-09-30 10:23:00,
2013-09-30 06:24:00,48.2,47.1,30.08,ENE,58,0.0,1.0,96,0.00,,---,0.00,VWS V14.01,2013-09-30 10:24:00,
2013-09-30 06:25:00,48.2,47.1,30.08,ENE,58,1.0,1.0,96,0.00,,---,0.00,VWS V14.01,2013-09-30 10:25:00,
2013-09-30 06:26:00,48.2,47.1,30.08,ENE,58,0.0,1.0,96,0.00,,---,0.00,VWS V14.01,2013-09-30 10:26:00,
2013-09-30 06:27:00,48.2,47.1,30.08,ENE,58,0.0,1.0,96,0.00,,---,0.00,VWS V14.01,2013-09-30 10:27:00,
2013-09-30 06:28:00,48.7,48.2,30.06,North,358,0.0,1.0,98,0.00,,---,0.00,VWS V14.01,2013-09-30 10:28:00,
2013-09-30 06:29:00,48.3,47.2,30.08,ENE,58,0.0,1.0,96,0.00,,---,0.00,VWS V14.01,2013-09-30 10:29:00,
2013-09-30 06:30:00,48.3,47.2,30.08,ENE,58,0.0,1.0,96,0.00,,---,0.00,VWS V14.01,2013-09-30 10:30:00,
2013-09-30 06:31:00,48.5,47.4,30.08,ENE,58,0.0,1.0,96,0.00,,---,0.00,VWS V14.01,2013-09-30 10:31:00,
2013-09-30 06:32:00,48.6,47.5,30.08,ENE,58,0.0,1.0,96,0.00,,---,0.00,VWS V14.01,2013-09-30 10:32:00,
2013-09-30 06:33:00,48.8,48.0,30.06,North,358,0.0,0.0,97,0.00,,---,0.00,VWS V14.01,2013-09-30 10:33:00,
2013-09-30 06:34:00,48.9,47.8,30.08,ENE,58,0.0,1.0,96,0.00,,---,0.00,VWS V14.01,2013-09-30 10:34:00,
2013-09-30 06:35:00,49.2,48.1,30.08,ENE,58,0.0,0.0,96,0.00,,---,0.00,VWS V14.01,2013-09-30 10:35:00,
2013-09-30 06:36:00,49.4,48.3,30.08,ENE,58,0.0,0.0,96,0.00,,---,0.00,VWS V14.01,2013-09-30 10:36:00,
2013-09-30 06:37:00,49.7,48.6,30.08,ENE,58,0.0,0.0,96,0.00,,---,0.00,VWS V14.01,2013-09-30 10:37:00,
2013-09-30 06:38:00,48.6,47.8,30.07,North,358,0.0,0.0,97,0.00,,---,0.00,VWS V14.01,2013-09-30 10:38:00,
2013-09-30 06:39:00,50.0,48.9,30.08,ENE,58,0.0,0.0,96,0.00,,---,0.00,VWS V14.01,2013-09-30 10:39:00,
2013-09-30 06:40:00,50.1,49.0,30.08,ENE,58,0.0,0.0,96,0.00,,---,0.00,VWS V14.01,2013-09-30 10:40:00,
2013-09-30 06:41:00,50.2,48.8,30.08,ENE,58,0.0,0.0,95,0.00,,---,0.00,VWS V14.01,2013-09-30 10:41:00,
2013-09-30 06:42:00,50.4,49.0,30.08,ENE,58,0.0,0.0,95,0.00,,---,0.00,VWS V14.01,2013-09-30 10:42:00,
2013-09-30 06:43:00,48.2,47.4,30.07,North,358,0.0,0.0,97,0.00,,---,0.00,VWS V14.01,2013-09-30 10:43:00,
2013-09-30 06:44:00,50.6,49.2,30.08,ENE,58,0.0,0.0,95,0.00,,---,0.00,VWS V14.01,2013-09-30 10:44:00,
2013-09-30 06:45:00,50.6,48.9,30.08,ENE,58,0.0,0.0,94,0.00,,---,0.00,VWS V14.01,2013-09-30 10:45:00,
2013-09-30 06:46:00,50.6,48.9,30.08,ENE,58,0.0,0.0,94,0.00,,---,0.00,VWS V14.01,2013-09-30 10:46:00,
2013-09-30 06:47:00,50.5,48.8,30.08,ENE,58,0.0,0.0,94,0.00,,---,0.00,VWS V14.01,2013-09-30 10:47:00,
2013-09-30 06:48:00,48.1,47.3,30.07,North,358,0.0,0.0,97,0.00,,---,0.00,VWS V14.01,2013-09-30 10:48:00,
2013-09-30 06:49:00,50.4,48.7,30.08,ENE,58,0.0,0.0,94,0.00,,---,0.00,VWS V14.01,2013-09-30 10:49:00,
2013-09-30 06:50:00,50.4,48.7,30.08,ENE,58,0.0,0.0,94,0.00,,---,0.00,VWS V14.01,2013-09-30 10:50:00,
2013-09-30 06:51:00,50.3,48.6,30.08,ENE,58,0.0,0.0,94,0.00,,---,0.00,VWS V14.01,2013-09-30 10:51:00,
2013-09-30 06:52:00,50.3,48.6,30.08,ENE,58,0.0,0.0,94,0.00,,---,0.00,VWS V14.01,2013-09-30 10:52:00,
2013-09-30 06:53:00,48.8,48.0,30.07,NE,47,0.0,1.0,97,0.00,,---,0.00,VWS V14.01,2013-09-30 10:53:00,
2013-09-30 06:54:00,50.4,48.7,30.08,ENE,58,0.0,0.0,94,0.00,,---,0.00,VWS V14.01,2013-09-30 10:54:00,
2013-09-30 06:55:00,50.5,48.8,30.08,ENE,58,0.0,0.0,94,0.00,,---,0.00,VWS V14.01,2013-09-30 10:55:00,
2013-09-30 06:56:00,50.6,48.9,30.08,ENE,58,0.0,0.0,94,0.00,,---,0.00,VWS V14.01,2013-09-30 10:56:00,
2013-09-30 06:57:00,50.7,49.0,30.08,ENE,58,0.0,0.0,94,0.00,,---,0.00,VWS V14.01,2013-09-30 10:57:00,
2013-09-30 06:58:00,48.6,47.5,30.07,NE,47,0.0,1.0,96,0.00,,---,0.00,VWS V14.01,2013-09-30 10:58:00,
2013-09-30 06:59:00,50.8,49.1,30.08,ENE,58,0.0,0.0,94,0.00,,---,0.00,VWS V14.01,2013-09-30 10:59:00,
2013-09-30 07:00:00,50.9,49.2,30.08,ENE,58,0.0,0.0,94,0.00,,---,0.00,VWS V14.01,2013-09-30 11:00:00,
2013-09-30 07:01:00,51.0,49.3,30.08,ENE,58,0.0,0.0,94,0.00,,---,0.00,VWS V14.01,2013-09-30 11:01:00,
2013-09-30 07:02:00,51.0,49.0,30.08,ENE,58,0.0,0.0,93,0.00,,---,0.00,VWS V14.01,2013-09-30 11:02:00,
2013-09-30 07:03:00,48.2,47.1,30.08,ENE,58,0.0,1.0,96,0.00,,---,0.00,VWS V14.01,2013-09-30 11:03:00,
2013-09-30 07:04:00,51.0,49.0,30.08,ENE,58,0.0,0.0,93,0.00,,---,0.00,VWS V14.01,2013-09-30 11:04:00,
2013-09-30 07:05:00,51.0,49.0,30.08,ENE,58,0.0,0.0,93,0.00,,---,0.00,VWS V14.01,2013-09-30 11:05:00,
2013-09-30 07:06:00,50.9,49.0,30.08,ENE,58,0.0,0.0,93,0.00,,---,0.00,VWS V14.01,2013-09-30 11:06:00,
2013-09-30 07:07:00,50.9,49.0,30.08,ENE,58,0.0,0.0,93,0.00,,---,0.00,VWS V14.01,2013-09-30 11:07:00,
2013-09-30 07:08:00,48.2,47.1,30.08,ENE,58,0.0,1.0,96,0.00,,---,0.00,VWS V14.01,2013-09-30 11:08:00,
2013-09-30 07:09:00,50.9,49.0,30.08,ENE,58,0.0,0.0,93,0.00,,---,0.00,VWS V14.01,2013-09-30 11:09:00,
2013-09-30 07:10:00,50.9,49.0,30.08,ENE,58,0.0,0.0,93,0.00,,---,0.00,VWS V14.01,2013-09-30 11:10:00,
2013-09-30 07:11:00,50.9,49.0,30.08,ENE,58,0.0,0.0,93,0.00,,---,0.00,VWS V14.01,2013-09-30 11:11:00,
2013-09-30 07:12:00,50.9,49.0,30.08,ENE,58,0.0,0.0,93,0.00,,---,0.00,VWS V14.01,2013-09-30 11:12:00,
2013-09-30 07:13:00,48.6,47.5,30.08,ENE,58,0.0,1.0,96,0.00,,---,0.00,VWS V14.01,2013-09-30 11:13:00,
2013-09-30 07:14:00,51.0,49.3,30.08,ENE,58,0.0,0.0,94,0.00,,---,0.00,VWS V14.01,2013-09-30 11:14:00,
2013-09-30 07:15:00,51.1,49.4,30.08,ENE,58,0.0,0.0,94,0.00,,---,0.00,VWS V14.01,2013-09-30 11:15:00,
2013-09-30 07:16:00,51.1,49.4,30.08,ENE,58,0.0,0.0,94,0.00,,---,0.00,VWS V14.01,2013-09-30 11:16:00,
2013-09-30 07:17:00,51.2,49.5,30.08,ENE,58,0.0,0.0,94,0.00,,---,0.00,VWS V14.01,2013-09-30 11:17:00,
2013-09-30 07:18:00,49.7,48.6,30.08,ENE,58,0.0,0.0,96,0.00,,---,0.00,VWS V14.01,2013-09-30 11:18:00,
2013-09-30 07:19:00,51.4,49.7,30.08,ENE,58,0.0,0.0,94,0.00,,---,0.00,VWS V14.01,2013-09-30 11:19:00,
2013-09-30 07:20:00,51.4,49.7,30.08,ENE,58,0.0,0.0,94,0.00,,---,0.00,VWS V14.01,2013-09-30 11:20:00,
2013-09-30 07:21:00,51.5,49.8,30.08,ENE,58,0.0,0.0,94,0.00,,---,0.00,VWS V14.01,2013-09-30 11:21:00,
2013-09-30 07:22:00,51.6,49.9,30.08,ENE,58,0.0,0.0,94,0.00,,---,0.00,VWS V14.01,2013-09-30 11:22:00,
2013-09-30 07:23:00,50.4,49.0,30.08,ENE,58,0.0,0.0,95,0.00,,---,0.00,VWS V14.01,2013-09-30 11:23:00,
2013-09-30 07:24:00,51.7,50.0,30.08,ENE,58,0.0,0.0,94,0.00,,---,0.00,VWS V14.01,2013-09-30 11:24:00,
2013-09-30 07:25:00,51.8,50.1,30.08,ENE,58,0.0,0.0,94,0.00,,---,0.00,VWS V14.01,2013-09-30 11:25:00,
2013-09-30 07:26:00,51.9,50.2,30.08,ENE,58,0.0,0.0,94,0.00,,---,0.00,VWS V14.01,2013-09-30 11:26:00,
2013-09-30 07:27:00,52.0,50.0,30.08,ENE,58,0.0,1.0,93,0.00,,---,0.00,VWS V14.01,2013-09-30 11:27:00,
2013-09-30 07:28:00,50.5,48.8,30.08,ENE,58,0.0,0.0,94,0.00,,---,0.00,VWS V14.01,2013-09-30 11:28:00,
2013-09-30 07:29:00,52.1,50.1,30.08,ENE,58,0.0,1.0,93,0.00,,---,0.00,VWS V14.01,2013-09-30 11:29:00,
2013-09-30 07:30:00,52.2,50.2,30.08,NNW,338,1.0,1.0,93,0.00,,---,0.00,VWS V14.01,2013-09-30 11:30:00,
2013-09-30 07:31:00,52.2,50.5,30.08,NNW,335,1.0,1.0,94,0.00,,---,0.00,VWS V14.01,2013-09-30 11:31:00,
2013-09-30 07:32:00,52.3,50.6,30.08,NNW,338,0.0,1.0,94,0.00,,---,0.00,VWS V14.01,2013-09-30 11:32:00,
2013-09-30 07:33:00,50.3,48.6,30.08,ENE,58,0.0,0.0,94,0.00,,---,0.00,VWS V14.01,2013-09-30 11:33:00,
2013-09-30 07:34:00,52.4,50.7,30.08,NNW,338,0.0,1.0,94,0.00,,---,0.00,VWS V14.01,2013-09-30 11:34:00,
2013-09-30 07:35:00,52.4,50.7,30.08,NNW,336,1.0,1.0,94,0.00,,---,0.00,VWS V14.01,2013-09-30 11:35:00,
2013-09-30 07:36:00,52.4,50.7,30.08,NNW,338,0.0,1.0,94,0.00,,---,0.00,VWS V14.01,2013-09-30 11:36:00,
2013-09-30 07:37:00,52.4,50.7,30.08,NNW,338,0.0,1.0,94,0.00,,---,0.00,VWS V14.01,2013-09-30 11:37:00,
2013-09-30 07:38:00,50.7,49.0,30.08,ENE,58,0.0,0.0,94,0.00,,---,0.00,VWS V14.01,2013-09-30 11:38:00,
2013-09-30 07:39:00,52.5,51.1,30.08,NNW,338,0.0,1.0,95,0.00,,---,0.00,VWS V14.01,2013-09-30 11:39:00,
2013-09-30 07:40:00,52.6,51.2,30.08,NNW,338,0.0,1.0,95,0.00,,---,0.00,VWS V14.01,2013-09-30 11:40:00,
2013-09-30 07:41:00,52.6,51.2,30.08,NNW,338,0.0,0.0,95,0.00,,---,0.00,VWS V14.01,2013-09-30 11:41:00,
2013-09-30 07:42:00,52.7,51.3,30.08,NNW,338,0.0,0.0,95,0.00,,---,0.00,VWS V14.01,2013-09-30 11:42:00,
2013-09-30 07:43:00,51.0,49.0,30.08,ENE,58,0.0,0.0,93,0.00,,---,0.00,VWS V14.01,2013-09-30 11:43:00,
2013-09-30 07:44:00,52.8,51.4,30.08,NNW,338,0.0,0.0,95,0.00,,---,0.00,VWS V14.01,2013-09-30 11:44:00,
2013-09-30 07:45:00,52.9,51.5,30.08,NNW,338,0.0,0.0,95,0.00,,---,0.00,VWS V14.01,2013-09-30 11:45:00,
2013-09-30 07:46:00,53.0,51.6,30.08,NNW,338,0.0,0.0,95,0.00,,---,0.00,VWS V14.01,2013-09-30 11:46:00,
2013-09-30 07:47:00,53.1,51.7,30.08,NNW,336,0.0,0.0,95,0.00,,---,0.00,VWS V14.01,2013-09-30 11:47:00,
2013-09-30 07:48:00,50.9,49.0,30.08,ENE,58,0.0,0.0,93,0.00,,---,0.00,VWS V14.01,2013-09-30 11:48:00,
2013-09-30 07:49:00,53.2,51.8,30.07,NNW,337,0.0,0.0,95,0.00,,---,0.00,VWS V14.01,2013-09-30 11:49:00,
2013-09-30 07:50:00,53.3,51.9,30.07,NNW,338,0.0,0.0,95,0.00,,---,0.00,VWS V14.01,2013-09-30 11:50:00,
2013-09-30 07:51:00,53.3,51.9,30.07,NNW,338,0.0,0.0,95,0.00,,---,0.00,VWS V14.01,2013-09-30 11:51:00,
2013-09-30 07:52:00,53.4,52.0,30.07,NNW,338,0.0,0.0,95,0.00,,---,0.00,VWS V14.01,2013-09-30 11:52:00,
2013-09-30 07:53:00,50.9,49.0,30.08,ENE,58,0.0,0.0,93,0.00,,---,0.00,VWS V14.01,2013-09-30 11:53:00,
2013-09-30 07:54:00,53.4,52.0,30.07,NNW,338,0.0,0.0,95,0.00,,---,0.00,VWS V14.01,2013-09-30 11:54:00,
2013-09-30 07:55:00,53.4,52.0,30.07,NNW,338,0.0,0.0,95,0.00,,---,0.00,VWS V14.01,2013-09-30 11:55:00,
2013-09-30 07:56:00,53.4,52.0,30.07,NNW,338,0.0,0.0,95,0.00,,---,0.00,VWS V14.01,2013-09-30 11:56:00,
2013-09-30 07:57:00,53.4,52.0,30.07,NNW,338,0.0,0.0,95,0.00,,---,0.00,VWS V14.01,2013-09-30 11:57:00,
2013-09-30 07:58:00,51.2,49.5,30.08,ENE,58,0.0,0.0,94,0.00,,---,0.00,VWS V14.01,2013-09-30 11:58:00,
2013-09-30 07:59:00,53.4,51.7,30.07,NNW,338,0.0,0.0,94,0.00,,---,0.00,VWS V14.01,2013-09-30 11:59:00,
2013-09-30 08:00:00,53.3,51.6,30.07,NNW,338,0.0,0.0,94,0.00,,---,0.00,VWS V14.01,2013-09-30 12:00:00,
2013-09-30 08:01:00,53.3,51.6,30.07,NNW,338,0.0,0.0,94,0.00,,---,0.00,VWS V14.01,2013-09-30 12:01:00,
2013-09-30 08:02:00,53.3,51.6,30.07,NNW,338,0.0,0.0,94,0.00,,---,0.00,VWS V14.01,2013-09-30 12:02:00,
2013-09-30 08:03:00,51.6,49.9,30.08,ENE,58,0.0,0.0,94,0.00,,---,0.00,VWS V14.01,2013-09-30 12:03:00,
2013-09-30 08:04:00,53.2,51.5,30.07,NNW,338,1.0,1.0,94,0.00,,---,0.00,VWS V14.01,2013-09-30 12:04:00,
2013-09-30 08:05:00,53.2,51.5,30.07,NNW,338,0.0,1.0,94,0.00,,---,0.00,VWS V14.01,2013-09-30 12:05:00,
2013-09-30 08:06:00,53.3,51.6,30.07,NNW,338,0.0,1.0,94,0.00,,---,0.00,VWS V14.01,2013-09-30 12:06:00,
2013-09-30 08:07:00,53.3,51.6,30.07,NNW,338,0.0,1.0,94,0.00,,---,0.00,VWS V14.01,2013-09-30 12:07:00,
2013-09-30 08:08:00,52.0,50.0,30.08,ENE,58,0.0,1.0,93,0.00,,---,0.00,VWS V14.01,2013-09-30 12:08:00,
2013-09-30 08:09:00,53.5,51.5,30.08,NNW,338,0.0,1.0,93,0.00,,---,0.00,VWS V14.01,2013-09-30 12:09:00,
2013-09-30 08:10:00,53.6,51.6,30.07,NNW,338,0.0,1.0,93,0.00,,---,0.00,VWS V14.01,2013-09-30 12:10:00,
2013-09-30 08:11:00,53.6,51.6,30.07,NNW,338,1.0,1.0,93,0.00,,---,0.00,VWS V14.01,2013-09-30 12:11:00,
2013-09-30 08:12:00,53.7,51.1,30.07,NW,326,1.0,1.0,91,0.00,,---,0.00,VWS V14.01,2013-09-30 12:12:00,
2013-09-30 08:13:00,52.3,50.6,30.08,NNW,338,0.0,1.0,94,0.00,,---,0.00,VWS V14.01,2013-09-30 12:13:00,
2013-09-30 08:14:00,53.9,51.3,30.07,NW,324,0.0,1.0,91,0.00,,---,0.00,VWS V14.01,2013-09-30 12:14:00,
2013-09-30 08:15:00,54.0,51.1,30.07,NW,326,0.0,1.0,90,0.00,,---,0.00,VWS V14.01,2013-09-30 12:15:00,
2013-09-30 08:16:00,54.1,51.2,30.07,NW,324,0.0,1.0,90,0.00,,---,0.00,VWS V14.01,2013-09-30 12:16:00,
2013-09-30 08:17:00,54.3,51.4,30.07,NW,326,0.0,1.0,90,0.00,,---,0.00,VWS V14.01,2013-09-30 12:17:00,
2013-09-30 08:18:00,52.4,50.7,30.08,NNW,338,0.0,1.0,94,0.00,,---,0.00,VWS V14.01,2013-09-30 12:18:00,
2013-09-30 08:19:00,54.5,51.3,30.07,NW,324,0.0,0.0,89,0.00,,---,0.00,VWS V14.01,2013-09-30 12:19:00,
2013-09-30 08:20:00,54.7,51.8,30.07,NW,324,0.0,0.0,90,0.00,,---,0.00,VWS V14.01,2013-09-30 12:20:00,
2013-09-30 08:21:00,54.9,52.3,30.07,NW,309,1.0,1.0,91,0.00,,---,0.00,VWS V14.01,2013-09-30 12:21:00,
2013-09-30 08:22:00,55.0,51.8,30.07,NW,309,1.0,1.0,89,0.00,,---,0.00,VWS V14.01,2013-09-30 12:22:00,
2013-09-30 08:23:00,52.7,51.3,30.08,NNW,338,0.0,0.0,95,0.00,,---,0.00,VWS V14.01,2013-09-30 12:23:00,
2013-09-30 08:24:00,55.4,51.6,30.07,West,268,1.0,2.0,87,0.00,,---,0.00,VWS V14.01,2013-09-30 12:24:00,
2013-09-30 08:25:00,55.6,51.8,30.07,WNW,283,1.0,2.0,87,0.00,,---,0.00,VWS V14.01,2013-09-30 12:25:00,
2013-09-30 08:26:00,55.8,51.4,30.07,NW,321,2.0,3.0,85,0.00,,---,0.00,VWS V14.01,2013-09-30 12:26:00,
2013-09-30 08:27:00,55.9,50.8,30.07,NW,304,3.0,3.0,83,0.00,,---,0.00,VWS V14.01,2013-09-30 12:27:00,
2013-09-30 08:28:00,53.1,51.7,30.08,NNW,336,0.0,0.0,95,0.00,,---,0.00,VWS V14.01,2013-09-30 12:28:00,
2013-09-30 08:29:00,56.2,51.1,30.07,WNW,284,1.0,3.0,83,0.00,,---,0.00,VWS V14.01,2013-09-30 12:29:00,
2013-09-30 08:30:00,56.4,51.0,30.07,WNW,288,3.0,3.0,82,0.00,,---,0.00,VWS V14.01,2013-09-30 12:30:00,
2013-09-30 08:31:00,56.5,50.4,30.07,NW,312,3.0,4.0,80,0.00,,---,0.00,VWS V14.01,2013-09-30 12:31:00,
2013-09-30 08:32:00,56.7,50.6,30.07,WNW,288,3.0,4.0,80,0.00,,---,0.00,VWS V14.01,2013-09-30 12:32:00,
2013-09-30 08:33:00,53.4,52.0,30.07,NNW,338,0.0,0.0,95,0.00,,---,0.00,VWS V14.01,2013-09-30 12:33:00,
2013-09-30 08:34:00,57.0,50.9,30.07,West,267,2.0,4.0,80,0.00,,---,0.00,VWS V14.01,2013-09-30 12:34:00,
2013-09-30 08:35:00,57.1,51.0,30.07,NW,320,2.0,4.0,80,0.00,,---,0.00,VWS V14.01,2013-09-30 12:35:00,
2013-09-30 08:36:00,57.2,51.1,30.07,WNW,300,1.0,4.0,80,0.00,,---,0.00,VWS V14.01,2013-09-30 12:36:00,
2013-09-30 08:37:00,57.4,51.3,30.07,WNW,293,2.0,4.0,80,0.00,,---,0.00,VWS V14.01,2013-09-30 12:37:00,
2013-09-30 08:38:00,53.4,52.0,30.07,NNW,338,0.0,0.0,95,0.00,,---,0.00,VWS V14.01,2013-09-30 12:38:00,
2013-09-30 08:39:00,57.6,50.8,30.07,WNW,288,2.0,3.0,78,0.00,,---,0.00,VWS V14.01,2013-09-30 12:39:00,
2013-09-30 08:40:00,57.8,50.7,30.07,WNW,286,2.0,3.0,77,0.00,,---,0.00,VWS V14.01,2013-09-30 12:40:00,
2013-09-30 08:41:00,57.8,50.7,30.07,WNW,283,4.0,4.0,77,0.00,,---,0.00,VWS V14.01,2013-09-30 12:41:00,
2013-09-30 08:42:00,57.9,50.4,30.07,WNW,283,2.0,4.0,76,0.00,,---,0.00,VWS V14.01,2013-09-30 12:42:00,
2013-09-30 08:43:00,53.3,51.6,30.07,NNW,338,0.0,0.0,94,0.00,,---,0.00,VWS V14.01,2013-09-30 12:43:00,
2013-09-30 08:44:00,58.1,50.6,30.07,WNW,293,2.0,4.0,76,0.00,,---,0.00,VWS V14.01,2013-09-30 12:44:00,
2013-09-30 08:45:00,58.2,50.7,30.07,West,262,1.0,4.0,76,0.00,,---,0.00,VWS V14.01,2013-09-30 12:45:00,
2013-09-30 08:46:00,58.3,50.8,30.07,WNW,302,1.0,4.0,76,0.00,,---,0.00,VWS V14.01,2013-09-30 12:46:00,
2013-09-30 08:47:00,58.5,51.3,30.07,NW,308,2.0,3.0,77,0.00,,---,0.00,VWS V14.01,2013-09-30 12:47:00,
2013-09-30 08:48:00,53.3,51.6,30.07,NNW,338,0.0,1.0,94,0.00,,---,0.00,VWS V14.01,2013-09-30 12:48:00,
2013-09-30 08:49:00,58.7,50.1,30.07,WNW,302,2.0,4.0,73,0.00,,---,0.00,VWS V14.01,2013-09-30 12:49:00,
2013-09-30 08:50:00,58.7,50.5,30.07,WNW,285,1.0,4.0,74,0.00,,---,0.00,VWS V14.01,2013-09-30 12:50:00,
2013-09-30 08:51:00,58.8,50.5,30.07,WNW,285,0.0,4.0,74,0.00,,---,0.00,VWS V14.01,2013-09-30 12:51:00,
2013-09-30 08:52:00,58.9,50.6,30.07,WNW,285,0.0,4.0,74,0.00,,---,0.00,VWS V14.01,2013-09-30 12:52:00,
2013-09-30 08:53:00,53.7,51.1,30.07,NW,326,1.0,1.0,91,0.00,,---,0.00,VWS V14.01,2013-09-30 12:53:00,
2013-09-30 08:54:00,59.0,50.7,30.07,WNW,285,0.0,2.0,74,0.00,,---,0.00,VWS V14.01,2013-09-30 12:54:00,
2013-09-30 08:55:00,59.1,50.8,30.07,WNW,284,1.0,1.0,74,0.00,,---,0.00,VWS V14.01,2013-09-30 12:55:00,
2013-09-30 08:56:00,59.1,50.5,30.07,WNW,298,1.0,1.0,73,0.00,,---,0.00,VWS V14.01,2013-09-30 12:56:00,
2013-09-30 08:57:00,59.2,50.9,30.07,WNW,302,2.0,3.0,74,0.00,,---,0.00,VWS V14.01,2013-09-30 12:57:00,
2013-09-30 08:58:00,54.3,51.4,30.07,NW,326,0.0,1.0,90,0.00,,---,0.00,VWS V14.01,2013-09-30 12:58:00,
2013-09-30 08:59:00,59.3,50.3,30.07,WNW,288,2.0,3.0,72,0.00,,---,0.00,VWS V14.01,2013-09-30 12:59:00,
2013-09-30 09:00:00,59.3,50.3,30.07,West,276,1.0,3.0,72,0.00,,---,0.00,VWS V14.01,2013-09-30 13:00:00,
2013-09-30 09:01:00,59.3,50.7,30.07,NW,316,2.0,3.0,73,0.00,,---,0.00,VWS V14.01,2013-09-30 13:01:00,
2013-09-30 09:02:00,59.4,50.4,30.07,WNW,285,2.0,3.0,72,0.00,,---,0.00,VWS V14.01,2013-09-30 13:02:00,
2013-09-30 09:03:00,55.0,51.8,30.07,NW,309,1.0,1.0,89,0.00,,---,0.00,VWS V14.01,2013-09-30 13:03:00,
2013-09-30 09:04:00,59.5,50.5,30.07,WNW,285,2.0,3.0,72,0.00,,---,0.00,VWS V14.01,2013-09-30 13:04:00,
2013-09-30 09:05:00,59.5,50.1,30.07,WNW,290,2.0,3.0,71,0.00,,---,0.00,VWS V14.01,2013-09-30 13:05:00,
2013-09-30 09:06:00,59.5,50.1,30.07,WNW,288,2.0,3.0,71,0.00,,---,0.00,VWS V14.01,2013-09-30 13:06:00,
2013-09-30 09:07:00,59.5,50.1,30.07,West,281,1.0,3.0,71,0.00,,---,0.00,VWS V14.01,2013-09-30 13:07:00,
2013-09-30 09:08:00,55.9,50.8,30.07,NW,304,3.0,3.0,83,0.00,,---,0.00,VWS V14.01,2013-09-30 13:08:00,
2013-09-30 09:09:00,59.5,50.1,30.07,WNW,290,3.0,3.0,71,0.00,,---,0.00,VWS V14.01,2013-09-30 13:09:00,
2013-09-30 09:10:00,59.5,50.1,30.07,NW,308,1.0,3.0,71,0.00,,---,0.00,VWS V14.01,2013-09-30 13:10:00,
2013-09-30 09:11:00,59.5,50.1,30.07,NW,308,0.0,3.0,71,0.00,,---,0.00,VWS V14.01,2013-09-30 13:11:00,
2013-09-30 09:12:00,59.5,50.5,30.07,WNW,296,2.0,3.0,72,0.00,,---,0.00,VWS V14.01,2013-09-30 13:12:00,
2013-09-30 09:13:00,56.7,50.6,30.07,WNW,288,3.0,4.0,80,0.00,,---,0.00,VWS V14.01,2013-09-30 13:13:00,
2013-09-30 09:14:00,59.6,50.6,30.07,WNW,296,1.0,3.0,72,0.00,,---,0.00,VWS V14.01,2013-09-30 13:14:00,
2013-09-30 09:15:00,59.6,50.6,30.07,NW,307,4.0,4.0,72,0.00,,---,0.00,VWS V14.01,2013-09-30 13:15:00,
2013-09-30 09:16:00,59.6,50.2,30.07,WNW,301,2.0,4.0,71,0.00,,---,0.00,VWS V14.01,2013-09-30 13:16:00,
2013-09-30 09:17:00,59.6,50.2,30.07,NW,314,1.0,4.0,71,0.00,,---,0.00,VWS V14.01,2013-09-30 13:17:00,
2013-09-30 09:18:00,59.6,49.8,30.07,North,352,1.0,4.0,70,0.00,,---,0.00,VWS V14.01,2013-09-30 13:18:00,
2013-09-30 09:19:00,57.5,51.0,30.07,WNW,283,3.0,3.0,79,0.00,,---,0.00,VWS V14.01,2013-09-30 13:19:00,
2013-09-30 09:20:00,59.7,50.3,30.07,NNW,346,2.0,4.0,71,0.00,,---,0.00,VWS V14.01,2013-09-30 13:20:00,
2013-09-30 09:21:00,59.7,50.3,30.07,NW,322,2.0,4.0,71,0.00,,---,0.00,VWS V14.01,2013-09-30 13:21:00,
2013-09-30 09:22:00,59.7,50.3,30.07,NNW,342,1.0,4.0,71,0.00,,---,0.00,VWS V14.01,2013-09-30 13:22:00,
2013-09-30 09:23:00,59.8,50.4,30.07,NW,309,2.0,4.0,71,0.00,,---,0.00,VWS V14.01,2013-09-30 13:23:00,
2013-09-30 09:24:00,58.0,50.5,30.07,West,276,2.0,4.0,76,0.00,,---,0.00,VWS V14.01,2013-09-30 13:24:00,
2013-09-30 09:25:00,59.9,50.5,30.06,North,356,3.0,4.0,71,0.00,,---,0.00,VWS V14.01,2013-09-30 13:25:00,
2013-09-30 09:26:00,60.0,50.2,30.06,West,278,3.0,4.0,70,0.00,,---,0.00,VWS V14.01,2013-09-30 13:26:00,
2013-09-30 09:27:00,60.1,51.1,30.06,NW,314,2.0,4.0,72,0.00,,---,0.00,VWS V14.01,2013-09-30 13:27:00,
2013-09-30 09:28:00,60.3,50.9,30.06,NW,309,2.0,4.0,71,0.00,,---,0.00,VWS V14.01,2013-09-30 13:28:00,
2013-09-30 09:29:00,58.6,51.8,30.07,NW,309,0.0,3.0,78,0.00,,---,0.00,VWS V14.01,2013-09-30 13:29:00,
2013-09-30 09:30:00,60.3,50.1,30.06,NNE,23,2.0,4.0,69,0.00,,---,0.00,VWS V14.01,2013-09-30 13:30:00,
2013-09-30 09:31:00,60.3,50.5,30.06,NNW,328,1.0,4.0,70,0.00,,---,0.00,VWS V14.01,2013-09-30 13:31:00,
2013-09-30 09:32:00,60.2,50.0,30.06,NW,324,2.0,4.0,69,0.00,,---,0.00,VWS V14.01,2013-09-30 13:32:00,
2013-09-30 09:33:00,60.1,50.3,30.06,NNE,33,0.0,4.0,70,0.00,,---,0.00,VWS V14.01,2013-09-30 13:33:00,
2013-09-30 09:34:00,60.1,50.7,30.06,WNW,288,0.0,4.0,71,0.00,,---,0.00,VWS V14.01,2013-09-30 13:34:00,
2013-09-30 09:35:00,59.0,50.7,30.07,WNW,285,0.0,2.0,74,0.00,,---,0.00,VWS V14.01,2013-09-30 13:35:00,
2013-09-30 09:36:00,60.2,50.8,30.06,NNW,330,3.0,4.0,71,0.00,,---,0.00,VWS V14.01,2013-09-30 13:36:00,
2013-09-30 09:37:00,60.3,49.7,30.06,NW,309,2.0,4.0,68,0.00,,---,0.00,VWS V14.01,2013-09-30 13:37:00,
2013-09-30 09:38:00,60.4,50.2,30.05,NW,320,4.0,5.0,69,0.00,,---,0.00,VWS V14.01,2013-09-30 13:38:00,
2013-09-30 09:39:00,60.5,49.9,30.05,NW,318,3.0,5.0,68,0.00,,---,0.00,VWS V14.01,2013-09-30 13:39:00,
2013-09-30 09:40:00,59.3,50.3,30.07,WNW,288,2.0,3.0,72,0.00,,---,0.00,VWS V14.01,2013-09-30 13:40:00,
2013-09-30 09:41:00,60.8,50.6,30.05,NW,314,4.0,5.0,69,0.00,,---,0.00,VWS V14.01,2013-09-30 13:41:00,
2013-09-30 09:42:00,60.9,49.5,30.05,NW,312,1.0,5.0,66,0.00,,---,0.00,VWS V14.01,2013-09-30 13:42:00,
2013-09-30 09:43:00,61.0,50.0,30.05,WNW,294,4.0,5.0,67,0.00,,---,0.00,VWS V14.01,2013-09-30 13:43:00,
2013-09-30 09:44:00,61.1,49.7,30.05,NW,308,5.0,5.0,66,0.00,,---,0.00,VWS V14.01,2013-09-30 13:44:00,
2013-09-30 09:45:00,59.5,50.5,30.07,WNW,285,2.0,3.0,72,0.00,,---,0.00,VWS V14.01,2013-09-30 13:45:00,
2013-09-30 09:46:00,61.3,49.9,30.05,NW,315,4.0,5.0,66,0.00,,---,0.00,VWS V14.01,2013-09-30 13:46:00,
2013-09-30 09:47:00,61.3,50.7,30.05,NW,304,4.0,6.0,68,0.00,,---,0.00,VWS V14.01,2013-09-30 13:47:00,
2013-09-30 09:48:00,61.4,50.4,30.05,NW,311,4.0,6.0,67,0.00,,---,0.00,VWS V14.01,2013-09-30 13:48:00,
2013-09-30 09:49:00,61.4,50.4,30.05,NW,316,5.0,6.0,67,0.00,,---,0.00,VWS V14.01,2013-09-30 13:49:00,
2013-09-30 09:50:00,59.5,50.1,30.07,WNW,290,3.0,3.0,71,0.00,,---,0.00,VWS V14.01,2013-09-30 13:50:00,
2013-09-30 09:51:00,61.2,49.3,30.06,West,281,7.0,7.0,65,0.00,,---,0.00,VWS V14.01,2013-09-30 13:51:00,
2013-09-30 09:52:00,61.1,49.7,30.06,WNW,287,6.0,8.0,66,0.00,,---,0.00,VWS V14.01,2013-09-30 13:52:00,
2013-09-30 09:53:00,61.0,49.2,30.06,NW,312,6.0,8.0,65,0.00,,---,0.00,VWS V14.01,2013-09-30 13:53:00,
2013-09-30 09:54:00,60.9,49.1,30.06,WNW,290,3.0,8.0,65,0.00,,---,0.00,VWS V14.01,2013-09-30 13:54:00,
2013-09-30 09:55:00,59.6,50.6,30.07,WNW,296,1.0,3.0,72,0.00,,---,0.00,VWS V14.01,2013-09-30 13:55:00,
2013-09-30 09:56:00,60.7,48.9,30.06,WNW,288,3.0,8.0,65,0.00,,---,0.00,VWS V14.01,2013-09-30 13:56:00,
2013-09-30 09:57:00,60.5,49.1,30.06,WNW,293,3.0,6.0,66,0.00,,---,0.00,VWS V14.01,2013-09-30 13:57:00,
2013-09-30 09:58:00,60.5,49.5,30.06,NW,308,4.0,6.0,67,0.00,,---,0.00,VWS V14.01,2013-09-30 13:58:00,
2013-09-30 09:59:00,60.4,48.6,30.06,West,262,2.0,6.0,65,0.00,,---,0.00,VWS V14.01,2013-09-30 13:59:00,
2013-09-30 10:00:00,59.6,50.2,30.07,WNW,302,1.0,4.0,71,0.00,,---,0.00,VWS V14.01,2013-09-30 14:00:00,
2013-09-30 10:01:00,60.3,48.9,30.06,West,280,2.0,5.0,66,0.00,,---,0.00,VWS V14.01,2013-09-30 14:01:00,
2013-09-30 10:02:00,60.3,48.9,30.06,West,268,1.0,5.0,66,0.00,,---,0.00,VWS V14.01,2013-09-30 14:02:00,
2013-09-30 10:03:00,60.3,49.3,30.06,West,276,2.0,5.0,67,0.00,,---,0.00,VWS V14.01,2013-09-30 14:03:00,
2013-09-30 10:04:00,60.2,48.8,30.06,West,280,1.0,4.0,66,0.00,,---,0.00,VWS V14.01,2013-09-30 14:04:00,
2013-09-30 10:05:00,60.2,48.8,30.05,WNW,290,2.0,3.0,66,0.00,,---,0.00,VWS V14.01,2013-09-30 14:05:00,
2013-09-30 10:06:00,59.9,50.5,30.06,North,356,3.0,4.0,71,0.00,,---,0.00,VWS V14.01,2013-09-30 14:06:00,
2013-09-30 10:07:00,60.2,49.2,30.06,West,272,1.0,3.0,67,0.00,,---,0.00,VWS V14.01,2013-09-30 14:07:00,
2013-09-30 10:08:00,60.2,49.2,30.05,West,267,0.0,2.0,67,0.00,,---,0.00,VWS V14.01,2013-09-30 14:08:00,
2013-09-30 10:09:00,60.3,49.3,30.06,West,269,1.0,2.0,67,0.00,,---,0.00,VWS V14.01,2013-09-30 14:09:00,
2013-09-30 10:10:00,60.3,48.9,30.06,West,267,0.0,2.0,66,0.00,,---,0.00,VWS V14.01,2013-09-30 14:10:00,
2013-09-30 10:11:00,60.3,50.1,30.06,NNE,23,2.0,4.0,69,0.00,,---,0.00,VWS V14.01,2013-09-30 14:11:00,
2013-09-30 10:12:00,60.6,50.8,30.06,ENE,75,2.0,2.0,70,0.00,,---,0.00,VWS V14.01,2013-09-30 14:12:00,
2013-09-30 10:13:00,60.8,49.8,30.06,ESE,118,2.0,2.0,67,0.00,,---,0.00,VWS V14.01,2013-09-30 14:13:00,
2013-09-30 10:14:00,61.0,49.2,30.06,SSE,150,2.0,2.0,65,0.00,,---,0.00,VWS V14.01,2013-09-30 14:14:00,
2013-09-30 10:15:00,61.2,49.8,30.06,SE,139,2.0,2.0,66,0.00,,---,0.00,VWS V14.01,2013-09-30 14:15:00,
2013-09-30 10:16:00,60.1,50.7,30.06,NNW,329,2.0,4.0,71,0.00,,---,0.00,VWS V14.01,2013-09-30 14:16:00,
2013-09-30 10:17:00,61.6,48.5,30.05,SE,131,2.0,4.0,62,0.00,,---,0.00,VWS V14.01,2013-09-30 14:17:00,
2013-09-30 10:18:00,61.7,49.4,30.05,ESE,113,1.0,4.0,64,0.00,,---,0.00,VWS V14.01,2013-09-30 14:18:00,
2013-09-30 10:19:00,61.8,49.1,30.06,SE,136,2.0,4.0,63,0.00,,---,0.00,VWS V14.01,2013-09-30 14:19:00,
2013-09-30 10:20:00,62.0,49.7,30.05,SSE,150,2.0,4.0,64,0.00,,---,0.00,VWS V14.01,2013-09-30 14:20:00,
2013-09-30 10:21:00,60.6,50.0,30.05,NNE,29,1.0,5.0,68,0.00,,---,0.00,VWS V14.01,2013-09-30 14:21:00,
2013-09-30 10:22:00,62.2,49.0,30.05,South,187,2.0,3.0,62,0.00,,---,0.00,VWS V14.01,2013-09-30 14:22:00,
2013-09-30 10:23:00,62.3,49.1,30.05,WSW,245,2.0,3.0,62,0.00,,---,0.00,VWS V14.01,2013-09-30 14:23:00,
2013-09-30 10:24:00,62.5,49.3,30.05,West,262,0.0,3.0,62,0.00,,---,0.00,VWS V14.01,2013-09-30 14:24:00,
2013-09-30 10:25:00,62.6,49.8,30.05,SSE,152,1.0,3.0,63,0.00,,---,0.00,VWS V14.01,2013-09-30 14:25:00,
2013-09-30 10:26:00,61.2,50.2,30.05,NW,324,3.0,5.0,67,0.00,,---,0.00,VWS V14.01,2013-09-30 14:26:00,
2013-09-30 10:27:00,62.9,49.3,30.05,South,184,3.0,3.0,61,0.00,,---,0.00,VWS V14.01,2013-09-30 14:27:00,
2013-09-30 10:28:00,63.1,50.3,30.05,SSE,153,1.0,3.0,63,0.00,,---,0.00,VWS V14.01,2013-09-30 14:28:00,
2013-09-30 10:29:00,63.3,49.6,30.05,SSW,205,3.0,3.0,61,0.00,,---,0.00,VWS V14.01,2013-09-30 14:29:00,
2013-09-30 10:30:00,63.3,49.2,30.05,WSW,238,3.0,4.0,60,0.00,,---,0.00,VWS V14.01,2013-09-30 14:30:00,
2013-09-30 10:31:00,63.3,49.2,30.05,SE,132,2.0,4.0,60,0.00,,---,0.00,VWS V14.01,2013-09-30 14:31:00,
2013-09-30 10:32:00,61.2,49.3,30.06,West,281,7.0,7.0,65,0.00,,---,0.00,VWS V14.01,2013-09-30 14:32:00,
2013-09-30 10:33:00,63.4,50.2,30.05,SSW,205,1.0,4.0,62,0.00,,---,0.00,VWS V14.01,2013-09-30 14:33:00,
2013-09-30 10:34:00,63.4,48.8,30.05,SSW,201,2.0,4.0,59,0.00,,---,0.00,VWS V14.01,2013-09-30 14:34:00,
2013-09-30 10:35:00,63.5,48.9,30.05,SSE,160,2.0,3.0,59,0.00,,---,0.00,VWS V14.01,2013-09-30 14:35:00,
2013-09-30 10:36:00,63.7,50.0,30.05,ESE,117,2.0,3.0,61,0.00,,---,0.00,VWS V14.01,2013-09-30 14:36:00,
2013-09-30 10:37:00,60.7,48.9,30.06,WNW,288,3.0,8.0,65,0.00,,---,0.00,VWS V14.01,2013-09-30 14:37:00,
2013-09-30 10:38:00,63.7,49.1,30.05,East,91,4.0,5.0,59,0.00,,---,0.00,VWS V14.01,2013-09-30 14:38:00,
2013-09-30 10:39:00,63.7,49.6,30.05,NE,34,2.0,5.0,60,0.00,,---,0.00,VWS V14.01,2013-09-30 14:39:00,
2013-09-30 10:40:00,63.7,49.6,30.05,ESE,120,2.0,5.0,60,0.00,,---,0.00,VWS V14.01,2013-09-30 14:40:00,
2013-09-30 10:41:00,63.7,49.1,30.05,ESE,108,1.0,5.0,59,0.00,,---,0.00,VWS V14.01,2013-09-30 14:41:00,
2013-09-30 10:42:00,60.3,48.9,30.06,West,280,2.0,5.0,66,0.00,,---,0.00,VWS V14.01,2013-09-30 14:42:00,
2013-09-30 10:43:00,63.7,48.7,30.04,NNE,23,1.0,5.0,58,0.00,,---,0.00,VWS V14.01,2013-09-30 14:43:00,
2013-09-30 10:44:00,63.6,49.0,30.05,NW,316,1.0,5.0,59,0.00,,---,0.00,VWS V14.01,2013-09-30 14:44:00,
2013-09-30 10:45:00,63.7,49.6,30.04,ESE,107,3.0,5.0,60,0.00,,---,0.00,VWS V14.01,2013-09-30 14:45:00,
2013-09-30 10:46:00,63.6,49.0,30.04,ESE,121,3.0,5.0,59,0.00,,---,0.00,VWS V14.01,2013-09-30 14:46:00,
2013-09-30 10:47:00,60.2,48.8,30.06,West,272,0.0,3.0,66,0.00,,---,0.00,VWS V14.01,2013-09-30 14:47:00,
2013-09-30 10:48:00,63.6,49.0,30.04,SE,132,0.0,4.0,59,0.00,,---,0.00,VWS V14.01,2013-09-30 14:48:00,
2013-09-30 10:49:00,63.7,50.0,30.04,East,89,3.0,4.0,61,0.00,,---,0.00,VWS V14.01,2013-09-30 14:49:00,
2013-09-30 10:50:00,63.7,49.1,30.04,East,98,3.0,4.0,59,0.00,,---,0.00,VWS V14.01,2013-09-30 14:50:00,
2013-09-30 10:51:00,63.8,49.7,30.04,ESE,104,2.0,4.0,60,0.00,,---,0.00,VWS V14.01,2013-09-30 14:51:00,
2013-09-30 10:52:00,60.5,49.9,30.06,West,267,0.0,1.0,68,0.00,,---,0.00,VWS V14.01,2013-09-30 14:52:00,
2013-09-30 10:53:00,63.8,49.2,30.04,SW,231,2.0,4.0,59,0.00,,---,0.00,VWS V14.01,2013-09-30 14:53:00,
2013-09-30 10:54:00,63.9,49.3,30.04,WSW,240,2.0,6.0,59,0.00,,---,0.00,VWS V14.01,2013-09-30 14:54:00,
2013-09-30 10:55:00,63.9,48.8,30.03,West,269,3.0,6.0,58,0.00,,---,0.00,VWS V14.01,2013-09-30 14:55:00,
2013-09-30 10:56:00,63.9,48.4,30.04,SW,226,2.0,6.0,57,0.00,,---,0.00,VWS V14.01,2013-09-30 14:56:00,
2013-09-30 10:57:00,61.4,49.1,30.06,East,84,3.0,4.0,64,0.00,,---,0.00,VWS V14.01,2013-09-30 14:57:00,
2013-09-30 10:58:00,63.9,51.1,30.03,SE,143,0.0,6.0,63,0.00,,---,0.00,VWS V14.01,2013-09-30 14:58:00,
2013-09-30 10:59:00,64.0,51.2,30.03,SE,142,0.0,4.0,63,0.00,,---,0.00,VWS V14.01,2013-09-30 14:59:00,
2013-09-30 11:00:00,64.2,50.9,30.03,SW,224,3.0,7.0,62,0.00,,---,0.00,VWS V14.01,2013-09-30 15:00:00,
2013-09-30 11:01:00,64.3,49.7,30.03,SW,225,3.0,7.0,59,0.00,,---,0.00,VWS V14.01,2013-09-30 15:01:00,
2013-09-30 11:02:00,64.4,50.2,30.03,SW,232,2.0,7.0,60,0.00,,---,0.00,VWS V14.01,2013-09-30 15:02:00,
2013-09-30 11:03:00,62.2,49.0,30.05,South,187,2.0,3.0,62,0.00,,---,0.00,VWS V14.01,2013-09-30 15:03:00,
2013-09-30 11:04:00,64.5,49.4,30.03,SSE,165,4.0,7.0,58,0.00,,---,0.00,VWS V14.01,2013-09-30 15:04:00,
2013-09-30 11:05:00,64.6,49.0,30.03,SSW,197,3.0,5.0,57,0.00,,---,0.00,VWS V14.01,2013-09-30 15:05:00,
2013-09-30 11:06:00,64.6,49.0,30.03,ESE,115,3.0,5.0,57,0.00,,---,0.00,VWS V14.01,2013-09-30 15:06:00,
2013-09-30 11:07:00,64.5,48.5,30.03,ESE,102,2.0,5.0,56,0.00,,---,0.00,VWS V14.01,2013-09-30 15:07:00,
2013-09-30 11:08:00,62.9,49.3,30.05,South,184,3.0,3.0,61,0.00,,---,0.00,VWS V14.01,2013-09-30 15:08:00,
2013-09-30 11:09:00,64.6,49.0,30.03,SSW,197,2.0,5.0,57,0.00,,---,0.00,VWS V14.01,2013-09-30 15:09:00,
2013-09-30 11:10:00,64.6,49.5,30.03,West,271,1.0,4.0,58,0.00,,---,0.00,VWS V14.01,2013-09-30 15:10:00,
2013-09-30 11:11:00,64.7,49.1,30.03,SSW,193,2.0,4.0,57,0.00,,---,0.00,VWS V14.01,2013-09-30 15:11:00,
2013-09-30 11:12:00,64.7,50.1,30.03,SE,132,0.0,4.0,59,0.00,,---,0.00,VWS V14.01,2013-09-30 15:12:00,
2013-09-30 11:13:00,63.3,49.2,30.05,South,170,2.0,4.0,60,0.00,,---,0.00,VWS V14.01,2013-09-30 15:13:00,
2013-09-30 11:14:00,64.9,48.8,30.03,SE,136,2.0,4.0,56,0.00,,---,0.00,VWS V14.01,2013-09-30 15:14:00,
2013-09-30 11:15:00,65.0,48.5,30.03,SE,146,0.0,4.0,55,0.00,,---,0.00,VWS V14.01,2013-09-30 15:15:00,
2013-09-30 11:16:00,65.0,49.4,30.03,SSE,147,0.0,3.0,57,0.00,,---,0.00,VWS V14.01,2013-09-30 15:16:00,
2013-09-30 11:17:00,65.1,49.0,30.03,East,90,1.0,3.0,56,0.00,,---,0.00,VWS V14.01,2013-09-30 15:17:00,
2013-09-30 11:18:00,65.2,49.1,30.03,ENE,65,2.0,2.0,56,0.00,,---,0.00,VWS V14.01,2013-09-30 15:18:00,
2013-09-30 11:19:00,63.7,49.1,30.05,East,91,4.0,5.0,59,0.00,,---,0.00,VWS V14.01,2013-09-30 15:19:00,
2013-09-30 11:20:00,65.1,49.5,30.03,NW,323,4.0,5.0,57,0.00,,---,0.00,VWS V14.01,2013-09-30 15:20:00,
2013-09-30 11:21:00,65.0,49.4,30.03,WNW,295,2.0,5.0,57,0.00,,---,0.00,VWS V14.01,2013-09-30 15:21:00,
2013-09-30 11:22:00,64.9,48.8,30.03,NNW,328,0.0,5.0,56,0.00,,---,0.00,VWS V14.01,2013-09-30 15:22:00,
2013-09-30 11:23:00,64.8,48.8,30.03,West,273,1.0,5.0,56,0.00,,---,0.00,VWS V14.01,2013-09-30 15:23:00,
2013-09-30 11:24:00,63.7,48.7,30.04,NNE,23,1.0,5.0,58,0.00,,---,0.00,VWS V14.01,2013-09-30 15:24:00,
2013-09-30 11:25:00,64.7,49.6,30.03,WNW,284,3.0,7.0,58,0.00,,---,0.00,VWS V14.01,2013-09-30 15:25:00,
2013-09-30 11:26:00,64.6,49.5,30.03,NNE,20,4.0,7.0,58,0.00,,---,0.00,VWS V14.01,2013-09-30 15:26:00,
2013-09-30 11:27:00,64.7,50.5,30.03,NE,50,9.0,10.0,60,0.00,,---,0.00,VWS V14.01,2013-09-30 15:27:00,
2013-09-30 11:28:00,64.7,49.1,30.03,NE,36,2.0,10.0,57,0.00,,---,0.00,VWS V14.01,2013-09-30 15:28:00,
2013-09-30 11:29:00,63.6,49.0,30.04,SE,132,0.0,4.0,59,0.00,,---,0.00,VWS V14.01,2013-09-30 15:29:00,
2013-09-30 11:30:00,64.4,48.4,30.03,North,356,4.0,10.0,56,0.00,,---,0.00,VWS V14.01,2013-09-30 15:30:00,
2013-09-30 11:31:00,64.3,48.8,30.03,ENE,70,3.0,10.0,57,0.00,,---,0.00,VWS V14.01,2013-09-30 15:31:00,
2013-09-30 11:32:00,64.3,49.2,30.03,East,96,2.0,10.0,58,0.00,,---,0.00,VWS V14.01,2013-09-30 15:32:00,
2013-09-30 11:33:00,64.3,49.2,30.02,SE,131,3.0,7.0,58,0.00,,---,0.00,VWS V14.01,2013-09-30 15:33:00,
2013-09-30 11:34:00,63.8,49.2,30.04,SW,231,2.0,4.0,59,0.00,,---,0.00,VWS V14.01,2013-09-30 15:34:00,
2013-09-30 11:35:00,64.3,49.2,30.02,WSW,255,2.0,7.0,58,0.00,,---,0.00,VWS V14.01,2013-09-30 15:35:00,
2013-09-30 11:36:00,64.4,49.3,30.02,SE,125,0.0,3.0,58,0.00,,---,0.00,VWS V14.01,2013-09-30 15:36:00,
2013-09-30 11:37:00,64.6,50.9,30.03,NW,323,3.0,3.0,61,0.00,,---,0.00,VWS V14.01,2013-09-30 15:37:00,
2013-09-30 11:38:00,64.8,49.7,30.03,NW,322,3.0,4.0,58,0.00,,---,0.00,VWS V14.01,2013-09-30 15:38:00,
2013-09-30 11:39:00,63.9,51.1,30.03,SE,143,0.0,6.0,63,0.00,,---,0.00,VWS V14.01,2013-09-30 15:39:00,
2013-09-30 11:40:00,64.9,49.3,30.02,NW,306,3.0,4.0,57,0.00,,---,0.00,VWS V14.01,2013-09-30 15:40:00,
2013-09-30 11:41:00,64.9,49.3,30.02,NNE,25,6.0,6.0,57,0.00,,---,0.00,VWS V14.01,2013-09-30 15:41:00,
2013-09-30 11:42:00,65.0,49.4,30.02,NNW,332,2.0,6.0,57,0.00,,---,0.00,VWS V14.01,2013-09-30 15:42:00,
2013-09-30 11:43:00,65.1,50.0,30.02,NE,37,5.0,6.0,58,0.00,,---,0.00,VWS V14.01,2013-09-30 15:43:00,
2013-09-30 11:44:00,64.5,50.3,30.03,SW,231,4.0,7.0,60,0.00,,---,0.00,VWS V14.01,2013-09-30 15:44:00,
2013-09-30 11:45:00,65.0,49.4,30.02,NNW,338,1.0,6.0,57,0.00,,---,0.00,VWS V14.01,2013-09-30 15:45:00,
2013-09-30 11:46:00,65.0,49.4,30.02,WNW,282,0.0,6.0,57,0.00,,---,0.00,VWS V14.01,2013-09-30 15:46:00,
2013-09-30 11:47:00,65.0,49.4,30.02,ESE,119,2.0,5.0,57,0.00,,---,0.00,VWS V14.01,2013-09-30 15:47:00,
2013-09-30 11:48:00,65.0,49.9,30.02,ESE,113,0.0,5.0,58,0.00,,---,0.00,VWS V14.01,2013-09-30 15:48:00,
2013-09-30 11:49:00,65.1,49.5,30.02,ESE,113,0.0,3.0,57,0.00,,---,0.00,VWS V14.01,2013-09-30 15:49:00,
2013-09-30 11:50:00,64.6,49.0,30.03,SSW,197,2.0,5.0,57,0.00,,---,0.00,VWS V14.01,2013-09-30 15:50:00,
2013-09-30 11:51:00,65.3,50.2,30.02,SSE,162,2.0,5.0,58,0.00,,---,0.00,VWS V14.01,2013-09-30 15:51:00,
2013-09-30 11:52:00,65.4,49.8,30.02,West,278,1.0,5.0,57,0.00,,---,0.00,VWS V14.01,2013-09-30 15:52:00,
2013-09-30 11:53:00,65.4,49.8,30.02,NNW,338,2.0,5.0,57,0.00,,---,0.00,VWS V14.01,2013-09-30 15:53:00,
2013-09-30 11:54:00,65.4,49.3,30.02,NNE,27,2.0,5.0,56,0.00,,---,0.00,VWS V14.01,2013-09-30 15:54:00,
2013-09-30 11:55:00,64.9,48.8,30.03,SE,136,2.0,4.0,56,0.00,,---,0.00,VWS V14.01,2013-09-30 15:55:00,
2013-09-30 11:56:00,65.4,51.2,30.02,NNE,29,4.0,8.0,60,0.00,,---,0.00,VWS V14.01,2013-09-30 15:56:00,
2013-09-30 11:57:00,65.4,50.3,30.02,NNW,347,6.0,8.0,58,0.00,,---,0.00,VWS V14.01,2013-09-30 15:57:00,
2013-09-30 11:58:00,65.3,50.6,30.02,NNE,25,1.0,8.0,59,0.00,,---,0.00,VWS V14.01,2013-09-30 15:58:00,
2013-09-30 11:59:00,65.2,51.9,30.02,NE,55,3.0,8.0,62,0.00,,---,0.00,VWS V14.01,2013-09-30 15:59:00,
2013-09-30 12:00:00,65.2,48.6,30.03,NNE,32,4.0,5.0,55,0.00,,---,0.00,VWS V14.01,2013-09-30 16:00:00,
2013-09-30 12:01:00,65.0,50.3,30.02,WNW,286,1.0,6.0,59,0.00,,---,0.00,VWS V14.01,2013-09-30 16:01:00,
2013-09-30 12:02:00,64.9,51.2,30.02,ENE,65,0.0,6.0,61,0.00,,---,0.00,VWS V14.01,2013-09-30 16:02:00,
2013-09-30 12:03:00,64.9,51.6,30.02,NNE,29,4.0,6.0,62,0.00,,---,0.00,VWS V14.01,2013-09-30 16:03:00,
2013-09-30 12:04:00,64.9,52.0,30.02,East,99,2.0,6.0,63,0.00,,---,0.00,VWS V14.01,2013-09-30 16:04:00,
2013-09-30 12:05:00,64.8,49.7,30.03,NW,318,4.0,6.0,58,0.00,,---,0.00,VWS V14.01,2013-09-30 16:05:00,
2013-09-30 12:06:00,64.6,52.2,30.01,ENE,74,3.0,6.0,64,0.00,,---,0.00,VWS V14.01,2013-09-30 16:06:00,
2013-09-30 12:07:00,64.4,52.4,30.02,ENE,68,4.0,6.0,65,0.00,,---,0.00,VWS V14.01,2013-09-30 16:07:00,
2013-09-30 12:08:00,64.2,52.2,30.02,ENE,58,4.0,5.0,65,0.00,,---,0.00,VWS V14.01,2013-09-30 16:08:00,
2013-09-30 12:09:00,63.9,52.3,30.02,ENE,57,2.0,5.0,66,0.00,,---,0.00,VWS V14.01,2013-09-30 16:09:00,
2013-09-30 12:10:00,64.6,49.0,30.03,NW,325,4.0,10.0,57,0.00,,---,0.00,VWS V14.01,2013-09-30 16:10:00,
2013-09-30 12:11:00,63.6,52.5,30.02,ENE,59,3.0,5.0,67,0.00,,---,0.00,VWS V14.01,2013-09-30 16:11:00,
2013-09-30 12:12:00,63.5,53.2,30.02,East,82,3.0,7.0,69,0.00,,---,0.00,VWS V14.01,2013-09-30 16:12:00,
2013-09-30 12:13:00,63.4,53.1,30.02,NE,46,6.0,7.0,69,0.00,,---,0.00,VWS V14.01,2013-09-30 16:13:00,
2013-09-30 12:14:00,63.3,52.6,30.01,ENE,65,5.0,7.0,68,0.00,,---,0.00,VWS V14.01,2013-09-30 16:14:00,
2013-09-30 12:15:00,64.3,49.2,30.03,NNE,33,2.0,7.0,58,0.00,,---,0.00,VWS V14.01,2013-09-30 16:15:00,
2013-09-30 12:16:00,63.0,52.7,30.01,NNE,26,3.0,7.0,69,0.00,,---,0.00,VWS V14.01,2013-09-30 16:16:00,
2013-09-30 12:17:00,63.0,53.1,30.01,East,98,2.0,7.0,70,0.00,,---,0.00,VWS V14.01,2013-09-30 16:17:00,
2013-09-30 12:18:00,63.0,53.8,30.01,East,86,3.0,7.0,72,0.00,,---,0.00,VWS V14.01,2013-09-30 16:18:00,
2013-09-30 12:19:00,63.1,53.6,30.01,ESE,120,2.0,6.0,71,0.00,,---,0.00,VWS V14.01,2013-09-30 16:19:00,
2013-09-30 12:20:00,63.1,53.2,30.01,East,79,2.0,6.0,70,0.00,,---,0.00,VWS V14.01,2013-09-30 16:20:00,
2013-09-30 12:21:00,64.9,49.3,30.02,NW,306,3.0,4.0,57,0.00,,---,0.00,VWS V14.01,2013-09-30 16:21:00,
2013-09-30 12:22:00,63.2,52.9,30.01,East,95,5.0,6.0,69,0.00,,---,0.00,VWS V14.01,2013-09-30 16:22:00,
2013-09-30 12:23:00,63.1,52.4,30.01,NE,51,2.0,6.0,68,0.00,,---,0.00,VWS V14.01,2013-09-30 16:23:00,
2013-09-30 12:24:00,63.0,52.3,30.01,NE,56,2.0,7.0,68,0.00,,---,0.00,VWS V14.01,2013-09-30 16:24:00,
2013-09-30 12:25:00,63.0,53.5,30.01,ENE,64,4.0,7.0,71,0.00,,---,0.00,VWS V14.01,2013-09-30 16:25:00,
2013-09-30 12:26:00,65.0,49.4,30.02,NNW,338,1.0,6.0,57,0.00,,---,0.00,VWS V14.01,2013-09-30 16:26:00,
2013-09-30 12:27:00,63.1,52.4,30.01,East,90,5.0,7.0,68,0.00,,---,0.00,VWS V14.01,2013-09-30 16:27:00,
2013-09-30 12:28:00,63.1,52.4,30.01,ENE,76,1.0,7.0,68,0.00,,---,0.00,VWS V14.01,2013-09-30 16:28:00,
2013-09-30 12:29:00,63.1,52.0,30.00,ESE,105,6.0,7.0,67,0.00,,---,0.00,VWS V14.01,2013-09-30 16:29:00,
2013-09-30 12:30:00,63.1,52.4,30.00,ENE,75,3.0,7.0,68,0.00,,---,0.00,VWS V14.01,2013-09-30 16:30:00,
2013-09-30 12:31:00,65.2,51.4,30.02,SW,224,4.0,5.0,61,0.00,,---,0.00,VWS V14.01,2013-09-30 16:31:00,
2013-09-30 12:32:00,63.4,52.3,30.00,ENE,70,2.0,7.0,67,0.00,,---,0.00,VWS V14.01,2013-09-30 16:32:00,
2013-09-30 12:33:00,63.6,53.3,30.00,ESE,110,5.0,7.0,69,0.00,,---,0.00,VWS V14.01,2013-09-30 16:33:00,
2013-09-30 12:34:00,63.8,52.7,30.00,ESE,122,6.0,7.0,67,0.00,,---,0.00,VWS V14.01,2013-09-30 16:34:00,
2013-09-30 12:35:00,63.7,52.1,30.00,SE,129,5.0,9.0,66,0.00,,---,0.00,VWS V14.01,2013-09-30 16:35:00,
2013-09-30 12:36:00,65.4,51.2,30.02,ESE,113,5.0,5.0,60,0.00,,---,0.00,VWS V14.01,2013-09-30 16:36:00,
2013-09-30 12:37:00,63.6,51.6,30.00,East,99,3.0,9.0,65,0.00,,---,0.00,VWS V14.01,2013-09-30 16:37:00,
2013-09-30 12:38:00,63.5,51.5,30.00,East,94,5.0,9.0,65,0.00,,---,0.00,VWS V14.01,2013-09-30 16:38:00,
2013-09-30 12:39:00,63.3,51.3,30.00,East,86,3.0,9.0,65,0.00,,---,0.00,VWS V14.01,2013-09-30 16:39:00,
2013-09-30 12:40:00,63.3,52.2,30.00,SE,143,3.0,7.0,67,0.00,,---,0.00,VWS V14.01,2013-09-30 16:40:00,
2013-09-30 12:41:00,65.1,50.4,30.02,North,350,4.0,8.0,59,0.00,,---,0.00,VWS V14.01,2013-09-30 16:41:00,
2013-09-30 12:42:00,63.5,53.2,30.00,SE,134,3.0,7.0,69,0.00,,---,0.00,VWS V14.01,2013-09-30 16:42:00,
2013-09-30 12:43:00,63.6,52.5,30.00,East,101,3.0,7.0,67,0.00,,---,0.00,VWS V14.01,2013-09-30 16:43:00,
2013-09-30 12:44:00,63.7,52.5,30.00,SSE,152,4.0,6.0,67,0.00,,---,0.00,VWS V14.01,2013-09-30 16:44:00,
2013-09-30 12:45:00,63.8,52.2,30.00,ESE,102,4.0,6.0,66,0.00,,---,0.00,VWS V14.01,2013-09-30 16:45:00,
2013-09-30 12:46:00,63.9,51.9,30.00,East,81,5.0,6.0,65,0.00,,---,0.00,VWS V14.01,2013-09-30 16:46:00,
2013-09-30 12:47:00,64.6,52.2,30.01,ENE,74,3.0,6.0,64,0.00,,---,0.00,VWS V14.01,2013-09-30 16:47:00,
2013-09-30 12:48:00,64.1,52.5,30.00,NNE,29,2.0,7.0,66,0.00,,---,0.00,VWS V14.01,2013-09-30 16:48:00,
2013-09-30 12:49:00,64.1,52.9,30.00,ESE,113,2.0,7.0,67,0.00,,---,0.00,VWS V14.01,2013-09-30 16:49:00,
2013-09-30 12:50:00,64.1,52.1,30.00,East,85,4.0,7.0,65,0.00,,---,0.00,VWS V14.01,2013-09-30 16:50:00,
2013-09-30 12:51:00,64.1,52.1,30.00,ESE,117,1.0,7.0,65,0.00,,---,0.00,VWS V14.01,2013-09-30 16:51:00,
2013-09-30 12:52:00,63.6,52.5,30.02,ENE,59,3.0,5.0,67,0.00,,---,0.00,VWS V14.01,2013-09-30 16:52:00,
2013-09-30 12:53:00,64.3,53.1,30.00,East,86,1.0,6.0,67,0.00,,---,0.00,VWS V14.01,2013-09-30 16:53:00,
2013-09-30 12:54:00,64.5,52.9,30.00,East,85,1.0,6.0,66,0.00,,---,0.00,VWS V14.01,2013-09-30 16:54:00,
2013-09-30 12:55:00,64.5,53.7,30.00,ESE,118,1.0,4.0,68,0.00,,---,0.00,VWS V14.01,2013-09-30 16:55:00,
2013-09-30 12:56:00,64.7,53.1,30.00,ESE,110,3.0,3.0,66,0.00,,---,0.00,VWS V14.01,2013-09-30 16:56:00,
2013-09-30 12:57:00,63.0,52.7,30.01,NNE,26,3.0,7.0,69,0.00,,---,0.00,VWS V14.01,2013-09-30 16:57:00,
2013-09-30 12:58:00,64.8,52.3,30.00,NE,44,5.0,5.0,64,0.00,,---,0.00,VWS V14.01,2013-09-30 16:58:00,
2013-09-30 12:59:00,64.9,52.9,30.00,NNW,338,1.0,6.0,65,0.00,,---,0.00,VWS V14.01,2013-09-30 16:59:00,
2013-09-30 13:00:00,65.1,53.1,30.00,SE,124,6.0,8.0,65,0.00,,---,0.00,VWS V14.01,2013-09-30 17:00:00,
2013-09-30 13:01:00,65.1,53.1,30.00,East,98,6.0,8.0,65,0.00,,---,0.00,VWS V14.01,2013-09-30 17:01:00,
2013-09-30 13:02:00,63.2,53.3,30.01,SE,127,3.0,6.0,70,0.00,,---,0.00,VWS V14.01,2013-09-30 17:02:00,
2013-09-30 13:03:00,65.2,52.7,30.00,ESE,106,3.0,8.0,64,0.00,,---,0.00,VWS V14.01,2013-09-30 17:03:00,
2013-09-30 13:04:00,65.3,53.7,30.00,ESE,115,7.0,8.0,66,0.00,,---,0.00,VWS V14.01,2013-09-30 17:04:00,
2013-09-30 13:05:00,65.3,53.7,30.00,ESE,121,3.0,10.0,66,0.00,,---,0.00,VWS V14.01,2013-09-30 17:05:00,
2013-09-30 13:06:00,65.3,53.2,30.00,ESE,108,2.0,10.0,65,0.00,,---,0.00,VWS V14.01,2013-09-30 17:06:00,
2013-09-30 13:07:00,63.0,52.3,30.01,North,360,2.0,7.0,68,0.00,,---,0.00,VWS V14.01,2013-09-30 17:07:00,
2013-09-30 13:08:00,65.3,53.2,30.00,SSE,149,1.0,10.0,65,0.00,,---,0.00,VWS V14.01,2013-09-30 17:08:00,
2013-09-30 13:09:00,65.2,52.7,30.00,ENE,71,4.0,10.0,64,0.00,,---,0.00,VWS V14.01,2013-09-30 17:09:00,
2013-09-30 13:10:00,65.3,53.2,30.00,ENE,67,5.0,7.0,65,0.00,,---,0.00,VWS V14.01,2013-09-30 17:10:00,
2013-09-30 13:11:00,65.3,52.8,30.00,SE,146,2.0,7.0,64,0.00,,---,0.00,VWS V14.01,2013-09-30 17:11:00,
2013-09-30 13:12:00,65.3,53.2,30.00,SE,139,0.0,7.0,65,0.00,,---,0.00,VWS V14.01,2013-09-30 17:12:00,
2013-09-30 13:13:00,63.4,52.3,30.00,ENE,70,2.0,7.0,67,0.00,,---,0.00,VWS V14.01,2013-09-30 17:13:00,
2013-09-30 13:14:00,65.6,54.4,30.00,East,82,2.0,7.0,67,0.00,,---,0.00,VWS V14.01,2013-09-30 17:14:00,
2013-09-30 13:15:00,65.7,54.0,30.00,ENE,64,6.0,7.0,66,0.00,,---,0.00,VWS V14.01,2013-09-30 17:15:00,
2013-09-30 13:16:00,65.7,52.8,30.00,NNE,27,5.0,7.0,63,0.00,,---,0.00,VWS V14.01,2013-09-30 17:16:00,
2013-09-30 13:17:00,65.7,53.2,30.00,NE,54,6.0,7.0,64,0.00,,---,0.00,VWS V14.01,2013-09-30 17:17:00,
2013-09-30 13:18:00,63.6,51.6,30.00,East,99,3.0,9.0,65,0.00,,---,0.00,VWS V14.01,2013-09-30 17:18:00,
2013-09-30 13:19:00,65.4,52.5,30.00,ENE,61,4.0,7.0,63,0.00,,---,0.00,VWS V14.01,2013-09-30 17:19:00,
2013-09-30 13:20:00,65.2,52.3,30.00,NE,41,2.0,7.0,63,0.00,,---,0.00,VWS V14.01,2013-09-30 17:20:00,
2013-09-30 13:21:00,65.0,52.5,30.00,NE,39,4.0,8.0,64,0.00,,---,0.00,VWS V14.01,2013-09-30 17:21:00,
2013-09-30 13:22:00,64.7,51.8,30.00,NNE,30,1.0,8.0,63,0.00,,---,0.00,VWS V14.01,2013-09-30 17:22:00,
2013-09-30 13:23:00,63.5,53.2,30.00,SE,134,3.0,7.0,69,0.00,,---,0.00,VWS V14.01,2013-09-30 17:23:00,
2013-09-30 13:24:00,64.4,52.0,30.00,NE,47,2.0,8.0,64,0.00,,---,0.00,VWS V14.01,2013-09-30 17:24:00,
2013-09-30 13:25:00,64.2,51.8,30.00,East,83,2.0,8.0,64,0.00,,---,0.00,VWS V14.01,2013-09-30 17:25:00,
2013-09-30 13:26:00,64.0,51.6,29.99,NE,56,3.0,4.0,64,0.00,,---,0.00,VWS V14.01,2013-09-30 17:26:00,
2013-09-30 13:27:00,63.9,51.5,29.99,North,360,1.0,4.0,64,0.00,,---,0.00,VWS V14.01,2013-09-30 17:27:00,
2013-09-30 13:28:00,63.8,51.4,29.99,NE,47,2.0,3.0,64,0.00,,---,0.00,VWS V14.01,2013-09-30 17:28:00,
2013-09-30 13:29:00,64.1,52.5,30.00,NNE,29,2.0,7.0,66,0.00,,---,0.00,VWS V14.01,2013-09-30 17:29:00,
2013-09-30 13:30:00,63.5,51.5,29.99,NE,44,0.0,3.0,65,0.00,,---,0.00,VWS V14.01,2013-09-30 17:30:00,
2013-09-30 13:31:00,63.5,52.0,29.99,NNE,29,1.0,3.0,66,0.00,,---,0.00,VWS V14.01,2013-09-30 17:31:00,
2013-09-30 13:32:00,63.5,52.8,29.99,NE,50,3.0,3.0,68,0.00,,---,0.00,VWS V14.01,2013-09-30 17:32:00,
2013-09-30 13:33:00,63.5,52.8,29.99,NE,47,4.0,4.0,68,0.00,,---,0.00,VWS V14.01,2013-09-30 17:33:00,
2013-09-30 13:34:00,64.3,53.1,30.00,East,86,1.0,6.0,67,0.00,,---,0.00,VWS V14.01,2013-09-30 17:34:00,
2013-09-30 13:35:00,63.4,51.9,29.99,NNE,19,4.0,5.0,66,0.00,,---,0.00,VWS V14.01,2013-09-30 17:35:00,
2013-09-30 13:36:00,63.3,52.2,29.99,NE,34,2.0,5.0,67,0.00,,---,0.00,VWS V14.01,2013-09-30 17:36:00,
2013-09-30 13:37:00,63.2,52.1,29.99,ENE,78,2.0,5.0,67,0.00,,---,0.00,VWS V14.01,2013-09-30 17:37:00,
2013-09-30 13:38:00,63.2,52.1,29.99,ENE,76,0.0,5.0,67,0.00,,---,0.00,VWS V14.01,2013-09-30 17:38:00,
2013-09-30 13:39:00,64.8,52.3,30.00,NE,44,5.0,5.0,64,0.00,,---,0.00,VWS V14.01,2013-09-30 17:39:00,
2013-09-30 13:40:00,63.3,52.2,29.99,NNE,32,2.0,4.0,67,0.00,,---,0.00,VWS V14.01,2013-09-30 17:40:00,
2013-09-30 13:41:00,63.3,51.8,29.99,NE,53,2.0,3.0,66,0.00,,---,0.00,VWS V14.01,2013-09-30 17:41:00,
2013-09-30 13:42:00,63.3,51.3,29.99,ENE,77,1.0,3.0,65,0.00,,---,0.00,VWS V14.01,2013-09-30 17:42:00,
2013-09-30 13:43:00,63.3,51.8,29.99,ENE,67,1.0,3.0,66,0.00,,---,0.00,VWS V14.01,2013-09-30 17:43:00,
2013-09-30 13:44:00,65.2,52.7,30.00,ESE,106,3.0,8.0,64,0.00,,---,0.00,VWS V14.01,2013-09-30 17:44:00,
2013-09-30 13:45:00,63.3,51.3,29.99,ENE,67,1.0,3.0,65,0.00,,---,0.00,VWS V14.01,2013-09-30 17:45:00,
2013-09-30 13:46:00,63.3,52.2,29.99,ENE,67,0.0,2.0,67,0.00,,---,0.00,VWS V14.01,2013-09-30 17:46:00,
2013-09-30 13:47:00,63.4,52.7,29.99,East,79,1.0,2.0,68,0.00,,---,0.00,VWS V14.01,2013-09-30 17:47:00,
2013-09-30 13:48:00,63.5,52.4,29.99,NE,56,5.0,5.0,67,0.00,,---,0.00,VWS V14.01,2013-09-30 17:48:00,
2013-09-30 13:49:00,65.3,53.2,30.00,SSE,149,1.0,10.0,65,0.00,,---,0.00,VWS V14.01,2013-09-30 17:49:00,
2013-09-30 13:50:00,63.7,52.1,29.99,North,11,3.0,5.0,66,0.00,,---,0.00,VWS V14.01,2013-09-30 17:50:00,
2013-09-30 13:51:00,63.7,51.7,29.99,NE,47,3.0,6.0,65,0.00,,---,0.00,VWS V14.01,2013-09-30 17:51:00,
2013-09-30 13:52:00,63.9,52.7,29.99,ESE,122,2.0,6.0,67,0.00,,---,0.00,VWS V14.01,2013-09-30 17:52:00,
2013-09-30 13:53:00,63.9,52.3,29.99,ESE,110,1.0,6.0,66,0.00,,---,0.00,VWS V14.01,2013-09-30 17:53:00,
2013-09-30 13:54:00,65.4,53.3,30.00,WSW,254,2.0,7.0,65,0.00,,---,0.00,VWS V14.01,2013-09-30 17:54:00,
2013-09-30 13:55:00,63.9,52.7,29.99,ESE,117,2.0,6.0,67,0.00,,---,0.00,VWS V14.01,2013-09-30 17:55:00,
2013-09-30 13:56:00,63.9,51.9,29.99,ESE,117,2.0,4.0,65,0.00,,---,0.00,VWS V14.01,2013-09-30 17:56:00,
2013-09-30 13:57:00,63.8,52.2,29.99,East,98,5.0,5.0,66,0.00,,---,0.00,VWS V14.01,2013-09-30 17:57:00,
2013-09-30 13:58:00,63.7,52.1,29.99,ESE,102,3.0,5.0,66,0.00,,---,0.00,VWS V14.01,2013-09-30 17:58:00,
2013-09-30 13:59:00,65.6,52.7,30.00,East,85,3.0,7.0,63,0.00,,---,0.00,VWS V14.01,2013-09-30 17:59:00,
2013-09-30 14:00:00,63.5,52.4,29.99,SSE,162,1.0,5.0,67,0.00,,---,0.00,VWS V14.01,2013-09-30 18:00:00,
2013-09-30 14:01:00,63.6,52.5,29.99,SE,146,1.0,5.0,67,0.00,,---,0.00,VWS V14.01,2013-09-30 18:01:00,
2013-09-30 14:02:00,63.7,52.5,29.99,ESE,103,0.0,5.0,67,0.00,,---,0.00,VWS V14.01,2013-09-30 18:02:00,
2013-09-30 14:03:00,63.9,53.5,29.99,ENE,72,1.0,3.0,69,0.00,,---,0.00,VWS V14.01,2013-09-30 18:03:00,
2013-09-30 14:04:00,64.5,52.1,30.00,ENE,57,3.0,8.0,64,0.00,,---,0.00,VWS V14.01,2013-09-30 18:04:00,
2013-09-30 14:05:00,64.2,52.2,29.99,NE,49,5.0,5.0,65,0.00,,---,0.00,VWS V14.01,2013-09-30 18:05:00,
2013-09-30 14:06:00,64.2,52.6,29.99,ENE,57,3.0,5.0,66,0.00,,---,0.00,VWS V14.01,2013-09-30 18:06:00,
2013-09-30 14:07:00,64.2,52.2,29.99,NNE,27,2.0,5.0,65,0.00,,---,0.00,VWS V14.01,2013-09-30 18:07:00,
2013-09-30 14:08:00,64.1,51.7,29.99,North,354,1.0,5.0,64,0.00,,---,0.00,VWS V14.01,2013-09-30 18:08:00,
2013-09-30 14:09:00,64.0,51.6,29.99,East,85,3.0,5.0,64,0.00,,---,0.00,VWS V14.01,2013-09-30 18:09:00,
2013-09-30 14:10:00,63.6,51.6,29.99,ENE,61,2.0,3.0,65,0.00,,---,0.00,VWS V14.01,2013-09-30 18:10:00,
2013-09-30 14:11:00,64.0,52.0,29.99,East,79,1.0,5.0,65,0.00,,---,0.00,VWS V14.01,2013-09-30 18:11:00,
2013-09-30 14:12:00,64.0,52.0,29.99,NNE,13,1.0,4.0,65,0.00,,---,0.00,VWS V14.01,2013-09-30 18:12:00,
2013-09-30 14:13:00,64.0,52.8,29.99,ESE,103,3.0,4.0,67,0.00,,---,0.00,VWS V14.01,2013-09-30 18:13:00,
2013-09-30 14:14:00,64.0,52.4,29.99,ENE,78,3.0,4.0,66,0.00,,---,0.00,VWS V14.01,2013-09-30 18:14:00,
2013-09-30 14:15:00,63.4,51.9,29.99,NE,49,3.0,5.0,66,0.00,,---,0.00,VWS V14.01,2013-09-30 18:15:00,
2013-09-30 14:16:00,63.9,51.9,29.99,East,91,3.0,4.0,65,0.00,,---,0.00,VWS V14.01,2013-09-30 18:16:00,
2013-09-30 14:17:00,63.9,51.5,29.99,East,81,1.0,4.0,64,0.00,,---,0.00,VWS V14.01,2013-09-30 18:17:00,
2013-09-30 14:18:00,63.8,51.4,29.99,East,81,0.0,4.0,64,0.00,,---,0.00,VWS V14.01,2013-09-30 18:18:00,
2013-09-30 14:19:00,63.8,52.2,29.99,East,87,1.0,4.0,66,0.00,,---,0.00,VWS V14.01,2013-09-30 18:19:00,
2013-09-30 14:20:00,63.2,52.1,29.99,ESE,103,3.0,4.0,67,0.00,,---,0.00,VWS V14.01,2013-09-30 18:20:00,
2013-09-30 14:21:00,63.7,51.7,29.99,East,82,1.0,4.0,65,0.00,,---,0.00,VWS V14.01,2013-09-30 18:21:00,
2013-09-30 14:22:00,63.7,51.7,29.99,SW,222,1.0,4.0,65,0.00,,---,0.00,VWS V14.01,2013-09-30 18:22:00,
2013-09-30 14:23:00,63.7,51.3,29.99,SE,139,1.0,4.0,64,0.00,,---,0.00,VWS V14.01,2013-09-30 18:23:00,
2013-09-30 14:24:00,63.7,51.3,29.99,SE,139,0.0,4.0,64,0.00,,---,0.00,VWS V14.01,2013-09-30 18:24:00,
2013-09-30 14:25:00,63.7,51.7,29.99,SE,138,0.0,4.0,65,0.00,,---,0.00,VWS V14.01,2013-09-30 18:25:00,
2013-09-30 14:26:00,63.3,51.3,29.99,ENE,67,1.0,3.0,65,0.00,,---,0.00,VWS V14.01,2013-09-30 18:26:00,
2013-09-30 14:27:00,63.9,52.3,29.99,NE,56,2.0,3.0,66,0.00,,---,0.00,VWS V14.01,2013-09-30 18:27:00,
2013-09-30 14:28:00,64.1,52.5,29.99,SW,232,2.0,3.0,66,0.00,,---,0.00,VWS V14.01,2013-09-30 18:28:00,
2013-09-30 14:29:00,64.2,52.2,29.99,SW,228,2.0,3.0,65,0.00,,---,0.00,VWS V14.01,2013-09-30 18:29:00,
2013-09-30 14:30:00,64.3,51.9,29.98,West,281,1.0,3.0,64,0.00,,---,0.00,VWS V14.01,2013-09-30 18:30:00,
2013-09-30 14:31:00,63.7,52.1,29.99,North,11,3.0,5.0,66,0.00,,---,0.00,VWS V14.01,2013-09-30 18:31:00,
2013-09-30 14:32:00,64.7,53.5,29.98,SSW,207,3.0,5.0,67,0.00,,---,0.00,VWS V14.01,2013-09-30 18:32:00,
2013-09-30 14:33:00,64.8,52.3,29.98,South,169,4.0,5.0,64,0.00,,---,0.00,VWS V14.01,2013-09-30 18:33:00,
2013-09-30 14:34:00,65.0,52.1,29.98,SSW,205,2.0,5.0,63,0.00,,---,0.00,VWS V14.01,2013-09-30 18:34:00,
2013-09-30 14:35:00,65.0,52.1,29.98,SW,219,1.0,5.0,63,0.00,,---,0.00,VWS V14.01,2013-09-30 18:35:00,
2013-09-30 14:36:00,63.9,52.7,29.99,ESE,117,2.0,6.0,67,0.00,,---,0.00,VWS V14.01,2013-09-30 18:36:00,
2013-09-30 14:37:00,65.1,51.8,29.98,ESE,122,3.0,5.0,62,0.00,,---,0.00,VWS V14.01,2013-09-30 18:37:00,
2013-09-30 14:38:00,65.1,52.2,29.98,ESE,117,2.0,5.0,63,0.00,,---,0.00,VWS V14.01,2013-09-30 18:38:00,
2013-09-30 14:39:00,65.1,52.6,29.98,SSE,161,3.0,3.0,64,0.00,,---,0.00,VWS V14.01,2013-09-30 18:39:00,
2013-09-30 14:40:00,65.1,52.2,29.98,SE,125,0.0,4.0,63,0.00,,---,0.00,VWS V14.01,2013-09-30 18:40:00,
2013-09-30 14:41:00,63.5,52.4,29.99,SSE,162,1.0,5.0,67,0.00,,---,0.00,VWS V14.01,2013-09-30 18:41:00,
2013-09-30 14:42:00,65.3,52.4,29.98,ESE,118,1.0,4.0,63,0.00,,---,0.00,VWS V14.01,2013-09-30 18:42:00,
2013-09-30 14:43:00,65.4,53.3,29.98,ESE,105,1.0,4.0,65,0.00,,---,0.00,VWS V14.01,2013-09-30 18:43:00,
2013-09-30 14:44:00,65.6,53.1,29.98,ESE,120,0.0,4.0,64,0.00,,---,0.00,VWS V14.01,2013-09-30 18:44:00,
2013-09-30 14:45:00,65.8,53.7,29.98,ESE,103,1.0,3.0,65,0.00,,---,0.00,VWS V14.01,2013-09-30 18:45:00,
2013-09-30 14:46:00,64.2,52.2,29.99,NE,49,5.0,5.0,65,0.00,,---,0.00,VWS V14.01,2013-09-30 18:46:00,
2013-09-30 14:47:00,66.1,52.3,29.98,ESE,102,3.0,4.0,61,0.00,,---,0.00,VWS V14.01,2013-09-30 18:47:00,
2013-09-30 14:48:00,66.0,52.2,29.98,ESE,103,0.0,4.0,61,0.00,,---,0.00,VWS V14.01,2013-09-30 18:48:00,
2013-09-30 14:49:00,66.0,52.6,29.98,East,81,4.0,5.0,62,0.00,,---,0.00,VWS V14.01,2013-09-30 18:49:00,
2013-09-30 14:50:00,65.9,52.1,29.98,ESE,110,4.0,5.0,61,0.00,,---,0.00,VWS V14.01,2013-09-30 18:50:00,
2013-09-30 14:51:00,65.8,52.0,29.98,East,92,2.0,5.0,61,0.00,,---,0.00,VWS V14.01,2013-09-30 18:51:00,
2013-09-30 14:52:00,64.0,52.0,29.99,East,79,1.0,5.0,65,0.00,,---,0.00,VWS V14.01,2013-09-30 18:52:00,
2013-09-30 14:53:00,65.8,52.4,29.98,SSE,160,0.0,5.0,62,0.00,,---,0.00,VWS V14.01,2013-09-30 18:53:00,
2013-09-30 14:54:00,65.9,53.8,29.98,East,86,3.0,5.0,65,0.00,,---,0.00,VWS V14.01,2013-09-30 18:54:00,
2013-09-30 14:55:00,66.0,52.6,29.98,ENE,58,3.0,5.0,62,0.00,,---,0.00,VWS V14.01,2013-09-30 18:55:00,
2013-09-30 14:56:00,66.0,52.6,29.98,ENE,77,1.0,4.0,62,0.00,,---,0.00,VWS V14.01,2013-09-30 18:56:00,
2013-09-30 14:57:00,63.9,51.9,29.99,East,91,3.0,4.0,65,0.00,,---,0.00,VWS V14.01,2013-09-30 18:57:00,
2013-09-30 14:58:00,66.1,52.7,29.98,NE,49,1.0,4.0,62,0.00,,---,0.00,VWS V14.01,2013-09-30 18:58:00,
2013-09-30 14:59:00,66.1,52.3,29.98,East,85,1.0,4.0,61,0.00,,---,0.00,VWS V14.01,2013-09-30 18:59:00,
2013-09-30 15:00:00,66.0,53.1,29.97,East,87,5.0,5.0,63,0.00,,---,0.00,VWS V14.01,2013-09-30 19:00:00,
2013-09-30 15:01:00,66.3,52.9,29.98,ESE,122,2.0,5.0,62,0.00,,---,0.00,VWS V14.01,2013-09-30 19:01:00,
2013-09-30 15:02:00,66.0,52.6,29.97,ESE,117,3.0,5.0,62,0.00,,---,0.00,VWS V14.01,2013-09-30 19:02:00,
2013-09-30 15:03:00,63.7,51.7,29.99,SW,222,1.0,4.0,65,0.00,,---,0.00,VWS V14.01,2013-09-30 19:03:00,
2013-09-30 15:04:00,66.5,52.7,29.98,East,94,5.0,5.0,61,0.00,,---,0.00,VWS V14.01,2013-09-30 19:04:00,
2013-09-30 15:05:00,65.7,52.3,29.97,East,95,4.0,6.0,62,0.00,,---,0.00,VWS V14.01,2013-09-30 19:05:00,
2013-09-30 15:06:00,66.6,52.8,29.98,ESE,105,1.0,6.0,61,0.00,,---,0.00,VWS V14.01,2013-09-30 19:06:00,
2013-09-30 15:07:00,66.6,52.3,29.98,SSE,152,3.0,6.0,60,0.00,,---,0.00,VWS V14.01,2013-09-30 19:07:00,
2013-09-30 15:08:00,66.6,53.2,29.98,SSW,194,2.0,6.0,62,0.00,,---,0.00,VWS V14.01,2013-09-30 19:08:00,
2013-09-30 15:09:00,64.1,52.5,29.99,SW,232,2.0,3.0,66,0.00,,---,0.00,VWS V14.01,2013-09-30 19:09:00,
2013-09-30 15:10:00,66.8,53.4,29.98,SSE,165,3.0,6.0,62,0.00,,---,0.00,VWS V14.01,2013-09-30 19:10:00,
2013-09-30 15:11:00,65.4,52.5,29.98,NE,53,2.0,6.0,63,0.00,,---,0.00,VWS V14.01,2013-09-30 19:11:00,
2013-09-30 15:12:00,66.9,52.6,29.98,ESE,122,4.0,6.0,60,0.00,,---,0.00,VWS V14.01,2013-09-30 19:12:00,
2013-09-30 15:13:00,66.9,52.6,29.98,SE,141,3.0,6.0,60,0.00,,---,0.00,VWS V14.01,2013-09-30 19:13:00,
2013-09-30 15:14:00,64.8,52.3,29.98,South,169,4.0,5.0,64,0.00,,---,0.00,VWS V14.01,2013-09-30 19:14:00,
2013-09-30 15:15:00,66.8,52.9,29.98,East,87,5.0,5.0,61,0.00,,---,0.00,VWS V14.01,2013-09-30 19:15:00,
2013-09-30 15:16:00,66.8,52.9,29.98,ESE,105,4.0,5.0,61,0.00,,---,0.00,VWS V14.01,2013-09-30 19:16:00,
2013-09-30 15:17:00,66.7,52.8,29.98,East,101,5.0,6.0,61,0.00,,---,0.00,VWS V14.01,2013-09-30 19:17:00,
2013-09-30 15:18:00,66.7,52.8,29.98,East,99,3.0,6.0,61,0.00,,---,0.00,VWS V14.01,2013-09-30 19:18:00,
2013-09-30 15:19:00,65.1,52.2,29.98,ESE,117,2.0,5.0,63,0.00,,---,0.00,VWS V14.01,2013-09-30 19:19:00,
2013-09-30 15:20:00,66.8,52.5,29.98,ESE,115,4.0,8.0,60,0.00,,---,0.00,VWS V14.01,2013-09-30 19:20:00,
2013-09-30 15:21:00,66.7,52.8,29.98,NNE,33,5.0,8.0,61,0.00,,---,0.00,VWS V14.01,2013-09-30 19:21:00,
2013-09-30 15:22:00,66.6,52.3,29.98,NNE,25,5.0,8.0,60,0.00,,---,0.00,VWS V14.01,2013-09-30 19:22:00,
2013-09-30 15:23:00,66.5,52.7,29.98,NNW,332,2.0,8.0,61,0.00,,---,0.00,VWS V14.01,2013-09-30 19:23:00,
2013-09-30 15:24:00,65.4,53.3,29.98,ESE,105,1.0,4.0,65,0.00,,---,0.00,VWS V14.01,2013-09-30 19:24:00,
2013-09-30 15:25:00,66.4,52.6,29.98,NNE,15,4.0,8.0,61,0.00,,---,0.00,VWS V14.01,2013-09-30 19:25:00,
2013-09-30 15:26:00,66.3,52.5,29.98,NNE,23,5.0,8.0,61,0.00,,---,0.00,VWS V14.01,2013-09-30 19:26:00,
2013-09-30 15:27:00,66.3,52.5,29.98,ENE,58,2.0,7.0,61,0.00,,---,0.00,VWS V14.01,2013-09-30 19:27:00,
2013-09-30 15:28:00,66.2,52.8,29.98,NNE,20,5.0,7.0,62,0.00,,---,0.00,VWS V14.01,2013-09-30 19:28:00,
2013-09-30 15:29:00,66.0,52.2,29.98,ESE,103,0.0,4.0,61,0.00,,---,0.00,VWS V14.01,2013-09-30 19:29:00,
2013-09-30 15:30:00,66.3,52.5,29.98,ENE,60,4.0,6.0,61,0.00,,---,0.00,VWS V14.01,2013-09-30 19:30:00,
2013-09-30 15:31:00,66.2,52.8,29.98,NE,50,5.0,6.0,62,0.00,,---,0.00,VWS V14.01,2013-09-30 19:31:00,
2013-09-30 15:32:00,65.8,52.9,29.97,ESE,117,2.0,4.0,63,0.00,,---,0.00,VWS V14.01,2013-09-30 19:32:00,
2013-09-30 15:33:00,66.2,52.8,29.98,ENE,63,3.0,6.0,62,0.00,,---,0.00,VWS V14.01,2013-09-30 19:33:00,
2013-09-30 15:34:00,65.8,52.4,29.98,SSE,160,0.0,5.0,62,0.00,,---,0.00,VWS V14.01,2013-09-30 19:34:00,
2013-09-30 15:35:00,66.2,52.8,29.98,East,100,1.0,5.0,62,0.00,,---,0.00,VWS V14.01,2013-09-30 19:35:00,
2013-09-30 15:36:00,66.1,52.7,29.98,East,87,5.0,5.0,62,0.00,,---,0.00,VWS V14.01,2013-09-30 19:36:00,
2013-09-30 15:37:00,66.1,52.7,29.98,ENE,74,5.0,6.0,62,0.00,,---,0.00,VWS V14.01,2013-09-30 19:37:00,
2013-09-30 15:38:00,66.1,52.7,29.98,NE,35,3.0,6.0,62,0.00,,---,0.00,VWS V14.01,2013-09-30 19:38:00,
2013-09-30 15:39:00,66.1,52.7,29.98,NE,49,1.0,4.0,62,0.00,,---,0.00,VWS V14.01,2013-09-30 19:39:00,
2013-09-30 15:40:00,66.0,52.6,29.98,NNE,33,3.0,6.0,62,0.00,,---,0.00,VWS V14.01,2013-09-30 19:40:00,
2013-09-30 15:41:00,66.0,53.1,29.98,ESE,103,2.0,6.0,63,0.00,,---,0.00,VWS V14.01,2013-09-30 19:41:00,
2013-09-30 15:42:00,66.1,52.7,29.98,ENE,72,2.0,6.0,62,0.00,,---,0.00,VWS V14.01,2013-09-30 19:42:00,
2013-09-30 15:43:00,66.1,53.2,29.98,ENE,71,0.0,4.0,63,0.00,,---,0.00,VWS V14.01,2013-09-30 19:43:00,
2013-09-30 15:44:00,66.5,52.2,29.98,SE,146,1.0,5.0,60,0.00,,---,0.00,VWS V14.01,2013-09-30 19:44:00,
2013-09-30 15:45:00,65.2,52.3,29.97,ESE,105,1.0,4.0,63,0.00,,---,0.00,VWS V14.01,2013-09-30 19:45:00,
2013-09-30 15:46:00,66.2,52.8,29.98,East,100,3.0,5.0,62,0.00,,---,0.00,VWS V14.01,2013-09-30 19:46:00,
2013-09-30 15:47:00,66.2,52.4,29.98,ESE,108,2.0,5.0,61,0.00,,---,0.00,VWS V14.01,2013-09-30 19:47:00,
2013-09-30 15:48:00,65.0,52.1,29.97,East,101,3.0,4.0,63,0.00,,---,0.00,VWS V14.01,2013-09-30 19:48:00,
2013-09-30 15:49:00,66.2,52.8,29.98,East,85,7.0,7.0,62,0.00,,---,0.00,VWS V14.01,2013-09-30 19:49:00,
2013-09-30 15:50:00,66.1,52.7,29.98,ENE,58,4.0,7.0,62,0.00,,---,0.00,VWS V14.01,2013-09-30 19:50:00,
2013-09-30 15:51:00,66.8,53.4,29.98,SSE,165,3.0,6.0,62,0.00,,---,0.00,VWS V14.01,2013-09-30 19:51:00,
2013-09-30 15:52:00,65.9,52.1,29.97,NE,35,2.0,7.0,61,0.00,,---,0.00,VWS V14.01,2013-09-30 19:52:00,
2013-09-30 15:53:00,65.9,53.0,29.97,SE,125,3.0,7.0,63,0.00,,---,0.00,VWS V14.01,2013-09-30 19:53:00,
2013-09-30 15:54:00,66.0,53.1,29.97,ESE,113,4.0,7.0,63,0.00,,---,0.00,VWS V14.01,2013-09-30 19:54:00,
2013-09-30 15:55:00,65.9,52.5,29.97,SSE,152,2.0,5.0,62,0.00,,---,0.00,VWS V14.01,2013-09-30 19:55:00,
2013-09-30 15:56:00,65.9,52.5,29.97,ESE,115,2.0,5.0,62,0.00,,---,0.00,VWS V14.01,2013-09-30 19:56:00,
2013-09-30 15:57:00,66.8,52.9,29.98,ESE,105,4.0,5.0,61,0.00,,---,0.00,VWS V14.01,2013-09-30 19:57:00,
2013-09-30 15:58:00,65.9,52.5,29.97,ENE,75,2.0,5.0,62,0.00,,---,0.00,VWS V14.01,2013-09-30 19:58:00,
2013-09-30 15:59:00,66.0,53.1,29.97,East,88,2.0,5.0,63,0.00,,---,0.00,VWS V14.01,2013-09-30 19:59:00,
2013-09-30 16:00:00,66.0,53.1,29.97,East,87,5.0,5.0,63,0.00,,---,0.00,VWS V14.01,2013-09-30 20:00:00,
2013-09-30 16:01:00,66.0,53.1,29.97,ESE,120,5.0,5.0,63,0.00,,---,0.00,VWS V14.01,2013-09-30 20:01:00,
2013-09-30 16:02:00,64.4,52.4,29.97,ESE,104,2.0,3.0,65,0.00,,---,0.00,VWS V14.01,2013-09-30 20:02:00,
2013-09-30 16:03:00,66.6,52.3,29.98,NNE,25,5.0,8.0,60,0.00,,---,0.00,VWS V14.01,2013-09-30 20:03:00,
2013-09-30 16:04:00,65.8,52.4,29.97,ESE,118,4.0,6.0,62,0.00,,---,0.00,VWS V14.01,2013-09-30 20:04:00,
2013-09-30 16:05:00,65.7,52.3,29.97,East,95,4.0,6.0,62,0.00,,---,0.00,VWS V14.01,2013-09-30 20:05:00,
2013-09-30 16:06:00,64.4,52.4,29.97,ENE,73,1.0,3.0,65,0.00,,---,0.00,VWS V14.01,2013-09-30 20:06:00,
2013-09-30 16:07:00,65.6,52.7,29.97,SE,134,2.0,6.0,63,0.00,,---,0.00,VWS V14.01,2013-09-30 20:07:00,
2013-09-30 16:08:00,66.3,52.5,29.98,ENE,58,2.0,7.0,61,0.00,,---,0.00,VWS V14.01,2013-09-30 20:08:00,
2013-09-30 16:09:00,65.5,52.6,29.97,East,84,5.0,6.0,63,0.00,,---,0.00,VWS V14.01,2013-09-30 20:09:00,
2013-09-30 16:10:00,65.4,52.5,29.97,NE,44,3.0,6.0,63,0.00,,---,0.00,VWS V14.01,2013-09-30 20:10:00,
2013-09-30 16:11:00,65.4,52.5,29.98,NE,53,2.0,6.0,63,0.00,,---,0.00,VWS V14.01,2013-09-30 20:11:00,
2013-09-30 16:12:00,65.4,52.5,29.97,East,85,3.0,6.0,63,0.00,,---,0.00,VWS V14.01,2013-09-30 20:12:00,
2013-09-30 16:13:00,66.2,52.8,29.98,ESE,109,1.0,6.0,62,0.00,,---,0.00,VWS V14.01,2013-09-30 20:13:00,
2013-09-30 16:14:00,65.3,52.4,29.97,East,82,4.0,5.0,63,0.00,,---,0.00,VWS V14.01,2013-09-30 20:14:00,
2013-09-30 16:15:00,64.2,52.6,29.97,East,85,0.0,2.0,66,0.00,,---,0.00,VWS V14.01,2013-09-30 20:15:00,
2013-09-30 16:16:00,65.2,52.3,29.98,East,98,1.0,5.0,63,0.00,,---,0.00,VWS V14.01,2013-09-30 20:16:00,
2013-09-30 16:17:00,64.2,52.2,29.97,East,87,1.0,2.0,65,0.00,,---,0.00,VWS V14.01,2013-09-30 20:17:00,
2013-09-30 16:18:00,65.2,52.7,29.97,East,101,1.0,5.0,64,0.00,,---,0.00,VWS V14.01,2013-09-30 20:18:00,
2013-09-30 16:19:00,66.1,52.7,29.98,NE,35,3.0,6.0,62,0.00,,---,0.00,VWS V14.01,2013-09-30 20:19:00,
2013-09-30 16:20:00,65.2,52.3,29.97,ESE,116,1.0,4.0,63,0.00,,---,0.00,VWS V14.01,2013-09-30 20:20:00,
2013-09-30 16:21:00,65.3,52.4,29.97,ESE,113,1.0,3.0,63,0.00,,---,0.00,VWS V14.01,2013-09-30 20:21:00,
2013-09-30 16:22:00,63.9,52.3,29.97,East,87,0.0,3.0,66,0.00,,---,0.00,VWS V14.01,2013-09-30 20:22:00,
2013-09-30 16:23:00,65.4,52.5,29.97,East,84,1.0,3.0,63,0.00,,---,0.00,VWS V14.01,2013-09-30 20:23:00,
2013-09-30 16:24:00,66.1,53.2,29.98,ENE,71,0.0,4.0,63,0.00,,---,0.00,VWS V14.01,2013-09-30 20:24:00,
2013-09-30 16:25:00,65.5,52.2,29.97,East,83,0.0,3.0,62,0.00,,---,0.00,VWS V14.01,2013-09-30 20:25:00,
2013-09-30 16:26:00,63.7,52.5,29.98,East,87,0.0,2.0,67,0.00,,---,0.00,VWS V14.01,2013-09-30 20:26:00,
2013-09-30 16:27:00,65.8,53.3,29.97,ENE,76,1.0,3.0,64,0.00,,---,0.00,VWS V14.01,2013-09-30 20:27:00,
2013-09-30 16:28:00,63.7,52.5,29.97,East,87,0.0,2.0,67,0.00,,---,0.00,VWS V14.01,2013-09-30 20:28:00,
2013-09-30 16:29:00,66.2,52.8,29.98,ESE,118,2.0,5.0,62,0.00,,---,0.00,VWS V14.01,2013-09-30 20:29:00,
2013-09-30 16:30:00,63.4,52.3,29.97,East,91,0.0,1.0,67,0.00,,---,0.00,VWS V14.01,2013-09-30 20:30:00,
2013-09-30 16:31:00,65.9,53.0,29.97,SE,136,2.0,4.0,63,0.00,,---,0.00,VWS V14.01,2013-09-30 20:31:00,
2013-09-30 16:32:00,65.8,52.9,29.97,ESE,117,2.0,4.0,63,0.00,,---,0.00,VWS V14.01,2013-09-30 20:32:00,
2013-09-30 16:33:00,65.8,52.9,29.97,SE,131,2.0,4.0,63,0.00,,---,0.00,VWS V14.01,2013-09-30 20:33:00,
2013-09-30 16:34:00,65.9,53.0,29.97,SE,125,3.0,7.0,63,0.00,,---,0.00,VWS V14.01,2013-09-30 20:34:00,
2013-09-30 16:35:00,65.6,52.7,29.97,ESE,113,1.0,4.0,63,0.00,,---,0.00,VWS V14.01,2013-09-30 20:35:00,
2013-09-30 16:36:00,65.6,52.7,29.97,ESE,105,2.0,4.0,63,0.00,,---,0.00,VWS V14.01,2013-09-30 20:36:00,
2013-09-30 16:37:00,65.5,52.6,29.97,ESE,110,2.0,4.0,63,0.00,,---,0.00,VWS V14.01,2013-09-30 20:37:00,
2013-09-30 16:38:00,65.5,52.6,29.97,ESE,106,1.0,4.0,63,0.00,,---,0.00,VWS V14.01,2013-09-30 20:38:00,
2013-09-30 16:39:00,65.9,52.5,29.97,ENE,75,2.0,5.0,62,0.00,,---,0.00,VWS V14.01,2013-09-30 20:39:00,
2013-09-30 16:40:00,62.8,52.5,29.97,East,91,0.0,0.0,69,0.00,,---,0.00,VWS V14.01,2013-09-30 20:40:00,
2013-09-30 16:41:00,62.7,52.4,29.97,East,91,0.0,0.0,69,0.00,,---,0.00,VWS V14.01,2013-09-30 20:41:00,
2013-09-30 16:42:00,65.3,52.4,29.97,ESE,108,2.0,3.0,63,0.00,,---,0.00,VWS V14.01,2013-09-30 20:42:00,
2013-09-30 16:43:00,65.3,52.4,29.97,ESE,109,2.0,3.0,63,0.00,,---,0.00,VWS V14.01,2013-09-30 20:43:00,
2013-09-30 16:44:00,62.3,52.0,29.97,East,90,1.0,1.0,69,0.00,,---,0.00,VWS V14.01,2013-09-30 20:44:00,
2013-09-30 16:45:00,65.8,52.4,29.97,ESE,118,4.0,6.0,62,0.00,,---,0.00,VWS V14.01,2013-09-30 20:45:00,
2013-09-30 16:46:00,65.1,52.2,29.97,ESE,120,3.0,4.0,63,0.00,,---,0.00,VWS V14.01,2013-09-30 20:46:00,
2013-09-30 16:47:00,61.7,52.2,29.97,East,90,0.0,1.0,71,0.00,,---,0.00,VWS V14.01,2013-09-30 20:47:00,
2013-09-30 16:48:00,65.0,52.1,29.97,East,101,3.0,4.0,63,0.00,,---,0.00,VWS V14.01,2013-09-30 20:48:00,
2013-09-30 16:49:00,61.1,52.0,29.97,East,91,0.0,1.0,72,0.00,,---,0.00,VWS V14.01,2013-09-30 20:49:00,
2013-09-30 16:50:00,65.5,52.6,29.97,East,84,5.0,6.0,63,0.00,,---,0.00,VWS V14.01,2013-09-30 20:50:00,
2013-09-30 16:51:00,60.6,51.9,29.97,East,91,0.0,0.0,73,0.00,,---,0.00,VWS V14.01,2013-09-30 20:51:00,
2013-09-30 16:52:00,60.3,52.0,29.97,East,90,0.0,0.0,74,0.00,,---,0.00,VWS V14.01,2013-09-30 20:52:00,
2013-09-30 16:53:00,60.1,52.2,29.97,East,90,0.0,0.0,75,0.00,,---,0.00,VWS V14.01,2013-09-30 20:53:00,
2013-09-30 16:54:00,59.8,51.9,29.97,East,90,0.0,0.0,75,0.00,,---,0.00,VWS V14.01,2013-09-30 20:54:00,
2013-09-30 16:55:00,65.3,52.4,29.97,East,82,4.0,5.0,63,0.00,,---,0.00,VWS V14.01,2013-09-30 20:55:00,
2013-09-30 16:56:00,64.6,52.2,29.97,East,98,3.0,5.0,64,0.00,,---,0.00,VWS V14.01,2013-09-30 20:56:00,
2013-09-30 16:57:00,59.3,51.8,29.97,East,90,0.0,0.0,76,0.00,,---,0.00,VWS V14.01,2013-09-30 20:57:00,
2013-09-30 16:58:00,59.1,51.5,29.97,East,90,0.0,0.0,76,0.00,,---,0.00,VWS V14.01,2013-09-30 20:58:00,
2013-09-30 16:59:00,64.5,52.1,29.97,ESE,114,2.0,3.0,64,0.00,,---,0.00,VWS V14.01,2013-09-30 20:59:00,
2013-09-30 17:00:00,65.2,52.3,29.97,East,94,2.0,5.0,63,0.00,,---,0.00,VWS V14.01,2013-09-30 21:00:00,
2013-09-30 17:01:00,64.5,52.5,29.97,SE,125,0.0,3.0,65,0.00,,---,0.00,VWS V14.01,2013-09-30 21:01:00,
2013-09-30 17:02:00,64.4,52.4,29.97,ESE,104,2.0,3.0,65,0.00,,---,0.00,VWS V14.01,2013-09-30 21:02:00,
2013-09-30 17:03:00,64.4,52.0,29.97,ESE,103,0.0,3.0,64,0.00,,---,0.00,VWS V14.01,2013-09-30 21:03:00,
2013-09-30 17:04:00,64.4,52.4,29.97,East,92,1.0,3.0,65,0.00,,---,0.00,VWS V14.01,2013-09-30 21:04:00,
2013-09-30 17:05:00,64.4,52.4,29.97,NE,35,2.0,3.0,65,0.00,,---,0.00,VWS V14.01,2013-09-30 21:05:00,
2013-09-30 17:06:00,65.5,52.2,29.97,East,83,0.0,3.0,62,0.00,,---,0.00,VWS V14.01,2013-09-30 21:06:00,
2013-09-30 17:07:00,64.4,52.8,29.97,ENE,74,0.0,3.0,66,0.00,,---,0.00,VWS V14.01,2013-09-30 21:07:00,
2013-09-30 17:08:00,57.4,51.0,29.97,East,90,1.0,1.0,79,0.00,,---,0.00,VWS V14.01,2013-09-30 21:08:00,
2013-09-30 17:09:00,57.2,50.8,29.97,East,90,0.0,1.0,79,0.00,,---,0.00,VWS V14.01,2013-09-30 21:09:00,
2013-09-30 17:10:00,57.1,51.0,29.98,East,90,1.0,1.0,80,0.00,,---,0.00,VWS V14.01,2013-09-30 21:10:00,
2013-09-30 17:11:00,65.9,52.5,29.97,ENE,72,3.0,4.0,62,0.00,,---,0.00,VWS V14.01,2013-09-30 21:11:00,
2013-09-30 17:12:00,64.2,52.6,29.97,East,85,0.0,4.0,66,0.00,,---,0.00,VWS V14.01,2013-09-30 21:12:00,
2013-09-30 17:13:00,64.2,52.6,29.98,East,85,0.0,4.0,66,0.00,,---,0.00,VWS V14.01,2013-09-30 21:13:00,
2013-09-30 17:14:00,56.3,50.5,29.98,East,91,0.0,1.0,81,0.00,,---,0.00,VWS V14.01,2013-09-30 21:14:00,
2013-09-30 17:15:00,64.2,52.6,29.97,East,85,0.0,2.0,66,0.00,,---,0.00,VWS V14.01,2013-09-30 21:15:00,
2013-09-30 17:16:00,64.2,52.6,29.98,East,84,1.0,2.0,66,0.00,,---,0.00,VWS V14.01,2013-09-30 21:16:00,
2013-09-30 17:17:00,65.6,52.7,29.97,ESE,105,2.0,4.0,63,0.00,,---,0.00,VWS V14.01,2013-09-30 21:17:00,
2013-09-30 17:18:00,55.4,50.3,29.97,East,90,1.0,1.0,83,0.00,,---,0.00,VWS V14.01,2013-09-30 21:18:00,
2013-09-30 17:19:00,64.1,52.5,29.98,East,91,2.0,2.0,66,0.00,,---,0.00,VWS V14.01,2013-09-30 21:19:00,
2013-09-30 17:20:00,55.0,49.9,29.97,East,90,0.0,1.0,83,0.00,,---,0.00,VWS V14.01,2013-09-30 21:20:00,
2013-09-30 17:21:00,54.9,50.2,29.98,East,90,1.0,1.0,84,0.00,,---,0.00,VWS V14.01,2013-09-30 21:21:00,
2013-09-30 17:22:00,63.9,52.3,29.97,East,87,0.0,3.0,66,0.00,,---,0.00,VWS V14.01,2013-09-30 21:22:00,
2013-09-30 17:23:00,65.3,52.4,29.97,ESE,108,2.0,3.0,63,0.00,,---,0.00,VWS V14.01,2013-09-30 21:23:00,
2013-09-30 17:24:00,63.8,52.7,29.97,East,88,0.0,3.0,67,0.00,,---,0.00,VWS V14.01,2013-09-30 21:24:00,
2013-09-30 17:25:00,54.5,50.1,29.98,East,90,0.0,1.0,85,0.00,,---,0.00,VWS V14.01,2013-09-30 21:25:00,
2013-09-30 17:26:00,54.4,50.0,29.98,East,91,0.0,1.0,85,0.00,,---,0.00,VWS V14.01,2013-09-30 21:26:00,
2013-09-30 17:28:00,63.7,52.5,29.97,East,87,0.0,2.0,67,0.00,,---,0.00,VWS V14.01,2013-09-30 21:28:00,
2013-09-30 17:29:00,65.0,52.1,29.97,ESE,115,1.0,4.0,63,0.00,,---,0.00,VWS V14.01,2013-09-30 21:29:00,
2013-09-30 17:30:00,54.4,50.0,29.98,East,90,0.0,1.0,85,0.00,,---,0.00,VWS V14.01,2013-09-30 21:30:00,
2013-09-30 17:31:00,63.4,52.3,29.98,East,90,0.0,1.0,67,0.00,,---,0.00,VWS V14.01,2013-09-30 21:31:00,
2013-09-30 17:32:00,63.3,52.2,29.98,East,91,0.0,1.0,67,0.00,,---,0.00,VWS V14.01,2013-09-30 21:32:00,
2013-09-30 17:33:00,63.3,52.6,29.98,East,90,0.0,1.0,68,0.00,,---,0.00,VWS V14.01,2013-09-30 21:33:00,
2013-09-30 17:34:00,64.7,52.3,29.97,ESE,110,2.0,5.0,64,0.00,,---,0.00,VWS V14.01,2013-09-30 21:34:00,
2013-09-30 17:35:00,53.9,49.8,29.98,East,90,1.0,2.0,86,0.00,,---,0.00,VWS V14.01,2013-09-30 21:35:00,
2013-09-30 17:36:00,63.1,52.4,29.98,East,90,0.0,0.0,68,0.00,,---,0.00,VWS V14.01,2013-09-30 21:36:00,
2013-09-30 17:37:00,63.0,52.3,29.97,East,90,0.0,0.0,68,0.00,,---,0.00,VWS V14.01,2013-09-30 21:37:00,
2013-09-30 17:38:00,53.7,49.6,29.98,East,91,0.0,1.0,86,0.00,,---,0.00,VWS V14.01,2013-09-30 21:38:00,
2013-09-30 17:39:00,64.5,52.1,29.97,ESE,121,2.0,5.0,64,0.00,,---,0.00,VWS V14.01,2013-09-30 21:39:00,
2013-09-30 17:40:00,62.8,52.5,29.97,East,91,0.0,0.0,69,0.00,,---,0.00,VWS V14.01,2013-09-30 21:40:00,
2013-09-30 17:41:00,62.7,52.4,29.97,East,91,0.0,0.0,69,0.00,,---,0.00,VWS V14.01,2013-09-30 21:41:00,
2013-09-30 17:42:00,62.6,52.3,29.97,East,90,0.0,0.0,69,0.00,,---,0.00,VWS V14.01,2013-09-30 21:42:00,
2013-09-30 17:43:00,62.5,52.2,29.97,East,91,1.0,1.0,69,0.00,,---,0.00,VWS V14.01,2013-09-30 21:43:00,
2013-09-30 17:44:00,62.3,52.0,29.97,East,90,1.0,1.0,69,0.00,,---,0.00,VWS V14.01,2013-09-30 21:44:00,
2013-09-30 17:45:00,64.4,52.4,29.97,East,92,1.0,3.0,65,0.00,,---,0.00,VWS V14.01,2013-09-30 21:45:00,
2013-09-30 17:46:00,61.9,52.4,29.97,East,90,0.0,1.0,71,0.00,,---,0.00,VWS V14.01,2013-09-30 21:46:00,
2013-09-30 17:47:00,61.7,52.2,29.97,East,90,0.0,1.0,71,0.00,,---,0.00,VWS V14.01,2013-09-30 21:47:00,
2013-09-30 17:48:00,61.4,52.3,29.97,East,90,0.0,1.0,72,0.00,,---,0.00,VWS V14.01,2013-09-30 21:48:00,
2013-09-30 17:49:00,61.1,52.0,29.97,East,91,0.0,1.0,72,0.00,,---,0.00,VWS V14.01,2013-09-30 21:49:00,
2013-09-30 17:50:00,64.3,52.3,29.98,NE,46,1.0,4.0,65,0.00,,---,0.00,VWS V14.01,2013-09-30 21:50:00,
2013-09-30 17:51:00,60.6,51.9,29.97,East,91,0.0,0.0,73,0.00,,---,0.00,VWS V14.01,2013-09-30 21:51:00,
2013-09-30 17:52:00,60.3,52.0,29.97,East,90,0.0,0.0,74,0.00,,---,0.00,VWS V14.01,2013-09-30 21:52:00,
2013-09-30 17:53:00,60.1,52.2,29.97,East,90,0.0,0.0,75,0.00,,---,0.00,VWS V14.01,2013-09-30 21:53:00,
2013-09-30 17:54:00,59.8,51.9,29.97,East,90,0.0,0.0,75,0.00,,---,0.00,VWS V14.01,2013-09-30 21:54:00,
2013-09-30 17:55:00,64.2,52.6,29.98,East,85,0.0,3.0,66,0.00,,---,0.00,VWS V14.01,2013-09-30 21:55:00,
2013-09-30 17:56:00,59.5,51.6,29.97,East,91,0.0,0.0,75,0.00,,---,0.00,VWS V14.01,2013-09-30 21:56:00,
2013-09-30 17:57:00,59.3,51.8,29.97,East,90,0.0,0.0,76,0.00,,---,0.00,VWS V14.01,2013-09-30 21:57:00,
2013-09-30 17:58:00,59.1,51.5,29.97,East,90,0.0,0.0,76,0.00,,---,0.00,VWS V14.01,2013-09-30 21:58:00,
2013-09-30 17:59:00,59.0,51.5,29.97,East,90,0.0,0.0,76,0.00,,---,0.00,VWS V14.01,2013-09-30 21:59:00,
2013-09-30 18:00:00,64.1,52.5,29.98,East,91,2.0,2.0,66,0.00,,---,0.00,VWS V14.01,2013-09-30 22:00:00,
2013-09-30 18:01:00,58.7,51.2,29.98,East,90,0.0,0.0,76,0.00,,---,0.00,VWS V14.01,2013-09-30 22:01:00,
2013-09-30 18:02:00,58.5,51.3,29.97,East,90,0.0,0.0,77,0.00,,---,0.00,VWS V14.01,2013-09-30 22:02:00,
2013-09-30 18:03:00,58.3,51.1,29.98,East,90,0.0,0.0,77,0.00,,---,0.00,VWS V14.01,2013-09-30 22:03:00,
2013-09-30 18:04:00,58.2,51.4,29.98,East,90,0.0,0.0,78,0.00,,---,0.00,VWS V14.01,2013-09-30 22:04:00,
2013-09-30 18:05:00,63.8,52.7,29.97,East,88,0.0,3.0,67,0.00,,---,0.00,VWS V14.01,2013-09-30 22:05:00,
2013-09-30 18:06:00,57.8,51.0,29.97,East,90,0.0,1.0,78,0.00,,---,0.00,VWS V14.01,2013-09-30 22:06:00,
2013-09-30 18:07:00,57.6,50.8,29.98,East,90,0.0,1.0,78,0.00,,---,0.00,VWS V14.01,2013-09-30 22:07:00,
2013-09-30 18:08:00,57.4,51.0,29.97,East,90,1.0,1.0,79,0.00,,---,0.00,VWS V14.01,2013-09-30 22:08:00,
2013-09-30 18:09:00,53.3,48.9,29.98,East,90,0.0,0.0,85,0.00,,---,0.00,VWS V14.01,2013-09-30 22:09:00,
2013-09-30 18:10:00,63.5,52.4,29.97,East,91,0.0,2.0,67,0.00,,---,0.00,VWS V14.01,2013-09-30 22:10:00,
2013-09-30 18:11:00,53.2,48.8,29.98,East,90,0.0,0.0,85,0.00,,---,0.00,VWS V14.01,2013-09-30 22:11:00,
2013-09-30 18:12:00,56.7,50.6,29.98,East,90,1.0,1.0,80,0.00,,---,0.00,VWS V14.01,2013-09-30 22:12:00,
2013-09-30 18:13:00,56.5,50.8,29.97,East,90,1.0,1.0,81,0.00,,---,0.00,VWS V14.01,2013-09-30 22:13:00,
2013-09-30 18:14:00,56.3,50.5,29.98,East,91,0.0,1.0,81,0.00,,---,0.00,VWS V14.01,2013-09-30 22:14:00,
2013-09-30 18:15:00,63.3,52.6,29.98,East,90,0.0,0.0,68,0.00,,---,0.00,VWS V14.01,2013-09-30 22:15:00,
2013-09-30 18:16:00,55.9,50.5,29.97,East,90,1.0,1.0,82,0.00,,---,0.00,VWS V14.01,2013-09-30 22:16:00,
2013-09-30 18:17:00,55.7,50.3,29.98,East,90,1.0,1.0,82,0.00,,---,0.00,VWS V14.01,2013-09-30 22:17:00,
2013-09-30 18:18:00,55.4,50.3,29.97,East,90,1.0,1.0,83,0.00,,---,0.00,VWS V14.01,2013-09-30 22:18:00,
2013-09-30 18:19:00,55.2,50.1,29.97,East,91,1.0,1.0,83,0.00,,---,0.00,VWS V14.01,2013-09-30 22:19:00,
2013-09-30 18:20:00,55.0,49.9,29.97,East,90,0.0,1.0,83,0.00,,---,0.00,VWS V14.01,2013-09-30 22:20:00,
2013-09-30 18:21:00,54.9,50.2,29.98,East,90,1.0,1.0,84,0.00,,---,0.00,VWS V14.01,2013-09-30 22:21:00,
2013-09-30 18:22:00,54.7,50.0,29.98,East,90,0.0,1.0,84,0.00,,---,0.00,VWS V14.01,2013-09-30 22:22:00,
2013-09-30 18:23:00,62.6,52.3,29.97,East,90,0.0,0.0,69,0.00,,---,0.00,VWS V14.01,2013-09-30 22:23:00,
2013-09-30 18:24:00,54.5,50.1,29.98,East,90,0.0,1.0,85,0.00,,---,0.00,VWS V14.01,2013-09-30 22:24:00,
2013-09-30 18:25:00,53.1,48.7,29.99,East,90,0.0,0.0,85,0.00,,---,0.00,VWS V14.01,2013-09-30 22:25:00,
2013-09-30 18:26:00,54.4,50.0,29.98,East,91,0.0,1.0,85,0.00,,---,0.00,VWS V14.01,2013-09-30 22:26:00,
2013-09-30 18:27:00,53.1,48.7,29.99,East,91,0.0,0.0,85,0.00,,---,0.00,VWS V14.01,2013-09-30 22:27:00,
2013-09-30 18:28:00,54.4,50.0,29.98,East,90,0.0,1.0,85,0.00,,---,0.00,VWS V14.01,2013-09-30 22:28:00,
2013-09-30 18:29:00,61.4,52.3,29.97,East,90,0.0,1.0,72,0.00,,---,0.00,VWS V14.01,2013-09-30 22:29:00,
2013-09-30 18:30:00,54.4,50.0,29.98,East,90,0.0,1.0,85,0.00,,---,0.00,VWS V14.01,2013-09-30 22:30:00,
2013-09-30 18:31:00,53.0,48.6,29.98,East,90,0.0,0.0,85,0.00,,---,0.00,VWS V14.01,2013-09-30 22:31:00,
2013-09-30 18:32:00,54.2,49.8,29.98,East,91,1.0,2.0,85,0.00,,---,0.00,VWS V14.01,2013-09-30 22:32:00,
2013-09-30 18:33:00,54.1,49.7,29.98,East,91,1.0,2.0,85,0.00,,---,0.00,VWS V14.01,2013-09-30 22:33:00,
2013-09-30 18:34:00,54.0,49.6,29.98,East,90,1.0,2.0,85,0.00,,---,0.00,VWS V14.01,2013-09-30 22:34:00,
2013-09-30 18:35:00,53.9,49.8,29.98,East,90,1.0,2.0,86,0.00,,---,0.00,VWS V14.01,2013-09-30 22:35:00,
2013-09-30 18:36:00,59.6,51.7,29.97,East,90,0.0,0.0,75,0.00,,---,0.00,VWS V14.01,2013-09-30 22:36:00,
2013-09-30 18:37:00,53.8,49.7,29.98,East,90,0.0,1.0,86,0.00,,---,0.00,VWS V14.01,2013-09-30 22:37:00,
2013-09-30 18:38:00,53.7,49.6,29.98,East,91,0.0,1.0,86,0.00,,---,0.00,VWS V14.01,2013-09-30 22:38:00,
2013-09-30 18:39:00,53.7,49.6,29.98,East,91,0.0,1.0,86,0.00,,---,0.00,VWS V14.01,2013-09-30 22:39:00,
2013-09-30 18:40:00,53.8,49.7,29.98,East,90,0.0,1.0,86,0.00,,---,0.00,VWS V14.01,2013-09-30 22:40:00,
2013-09-30 18:41:00,58.9,51.4,29.98,East,90,0.0,0.0,76,0.00,,---,0.00,VWS V14.01,2013-09-30 22:41:00,
2013-09-30 18:42:00,53.9,49.8,29.98,East,90,1.0,1.0,86,0.00,,---,0.00,VWS V14.01,2013-09-30 22:42:00,
2013-09-30 18:43:00,53.9,49.8,29.98,East,90,0.0,1.0,86,0.00,,---,0.00,VWS V14.01,2013-09-30 22:43:00,
2013-09-30 18:44:00,53.9,49.8,29.98,East,91,0.0,1.0,86,0.00,,---,0.00,VWS V14.01,2013-09-30 22:44:00,
2013-09-30 18:45:00,53.9,49.5,29.98,East,90,1.0,1.0,85,0.00,,---,0.00,VWS V14.01,2013-09-30 22:45:00,
2013-09-30 18:46:00,53.8,49.4,29.98,East,90,1.0,1.0,85,0.00,,---,0.00,VWS V14.01,2013-09-30 22:46:00,
2013-09-30 18:47:00,57.8,51.0,29.97,East,90,0.0,1.0,78,0.00,,---,0.00,VWS V14.01,2013-09-30 22:47:00,
2013-09-30 18:48:00,53.6,49.5,29.98,East,90,0.0,1.0,86,0.00,,---,0.00,VWS V14.01,2013-09-30 22:48:00,
2013-09-30 18:49:00,52.7,48.6,29.99,East,88,0.0,1.0,86,0.00,,---,0.00,VWS V14.01,2013-09-30 22:49:00,
2013-09-30 18:50:00,53.5,49.4,29.98,East,90,1.0,1.0,86,0.00,,---,0.00,VWS V14.01,2013-09-30 22:50:00,
2013-09-30 18:51:00,53.4,49.3,29.98,East,90,0.0,1.0,86,0.00,,---,0.00,VWS V14.01,2013-09-30 22:51:00,
2013-09-30 18:52:00,53.4,49.3,29.98,East,91,0.0,1.0,86,0.00,,---,0.00,VWS V14.01,2013-09-30 22:52:00,
2013-09-30 18:53:00,56.7,50.6,29.98,East,90,1.0,1.0,80,0.00,,---,0.00,VWS V14.01,2013-09-30 22:53:00,
2013-09-30 18:54:00,53.3,49.2,29.98,East,90,0.0,1.0,86,0.00,,---,0.00,VWS V14.01,2013-09-30 22:54:00,
2013-09-30 18:55:00,53.3,49.2,29.98,East,90,0.0,1.0,86,0.00,,---,0.00,VWS V14.01,2013-09-30 22:55:00,
2013-09-30 18:56:00,53.2,49.1,29.98,East,91,0.0,1.0,86,0.00,,---,0.00,VWS V14.01,2013-09-30 22:56:00,
2013-09-30 18:57:00,53.2,49.1,29.98,East,90,0.0,1.0,86,0.00,,---,0.00,VWS V14.01,2013-09-30 22:57:00,
2013-09-30 18:58:00,53.2,49.1,29.98,East,90,0.0,1.0,86,0.00,,---,0.00,VWS V14.01,2013-09-30 22:58:00,
2013-09-30 18:59:00,53.2,49.1,29.98,East,90,0.0,1.0,86,0.00,,---,0.00,VWS V14.01,2013-09-30 22:59:00,
2013-09-30 19:00:00,55.2,50.1,29.97,East,91,1.0,1.0,83,0.00,,---,0.00,VWS V14.01,2013-09-30 23:00:00,
2013-09-30 19:01:00,53.2,49.1,29.98,East,90,0.0,1.0,86,0.00,,---,0.00,VWS V14.01,2013-09-30 23:01:00,
2013-09-30 19:02:00,53.2,49.1,29.99,East,90,0.0,0.0,86,0.00,,---,0.00,VWS V14.01,2013-09-30 23:02:00,
2013-09-30 19:03:00,53.3,49.2,29.99,East,91,0.0,0.0,86,0.00,,---,0.00,VWS V14.01,2013-09-30 23:03:00,
2013-09-30 19:04:00,53.4,49.0,29.98,East,90,0.0,0.0,85,0.00,,---,0.00,VWS V14.01,2013-09-30 23:04:00,
2013-09-30 19:05:00,54.5,50.1,29.98,East,90,0.0,1.0,85,0.00,,---,0.00,VWS V14.01,2013-09-30 23:05:00,
2013-09-30 19:06:00,53.4,49.0,29.99,East,90,0.0,0.0,85,0.00,,---,0.00,VWS V14.01,2013-09-30 23:06:00,
2013-09-30 19:07:00,53.4,49.0,29.99,East,90,0.0,0.0,85,0.00,,---,0.00,VWS V14.01,2013-09-30 23:07:00,
2013-09-30 19:08:00,53.3,48.9,29.98,East,90,0.0,0.0,85,0.00,,---,0.00,VWS V14.01,2013-09-30 23:08:00,
2013-09-30 19:09:00,53.3,48.9,29.98,East,90,0.0,0.0,85,0.00,,---,0.00,VWS V14.01,2013-09-30 23:09:00,
2013-09-30 19:10:00,53.2,48.8,29.99,East,90,0.0,0.0,85,0.00,,---,0.00,VWS V14.01,2013-09-30 23:10:00,
2013-09-30 19:11:00,53.2,48.8,29.98,East,90,0.0,0.0,85,0.00,,---,0.00,VWS V14.01,2013-09-30 23:11:00,
2013-09-30 19:12:00,54.3,49.9,29.98,East,90,1.0,1.0,85,0.00,,---,0.00,VWS V14.01,2013-09-30 23:12:00,
2013-09-30 19:13:00,53.2,49.1,29.98,East,90,0.0,0.0,86,0.00,,---,0.00,VWS V14.01,2013-09-30 23:13:00,
2013-09-30 19:14:00,53.2,48.8,29.98,East,90,0.0,0.0,85,0.00,,---,0.00,VWS V14.01,2013-09-30 23:14:00,
2013-09-30 19:15:00,53.2,48.8,29.98,East,90,0.0,0.0,85,0.00,,---,0.00,VWS V14.01,2013-09-30 23:15:00,
2013-09-30 19:16:00,53.2,48.8,29.98,East,90,0.0,0.0,85,0.00,,---,0.00,VWS V14.01,2013-09-30 23:16:00,
2013-09-30 19:17:00,53.8,49.7,29.98,East,90,0.0,2.0,86,0.00,,---,0.00,VWS V14.01,2013-09-30 23:17:00,
2013-09-30 19:18:00,53.2,48.8,29.98,East,90,0.0,0.0,85,0.00,,---,0.00,VWS V14.01,2013-09-30 23:18:00,
2013-09-30 19:19:00,53.1,48.7,29.98,East,90,0.0,0.0,85,0.00,,---,0.00,VWS V14.01,2013-09-30 23:19:00,
2013-09-30 19:20:00,53.1,48.7,29.98,East,91,0.0,0.0,85,0.00,,---,0.00,VWS V14.01,2013-09-30 23:20:00,
2013-09-30 19:21:00,53.1,48.7,29.98,East,90,0.0,0.0,85,0.00,,---,0.00,VWS V14.01,2013-09-30 23:21:00,
2013-09-30 19:22:00,53.8,49.7,29.98,East,90,0.0,1.0,86,0.00,,---,0.00,VWS V14.01,2013-09-30 23:22:00,
2013-09-30 19:23:00,53.1,48.7,29.99,East,90,0.0,0.0,85,0.00,,---,0.00,VWS V14.01,2013-09-30 23:23:00,
2013-09-30 19:24:00,53.1,48.7,29.99,East,90,0.0,0.0,85,0.00,,---,0.00,VWS V14.01,2013-09-30 23:24:00,
2013-09-30 19:25:00,53.1,48.7,29.99,East,90,0.0,0.0,85,0.00,,---,0.00,VWS V14.01,2013-09-30 23:25:00,
2013-09-30 19:26:00,53.2,48.8,29.99,East,91,0.0,0.0,85,0.00,,---,0.00,VWS V14.01,2013-09-30 23:26:00,
2013-09-30 19:27:00,53.8,49.4,29.98,East,90,1.0,1.0,85,0.00,,---,0.00,VWS V14.01,2013-09-30 23:27:00,
2013-09-30 19:28:00,53.1,48.7,29.99,East,90,0.0,0.0,85,0.00,,---,0.00,VWS V14.01,2013-09-30 23:28:00,
2013-09-30 19:29:00,53.1,48.7,29.98,East,90,0.0,0.0,85,0.00,,---,0.00,VWS V14.01,2013-09-30 23:29:00,
2013-09-30 19:30:00,53.0,48.6,29.98,East,90,0.0,0.0,85,0.00,,---,0.00,VWS V14.01,2013-09-30 23:30:00,
2013-09-30 19:31:00,53.0,48.6,29.98,East,90,0.0,0.0,85,0.00,,---,0.00,VWS V14.01,2013-09-30 23:31:00,
2013-09-30 19:32:00,53.0,48.6,29.99,East,90,0.0,0.0,85,0.00,,---,0.00,VWS V14.01,2013-09-30 23:32:00,
2013-09-30 19:33:00,53.4,49.3,29.98,East,90,0.0,1.0,86,0.00,,---,0.00,VWS V14.01,2013-09-30 23:33:00,
2013-09-30 19:34:00,53.1,48.7,29.99,East,90,1.0,1.0,85,0.00,,---,0.00,VWS V14.01,2013-09-30 23:34:00,
2013-09-30 19:35:00,53.0,48.6,29.99,East,90,1.0,1.0,85,0.00,,---,0.00,VWS V14.01,2013-09-30 23:35:00,
2013-09-30 19:36:00,52.9,48.5,29.99,East,90,1.0,1.0,85,0.00,,---,0.00,VWS V14.01,2013-09-30 23:36:00,
2013-09-30 19:37:00,52.8,48.4,29.99,East,87,1.0,1.0,85,0.00,,---,0.00,VWS V14.01,2013-09-30 23:37:00,
2013-09-30 19:38:00,53.2,49.1,29.98,East,90,0.0,1.0,86,0.00,,---,0.00,VWS V14.01,2013-09-30 23:38:00,
2013-09-30 19:39:00,52.5,48.4,29.99,East,88,0.0,1.0,86,0.00,,---,0.00,VWS V14.01,2013-09-30 23:39:00,
2013-09-30 19:40:00,52.3,48.2,29.99,East,87,0.0,1.0,86,0.00,,---,0.00,VWS V14.01,2013-09-30 23:40:00,
2013-09-30 19:41:00,52.2,48.2,29.99,East,88,0.0,1.0,86,0.00,,---,0.00,VWS V14.01,2013-09-30 23:41:00,
2013-09-30 19:42:00,52.2,48.5,29.99,East,87,0.0,1.0,87,0.00,,---,0.00,VWS V14.01,2013-09-30 23:42:00,
2013-09-30 19:43:00,53.2,49.1,29.99,East,90,0.0,0.0,86,0.00,,---,0.00,VWS V14.01,2013-09-30 23:43:00,
2013-09-30 19:44:00,52.3,48.5,29.99,East,88,0.0,1.0,87,0.00,,---,0.00,VWS V14.01,2013-09-30 23:44:00,
2013-09-30 19:45:00,52.4,48.7,29.99,East,88,0.0,1.0,87,0.00,,---,0.00,VWS V14.01,2013-09-30 23:45:00,
2013-09-30 19:46:00,52.4,48.7,29.99,East,88,0.0,1.0,87,0.00,,---,0.00,VWS V14.01,2013-09-30 23:46:00,
2013-09-30 19:47:00,52.5,48.8,29.99,East,88,0.0,1.0,87,0.00,,---,0.00,VWS V14.01,2013-09-30 23:47:00,
2013-09-30 19:48:00,53.4,49.0,29.99,East,90,0.0,0.0,85,0.00,,---,0.00,VWS V14.01,2013-09-30 23:48:00,
2013-09-30 19:49:00,52.7,48.6,29.99,East,88,0.0,1.0,86,0.00,,---,0.00,VWS V14.01,2013-09-30 23:49:00,
2013-09-30 19:50:00,52.7,48.6,29.99,East,87,1.0,1.0,86,0.00,,---,0.00,VWS V14.01,2013-09-30 23:50:00,
2013-09-30 19:51:00,52.8,48.7,29.99,East,88,1.0,1.0,86,0.00,,---,0.00,VWS V14.01,2013-09-30 23:51:00,
2013-09-30 19:52:00,52.8,48.7,29.99,East,88,1.0,1.0,86,0.00,,---,0.00,VWS V14.01,2013-09-30 23:52:00,
2013-09-30 19:53:00,53.2,48.8,29.98,East,90,0.0,0.0,85,0.00,,---,0.00,VWS V14.01,2013-09-30 23:53:00,
2013-09-30 19:54:00,52.7,48.6,29.99,East,88,1.0,1.0,86,0.00,,---,0.00,VWS V14.01,2013-09-30 23:54:00,
2013-09-30 19:55:00,52.6,48.5,29.99,East,87,0.0,1.0,86,0.00,,---,0.00,VWS V14.01,2013-09-30 23:55:00,
2013-09-30 19:56:00,52.5,48.4,29.99,East,88,0.0,1.0,86,0.00,,---,0.00,VWS V14.01,2013-09-30 23:56:00,
2013-09-30 19:57:00,52.5,48.4,29.99,East,88,0.0,1.0,86,0.00,,---,0.00,VWS V14.01,2013-09-30 23:57:00,
2013-09-30 19:58:00,52.4,48.3,30.00,East,88,0.0,1.0,86,0.00,,---,0.00,VWS V14.01,2013-09-30 23:58:00,
2013-09-30 19:59:00,53.2,48.8,29.98,East,90,0.0,0.0,85,0.00,,---,0.00,VWS V14.01,2013-09-30 23:59:00,
2013-09-30 20:00:00,52.4,48.3,30.00,East,87,2.0,2.0,86,0.00,,---,0.00,VWS V14.01,2013-10-01 00:00:00,
2013-09-30 20:01:00,52.4,48.3,29.99,East,87,0.0,2.0,86,0.00,,---,0.00,VWS V14.01,2013-10-01 00:01:00,
2013-09-30 20:02:00,52.3,48.2,30.00,East,87,1.0,2.0,86,0.00,,---,0.00,VWS V14.01,2013-10-01 00:02:00,
2013-09-30 20:03:00,52.2,48.2,30.00,East,82,1.0,2.0,86,0.00,,---,0.00,VWS V14.01,2013-10-01 00:03:00,
2013-09-30 20:04:00,53.1,48.7,29.99,East,90,0.0,0.0,85,0.00,,---,0.00,VWS V14.01,2013-10-01 00:04:00,
2013-09-30 20:05:00,52.1,48.0,30.00,East,82,1.0,2.0,86,0.00,,---,0.00,VWS V14.01,2013-10-01 00:05:00,
2013-09-30 20:06:00,52.1,48.4,30.00,East,82,1.0,2.0,87,0.00,,---,0.00,VWS V14.01,2013-10-01 00:06:00,
2013-09-30 20:07:00,52.1,48.4,30.00,East,84,0.0,2.0,87,0.00,,---,0.00,VWS V14.01,2013-10-01 00:07:00,
2013-09-30 20:08:00,52.2,48.5,30.00,East,84,0.0,1.0,87,0.00,,---,0.00,VWS V14.01,2013-10-01 00:08:00,
2013-09-30 20:09:00,53.1,48.7,29.99,East,90,0.0,0.0,85,0.00,,---,0.00,VWS V14.01,2013-10-01 00:09:00,
2013-09-30 20:10:00,52.4,48.7,30.00,East,83,0.0,1.0,87,0.00,,---,0.00,VWS V14.01,2013-10-01 00:10:00,
2013-09-30 20:11:00,52.6,48.8,30.00,East,84,0.0,1.0,87,0.00,,---,0.00,VWS V14.01,2013-10-01 00:11:00,
2013-09-30 20:12:00,52.6,48.8,30.00,East,84,0.0,0.0,87,0.00,,---,0.00,VWS V14.01,2013-10-01 00:12:00,
2013-09-30 20:13:00,52.7,48.6,30.00,East,84,0.0,0.0,86,0.00,,---,0.00,VWS V14.01,2013-10-01 00:13:00,
2013-09-30 20:14:00,53.1,48.7,29.99,East,90,1.0,1.0,85,0.00,,---,0.00,VWS V14.01,2013-10-01 00:14:00,
2013-09-30 20:15:00,52.7,48.3,30.00,East,82,0.0,0.0,85,0.00,,---,0.00,VWS V14.01,2013-10-01 00:15:00,
2013-09-30 20:16:00,52.6,48.2,30.00,East,83,0.0,0.0,85,0.00,,---,0.00,VWS V14.01,2013-10-01 00:16:00,
2013-09-30 20:17:00,52.6,48.2,30.00,East,84,0.0,0.0,85,0.00,,---,0.00,VWS V14.01,2013-10-01 00:17:00,
2013-09-30 20:18:00,52.5,48.4,30.00,East,84,0.0,0.0,86,0.00,,---,0.00,VWS V14.01,2013-10-01 00:18:00,
2013-09-30 20:19:00,52.6,48.5,29.99,East,88,0.0,1.0,86,0.00,,---,0.00,VWS V14.01,2013-10-01 00:19:00,
2013-09-30 20:20:00,52.5,48.4,30.00,East,84,0.0,0.0,86,0.00,,---,0.00,VWS V14.01,2013-10-01 00:20:00,
2013-09-30 20:21:00,52.6,48.5,30.00,East,84,0.0,0.0,86,0.00,,---,0.00,VWS V14.01,2013-10-01 00:21:00,
2013-09-30 20:22:00,52.6,48.5,30.00,East,84,1.0,1.0,86,0.00,,---,0.00,VWS V14.01,2013-10-01 00:22:00,
2013-09-30 20:23:00,52.7,49.0,30.00,East,83,0.0,1.0,87,0.00,,---,0.00,VWS V14.01,2013-10-01 00:23:00,
2013-09-30 20:24:00,52.2,48.5,29.99,East,88,0.0,1.0,87,0.00,,---,0.00,VWS V14.01,2013-10-01 00:24:00,
2013-09-30 20:25:00,53.0,48.9,30.00,East,84,0.0,1.0,86,0.00,,---,0.00,VWS V14.01,2013-10-01 00:25:00,
2013-09-30 20:26:00,53.0,48.9,30.00,East,84,0.0,1.0,86,0.00,,---,0.00,VWS V14.01,2013-10-01 00:26:00,
2013-09-30 20:27:00,53.1,49.0,30.00,East,84,0.0,1.0,86,0.00,,---,0.00,VWS V14.01,2013-10-01 00:27:00,
2013-09-30 20:28:00,53.2,49.1,30.00,East,84,0.0,1.0,86,0.00,,---,0.00,VWS V14.01,2013-10-01 00:28:00,
2013-09-30 20:29:00,52.6,48.8,29.99,East,88,0.0,1.0,87,0.00,,---,0.00,VWS V14.01,2013-10-01 00:29:00,
2013-09-30 20:30:00,53.4,49.0,30.00,East,83,1.0,1.0,85,0.00,,---,0.00,VWS V14.01,2013-10-01 00:30:00,
2013-09-30 20:31:00,53.3,48.9,30.00,East,84,1.0,2.0,85,0.00,,---,0.00,VWS V14.01,2013-10-01 00:31:00,
2013-09-30 20:32:00,53.2,48.8,30.00,East,84,1.0,2.0,85,0.00,,---,0.00,VWS V14.01,2013-10-01 00:32:00,
2013-09-30 20:33:00,53.0,48.6,30.00,East,84,1.0,2.0,85,0.00,,---,0.00,VWS V14.01,2013-10-01 00:33:00,
2013-09-30 20:34:00,52.8,48.7,29.99,East,88,1.0,1.0,86,0.00,,---,0.00,VWS V14.01,2013-10-01 00:34:00,
2013-09-30 20:35:00,52.7,48.6,30.00,East,84,0.0,2.0,86,0.00,,---,0.00,VWS V14.01,2013-10-01 00:35:00,
2013-09-30 20:36:00,52.7,49.0,30.00,East,84,0.0,1.0,87,0.00,,---,0.00,VWS V14.01,2013-10-01 00:36:00,
2013-09-30 20:37:00,52.7,49.0,30.00,East,84,0.0,1.0,87,0.00,,---,0.00,VWS V14.01,2013-10-01 00:37:00,
2013-09-30 20:38:00,52.8,49.0,30.00,East,83,0.0,1.0,87,0.00,,---,0.00,VWS V14.01,2013-10-01 00:38:00,
2013-09-30 20:39:00,52.4,48.3,30.00,East,88,0.0,1.0,86,0.00,,---,0.00,VWS V14.01,2013-10-01 00:39:00,
2013-09-30 20:40:00,52.9,49.1,30.00,East,83,0.0,1.0,87,0.00,,---,0.00,VWS V14.01,2013-10-01 00:40:00,
2013-09-30 20:41:00,53.1,49.3,30.00,East,84,0.0,1.0,87,0.00,,---,0.00,VWS V14.01,2013-10-01 00:41:00,
2013-09-30 20:42:00,53.1,49.3,30.00,East,84,0.0,1.0,87,0.00,,---,0.00,VWS V14.01,2013-10-01 00:42:00,
2013-09-30 20:43:00,53.2,49.4,30.00,East,84,0.0,1.0,87,0.00,,---,0.00,VWS V14.01,2013-10-01 00:43:00,
2013-09-30 20:44:00,52.2,48.2,30.00,East,82,1.0,2.0,86,0.00,,---,0.00,VWS V14.01,2013-10-01 00:44:00,
2013-09-30 20:45:00,53.3,49.2,30.00,East,84,0.0,1.0,86,0.00,,---,0.00,VWS V14.01,2013-10-01 00:45:00,
2013-09-30 20:46:00,53.3,49.2,30.00,East,84,0.0,1.0,86,0.00,,---,0.00,VWS V14.01,2013-10-01 00:46:00,
2013-09-30 20:47:00,53.3,49.2,30.00,East,84,0.0,1.0,86,0.00,,---,0.00,VWS V14.01,2013-10-01 00:47:00,
2013-09-30 20:48:00,53.3,49.2,30.00,East,84,0.0,1.0,86,0.00,,---,0.00,VWS V14.01,2013-10-01 00:48:00,
2013-09-30 20:49:00,52.2,48.5,30.00,East,84,0.0,1.0,87,0.00,,---,0.00,VWS V14.01,2013-10-01 00:49:00,
2013-09-30 20:50:00,53.3,49.2,30.00,East,84,0.0,0.0,86,0.00,,---,0.00,VWS V14.01,2013-10-01 00:50:00,
2013-09-30 20:51:00,53.3,49.2,30.00,East,83,0.0,0.0,86,0.00,,---,0.00,VWS V14.01,2013-10-01 00:51:00,
2013-09-30 20:52:00,53.3,49.2,30.00,East,84,0.0,0.0,86,0.00,,---,0.00,VWS V14.01,2013-10-01 00:52:00,
2013-09-30 20:53:00,53.2,49.1,30.00,East,84,0.0,0.0,86,0.00,,---,0.00,VWS V14.01,2013-10-01 00:53:00,
2013-09-30 20:54:00,53.2,49.1,30.00,East,84,0.0,0.0,86,0.00,,---,0.00,VWS V14.01,2013-10-01 00:54:00,
2013-09-30 20:55:00,52.7,48.3,30.00,East,83,0.0,0.0,85,0.00,,---,0.00,VWS V14.01,2013-10-01 00:55:00,
2013-09-30 20:56:00,53.0,48.9,30.00,East,83,0.0,0.0,86,0.00,,---,0.00,VWS V14.01,2013-10-01 00:56:00,
2013-09-30 20:57:00,52.9,48.8,30.00,East,84,0.0,0.0,86,0.00,,---,0.00,VWS V14.01,2013-10-01 00:57:00,
2013-09-30 20:58:00,52.8,49.0,30.00,East,84,0.0,0.0,87,0.00,,---,0.00,VWS V14.01,2013-10-01 00:58:00,
2013-09-30 20:59:00,52.8,49.0,30.00,East,84,0.0,1.0,87,0.00,,---,0.00,VWS V14.01,2013-10-01 00:59:00,
2013-09-30 21:00:00,52.5,48.4,30.00,East,84,0.0,0.0,86,0.00,,---,0.00,VWS V14.01,2013-10-01 01:00:00,
2013-09-30 21:01:00,52.9,49.1,30.00,East,84,0.0,1.0,87,0.00,,---,0.00,VWS V14.01,2013-10-01 01:01:00,
2013-09-30 21:02:00,53.0,49.2,30.00,East,84,0.0,1.0,87,0.00,,---,0.00,VWS V14.01,2013-10-01 01:02:00,
2013-09-30 21:03:00,53.0,49.2,30.00,East,84,0.0,1.0,87,0.00,,---,0.00,VWS V14.01,2013-10-01 01:03:00,
2013-09-30 21:04:00,53.1,49.3,30.00,East,84,0.0,1.0,87,0.00,,---,0.00,VWS V14.01,2013-10-01 01:04:00,
2013-09-30 21:05:00,52.8,49.0,30.00,East,84,0.0,1.0,87,0.00,,---,0.00,VWS V14.01,2013-10-01 01:05:00,
2013-09-30 21:06:00,53.2,49.4,30.00,East,83,0.0,0.0,87,0.00,,---,0.00,VWS V14.01,2013-10-01 01:06:00,
2013-09-30 21:07:00,53.3,49.5,30.00,East,84,0.0,0.0,87,0.00,,---,0.00,VWS V14.01,2013-10-01 01:07:00,
2013-09-30 21:08:00,53.4,49.6,30.00,East,84,0.0,1.0,87,0.00,,---,0.00,VWS V14.01,2013-10-01 01:08:00,
2013-09-30 21:09:00,53.4,49.6,30.00,East,84,0.0,1.0,87,0.00,,---,0.00,VWS V14.01,2013-10-01 01:09:00,
2013-09-30 21:10:00,53.3,49.2,30.00,East,84,1.0,1.0,86,0.00,,---,0.00,VWS V14.01,2013-10-01 01:10:00,
2013-09-30 21:11:00,53.5,49.4,30.00,East,84,0.0,1.0,86,0.00,,---,0.00,VWS V14.01,2013-10-01 01:11:00,
2013-09-30 21:12:00,53.5,49.4,30.00,East,84,0.0,1.0,86,0.00,,---,0.00,VWS V14.01,2013-10-01 01:12:00,
2013-09-30 21:13:00,53.5,49.4,30.00,East,84,0.0,1.0,86,0.00,,---,0.00,VWS V14.01,2013-10-01 01:13:00,
2013-09-30 21:14:00,53.5,49.4,30.00,East,83,0.0,1.0,86,0.00,,---,0.00,VWS V14.01,2013-10-01 01:14:00,
2013-09-30 21:15:00,53.5,49.4,30.00,East,84,0.0,1.0,86,0.00,,---,0.00,VWS V14.01,2013-10-01 01:15:00,
2013-09-30 21:16:00,52.7,48.6,30.00,East,84,0.0,2.0,86,0.00,,---,0.00,VWS V14.01,2013-10-01 01:16:00,
2013-09-30 21:17:00,53.5,49.4,30.00,East,84,0.0,1.0,86,0.00,,---,0.00,VWS V14.01,2013-10-01 01:17:00,
2013-09-30 21:18:00,53.4,49.3,30.00,East,83,0.0,1.0,86,0.00,,---,0.00,VWS V14.01,2013-10-01 01:18:00,
2013-09-30 21:19:00,53.4,49.3,30.00,East,84,0.0,0.0,86,0.00,,---,0.00,VWS V14.01,2013-10-01 01:19:00,
2013-09-30 21:20:00,53.4,49.3,30.00,East,84,0.0,0.0,86,0.00,,---,0.00,VWS V14.01,2013-10-01 01:20:00,
2013-09-30 21:21:00,53.3,49.2,30.00,East,83,0.0,0.0,86,0.00,,---,0.00,VWS V14.01,2013-10-01 01:21:00,
2013-09-30 21:22:00,53.1,49.3,30.00,East,84,0.0,1.0,87,0.00,,---,0.00,VWS V14.01,2013-10-01 01:22:00,
2013-09-30 21:23:00,53.2,48.8,30.00,East,84,0.0,0.0,85,0.00,,---,0.00,VWS V14.01,2013-10-01 01:23:00,
2013-09-30 21:24:00,53.1,48.7,30.00,East,84,0.0,0.0,85,0.00,,---,0.00,VWS V14.01,2013-10-01 01:24:00,
2013-09-30 21:25:00,52.9,48.5,30.00,East,84,0.0,0.0,85,0.00,,---,0.00,VWS V14.01,2013-10-01 01:25:00,
2013-09-30 21:26:00,52.8,48.7,30.00,East,84,0.0,0.0,86,0.00,,---,0.00,VWS V14.01,2013-10-01 01:26:00,
2013-09-30 21:27:00,52.7,48.6,30.00,East,84,0.0,0.0,86,0.00,,---,0.00,VWS V14.01,2013-10-01 01:27:00,
2013-09-30 21:28:00,53.3,49.2,30.00,East,84,0.0,1.0,86,0.00,,---,0.00,VWS V14.01,2013-10-01 01:28:00,
2013-09-30 21:29:00,52.6,48.5,30.00,East,84,0.0,0.0,86,0.00,,---,0.00,VWS V14.01,2013-10-01 01:29:00,
2013-09-30 21:30:00,52.5,48.8,30.00,East,84,0.0,0.0,87,0.00,,---,0.00,VWS V14.01,2013-10-01 01:30:00,
2013-09-30 21:31:00,52.4,48.7,30.00,East,84,0.0,1.0,87,0.00,,---,0.00,VWS V14.01,2013-10-01 01:31:00,
2013-09-30 21:32:00,52.4,48.7,30.00,East,83,0.0,1.0,87,0.00,,---,0.00,VWS V14.01,2013-10-01 01:32:00,
2013-09-30 21:33:00,53.3,49.2,30.00,East,84,0.0,0.0,86,0.00,,---,0.00,VWS V14.01,2013-10-01 01:33:00,
2013-09-30 21:34:00,52.3,48.5,30.00,East,84,0.0,1.0,87,0.00,,---,0.00,VWS V14.01,2013-10-01 01:34:00,
2013-09-30 21:35:00,52.3,48.5,30.00,East,84,0.0,1.0,87,0.00,,---,0.00,VWS V14.01,2013-10-01 01:35:00,
2013-09-30 21:36:00,52.3,48.5,30.00,East,84,0.0,0.0,87,0.00,,---,0.00,VWS V14.01,2013-10-01 01:36:00,
2013-09-30 21:37:00,52.3,48.9,30.00,East,84,0.0,0.0,88,0.00,,---,0.00,VWS V14.01,2013-10-01 01:37:00,
2013-09-30 21:38:00,52.9,48.8,30.00,East,84,0.0,0.0,86,0.00,,---,0.00,VWS V14.01,2013-10-01 01:38:00,
2013-09-30 21:39:00,52.4,49.0,30.00,East,84,0.0,0.0,88,0.00,,---,0.00,VWS V14.01,2013-10-01 01:39:00,
2013-09-30 21:40:00,52.5,49.1,30.00,East,84,0.0,0.0,88,0.00,,---,0.00,VWS V14.01,2013-10-01 01:40:00,
2013-09-30 21:41:00,52.5,49.1,30.00,East,84,0.0,1.0,88,0.00,,---,0.00,VWS V14.01,2013-10-01 01:41:00,
2013-09-30 21:42:00,52.6,49.2,30.00,East,86,0.0,1.0,88,0.00,,---,0.00,VWS V14.01,2013-10-01 01:42:00,
2013-09-30 21:43:00,53.0,49.2,30.00,East,84,0.0,1.0,87,0.00,,---,0.00,VWS V14.01,2013-10-01 01:43:00,
2013-09-30 21:44:00,52.9,49.5,30.00,East,86,0.0,1.0,88,0.00,,---,0.00,VWS V14.01,2013-10-01 01:44:00,
2013-09-30 21:45:00,53.0,49.2,30.00,East,86,0.0,1.0,87,0.00,,---,0.00,VWS V14.01,2013-10-01 01:45:00,
2013-09-30 21:46:00,53.0,49.2,30.00,East,86,0.0,1.0,87,0.00,,---,0.00,VWS V14.01,2013-10-01 01:46:00,
2013-09-30 21:47:00,53.0,48.9,30.00,East,86,0.0,1.0,86,0.00,,---,0.00,VWS V14.01,2013-10-01 01:47:00,
2013-09-30 21:48:00,53.0,48.9,30.00,East,86,0.0,1.0,86,0.00,,---,0.00,VWS V14.01,2013-10-01 01:48:00,
2013-09-30 21:49:00,53.4,49.6,30.00,East,84,0.0,1.0,87,0.00,,---,0.00,VWS V14.01,2013-10-01 01:49:00,
2013-09-30 21:50:00,52.9,49.1,30.00,East,86,0.0,1.0,87,0.00,,---,0.00,VWS V14.01,2013-10-01 01:50:00,
2013-09-30 21:51:00,52.9,49.1,29.99,East,86,0.0,1.0,87,0.00,,---,0.00,VWS V14.01,2013-10-01 01:51:00,
2013-09-30 21:52:00,53.0,49.2,29.99,East,86,0.0,0.0,87,0.00,,---,0.00,VWS V14.01,2013-10-01 01:52:00,
2013-09-30 21:53:00,53.1,49.3,30.00,East,86,0.0,0.0,87,0.00,,---,0.00,VWS V14.01,2013-10-01 01:53:00,
2013-09-30 21:54:00,53.5,49.4,30.00,East,84,0.0,1.0,86,0.00,,---,0.00,VWS V14.01,2013-10-01 01:54:00,
2013-09-30 21:55:00,53.3,49.5,29.99,East,86,0.0,0.0,87,0.00,,---,0.00,VWS V14.01,2013-10-01 01:55:00,
2013-09-30 21:56:00,53.3,49.2,29.99,East,86,0.0,0.0,86,0.00,,---,0.00,VWS V14.01,2013-10-01 01:56:00,
2013-09-30 21:57:00,53.2,49.1,29.99,East,86,0.0,0.0,86,0.00,,---,0.00,VWS V14.01,2013-10-01 01:57:00,
2013-09-30 21:58:00,53.2,49.1,29.99,East,86,0.0,0.0,86,0.00,,---,0.00,VWS V14.01,2013-10-01 01:58:00,
2013-09-30 21:59:00,53.4,49.3,30.00,East,83,0.0,1.0,86,0.00,,---,0.00,VWS V14.01,2013-10-01 01:59:00,
2013-09-30 22:00:00,53.0,48.9,29.99,East,86,0.0,0.0,86,0.00,,---,0.00,VWS V14.01,2013-10-01 02:00:00,
2013-09-30 22:01:00,53.0,48.9,29.99,East,86,0.0,0.0,86,0.00,,---,0.00,VWS V14.01,2013-10-01 02:01:00,
2013-09-30 22:02:00,52.9,48.8,29.99,East,86,0.0,0.0,86,0.00,,---,0.00,VWS V14.01,2013-10-01 02:02:00,
2013-09-30 22:03:00,52.9,48.8,29.99,East,86,0.0,0.0,86,0.00,,---,0.00,VWS V14.01,2013-10-01 02:03:00,
2013-09-30 22:04:00,52.8,49.0,29.99,East,86,0.0,0.0,87,0.00,,---,0.00,VWS V14.01,2013-10-01 02:04:00,
2013-09-30 22:05:00,53.1,48.7,30.00,East,84,0.0,0.0,85,0.00,,---,0.00,VWS V14.01,2013-10-01 02:05:00,
2013-09-30 22:06:00,52.9,49.1,29.99,East,86,0.0,1.0,87,0.00,,---,0.00,VWS V14.01,2013-10-01 02:06:00,
2013-09-30 22:07:00,52.9,49.1,29.99,East,86,0.0,1.0,87,0.00,,---,0.00,VWS V14.01,2013-10-01 02:07:00,
2013-09-30 22:08:00,52.9,49.5,29.99,East,86,0.0,1.0,88,0.00,,---,0.00,VWS V14.01,2013-10-01 02:08:00,
2013-09-30 22:09:00,53.0,49.5,29.99,East,86,0.0,1.0,88,0.00,,---,0.00,VWS V14.01,2013-10-01 02:09:00,
2013-09-30 22:10:00,52.6,48.5,30.00,East,84,0.0,0.0,86,0.00,,---,0.00,VWS V14.01,2013-10-01 02:10:00,
2013-09-30 22:11:00,53.1,49.3,29.99,East,86,0.0,0.0,87,0.00,,---,0.00,VWS V14.01,2013-10-01 02:11:00,
2013-09-30 22:12:00,53.2,49.4,29.99,East,86,0.0,0.0,87,0.00,,---,0.00,VWS V14.01,2013-10-01 02:12:00,
2013-09-30 22:13:00,53.2,49.4,29.99,East,86,0.0,0.0,87,0.00,,---,0.00,VWS V14.01,2013-10-01 02:13:00,
2013-09-30 22:14:00,53.3,49.5,29.99,East,86,0.0,0.0,87,0.00,,---,0.00,VWS V14.01,2013-10-01 02:14:00,
2013-09-30 22:15:00,52.3,48.5,30.00,East,84,0.0,1.0,87,0.00,,---,0.00,VWS V14.01,2013-10-01 02:15:00,
2013-09-30 22:16:00,53.4,49.6,29.99,East,86,0.0,0.0,87,0.00,,---,0.00,VWS V14.01,2013-10-01 02:16:00,
2013-09-30 22:17:00,53.4,49.6,29.99,East,86,0.0,0.0,87,0.00,,---,0.00,VWS V14.01,2013-10-01 02:17:00,
2013-09-30 22:18:00,53.5,49.7,29.99,East,86,0.0,0.0,87,0.00,,---,0.00,VWS V14.01,2013-10-01 02:18:00,
2013-09-30 22:19:00,53.6,49.8,29.99,East,86,0.0,0.0,87,0.00,,---,0.00,VWS V14.01,2013-10-01 02:19:00,
2013-09-30 22:20:00,52.4,49.0,30.00,East,84,0.0,0.0,88,0.00,,---,0.00,VWS V14.01,2013-10-01 02:20:00,
2013-09-30 22:21:00,50.9,48.1,29.99,East,86,0.0,1.0,90,0.00,,---,0.00,VWS V14.01,2013-10-01 02:21:00,
2013-09-30 22:22:00,50.9,48.1,29.99,East,86,0.0,1.0,90,0.00,,---,0.00,VWS V14.01,2013-10-01 02:22:00,
2013-09-30 22:23:00,50.9,48.1,29.98,East,86,0.0,1.0,90,0.00,,---,0.00,VWS V14.01,2013-10-01 02:23:00,
2013-09-30 22:24:00,50.8,48.0,29.98,East,86,0.0,1.0,90,0.00,,---,0.00,VWS V14.01,2013-10-01 02:24:00,
2013-09-30 22:25:00,52.9,49.5,30.00,East,86,0.0,1.0,88,0.00,,---,0.00,VWS V14.01,2013-10-01 02:25:00,
2013-09-30 22:26:00,50.8,48.0,29.99,East,86,0.0,0.0,90,0.00,,---,0.00,VWS V14.01,2013-10-01 02:26:00,
2013-09-30 22:27:00,50.9,48.1,29.99,East,86,0.0,0.0,90,0.00,,---,0.00,VWS V14.01,2013-10-01 02:27:00,
2013-09-30 22:28:00,50.9,48.1,29.99,East,86,0.0,0.0,90,0.00,,---,0.00,VWS V14.01,2013-10-01 02:28:00,
2013-09-30 22:29:00,50.9,48.4,29.99,East,86,0.0,0.0,91,0.00,,---,0.00,VWS V14.01,2013-10-01 02:29:00,
2013-09-30 22:30:00,52.9,49.1,30.00,East,86,0.0,1.0,87,0.00,,---,0.00,VWS V14.01,2013-10-01 02:30:00,
2013-09-30 22:31:00,51.2,48.7,29.99,East,86,0.0,1.0,91,0.00,,---,0.00,VWS V14.01,2013-10-01 02:31:00,
2013-09-30 22:32:00,51.4,48.9,29.99,East,86,0.0,1.0,91,0.00,,---,0.00,VWS V14.01,2013-10-01 02:32:00,
2013-09-30 22:33:00,51.5,49.0,29.99,East,86,0.0,1.0,91,0.00,,---,0.00,VWS V14.01,2013-10-01 02:33:00,
2013-09-30 22:34:00,51.7,48.9,29.99,East,86,0.0,1.0,90,0.00,,---,0.00,VWS V14.01,2013-10-01 02:34:00,
2013-09-30 22:35:00,53.2,49.4,29.99,East,86,0.0,0.0,87,0.00,,---,0.00,VWS V14.01,2013-10-01 02:35:00,
2013-09-30 22:36:00,51.9,48.8,29.99,East,86,0.0,0.0,89,0.00,,---,0.00,VWS V14.01,2013-10-01 02:36:00,
2013-09-30 22:37:00,51.9,48.8,29.99,East,86,0.0,0.0,89,0.00,,---,0.00,VWS V14.01,2013-10-01 02:37:00,
2013-09-30 22:38:00,52.0,48.9,29.99,East,86,0.0,0.0,89,0.00,,---,0.00,VWS V14.01,2013-10-01 02:38:00,
2013-09-30 22:39:00,52.1,49.0,29.99,East,86,0.0,0.0,89,0.00,,---,0.00,VWS V14.01,2013-10-01 02:39:00,
2013-09-30 22:40:00,52.1,48.7,29.99,East,86,0.0,0.0,88,0.00,,---,0.00,VWS V14.01,2013-10-01 02:40:00,
2013-09-30 22:41:00,53.0,48.9,29.99,East,86,0.0,0.0,86,0.00,,---,0.00,VWS V14.01,2013-10-01 02:41:00,
2013-09-30 22:42:00,52.1,48.7,29.99,East,86,0.0,0.0,88,0.00,,---,0.00,VWS V14.01,2013-10-01 02:42:00,
2013-09-30 22:43:00,52.2,48.8,29.99,East,86,0.0,0.0,88,0.00,,---,0.00,VWS V14.01,2013-10-01 02:43:00,
2013-09-30 22:44:00,52.2,48.8,29.99,East,86,0.0,1.0,88,0.00,,---,0.00,VWS V14.01,2013-10-01 02:44:00,
2013-09-30 22:45:00,52.3,48.9,29.99,East,86,0.0,1.0,88,0.00,,---,0.00,VWS V14.01,2013-10-01 02:45:00,
2013-09-30 22:46:00,52.4,49.0,29.99,East,86,0.0,1.0,88,0.00,,---,0.00,VWS V14.01,2013-10-01 02:46:00,
2013-09-30 22:47:00,52.9,49.1,29.99,East,86,0.0,1.0,87,0.00,,---,0.00,VWS V14.01,2013-10-01 02:47:00,
2013-09-30 22:48:00,52.6,48.8,29.99,East,86,0.0,1.0,87,0.00,,---,0.00,VWS V14.01,2013-10-01 02:48:00,
2013-09-30 22:49:00,52.6,48.8,29.99,East,86,0.0,1.0,87,0.00,,---,0.00,VWS V14.01,2013-10-01 02:49:00,
2013-09-30 22:50:00,52.6,48.8,29.99,East,86,0.0,1.0,87,0.00,,---,0.00,VWS V14.01,2013-10-01 02:50:00,
2013-09-30 22:51:00,52.5,48.8,29.99,East,86,0.0,0.0,87,0.00,,---,0.00,VWS V14.01,2013-10-01 02:51:00,
2013-09-30 22:52:00,53.1,49.3,29.99,East,86,0.0,0.0,87,0.00,,---,0.00,VWS V14.01,2013-10-01 02:52:00,
2013-09-30 22:53:00,52.5,48.8,29.99,East,86,0.0,0.0,87,0.00,,---,0.00,VWS V14.01,2013-10-01 02:53:00,
2013-09-30 22:54:00,52.5,48.8,29.99,East,86,0.0,0.0,87,0.00,,---,0.00,VWS V14.01,2013-10-01 02:54:00,
2013-09-30 22:55:00,52.5,48.8,29.99,East,86,0.0,0.0,87,0.00,,---,0.00,VWS V14.01,2013-10-01 02:55:00,
2013-09-30 22:56:00,52.6,48.8,29.99,East,86,0.0,0.0,87,0.00,,---,0.00,VWS V14.01,2013-10-01 02:56:00,
2013-09-30 22:57:00,53.4,49.6,29.99,East,86,0.0,0.0,87,0.00,,---,0.00,VWS V14.01,2013-10-01 02:57:00,
2013-09-30 22:58:00,52.8,49.0,29.99,East,86,0.0,0.0,87,0.00,,---,0.00,VWS V14.01,2013-10-01 02:58:00,
2013-09-30 22:59:00,52.9,49.1,29.99,East,86,0.0,0.0,87,0.00,,---,0.00,VWS V14.01,2013-10-01 02:59:00,
2013-09-30 23:00:00,53.0,49.2,29.99,East,86,0.0,0.0,87,0.00,,---,0.00,VWS V14.01,2013-10-01 03:00:00,
2013-09-30 23:01:00,53.1,49.3,29.99,East,86,0.0,0.0,87,0.00,,---,0.00,VWS V14.01,2013-10-01 03:01:00,
2013-09-30 23:02:00,53.2,49.1,29.99,East,86,0.0,0.0,86,0.00,,---,0.00,VWS V14.01,2013-10-01 03:02:00,
2013-09-30 23:03:00,53.8,49.7,29.99,East,86,0.0,0.0,86,0.00,,---,0.00,VWS V14.01,2013-10-01 03:03:00,
2013-09-30 23:04:00,53.3,49.2,29.99,East,86,0.0,0.0,86,0.00,,---,0.00,VWS V14.01,2013-10-01 03:04:00,
2013-09-30 23:05:00,53.3,49.2,29.99,East,86,0.0,0.0,86,0.00,,---,0.00,VWS V14.01,2013-10-01 03:05:00,
2013-09-30 23:06:00,53.3,49.2,29.99,East,86,0.0,0.0,86,0.00,,---,0.00,VWS V14.01,2013-10-01 03:06:00,
2013-09-30 23:07:00,53.4,49.3,29.99,East,86,0.0,0.0,86,0.00,,---,0.00,VWS V14.01,2013-10-01 03:07:00,
2013-09-30 23:08:00,53.4,49.3,29.99,East,86,0.0,0.0,86,0.00,,---,0.00,VWS V14.01,2013-10-01 03:08:00,
2013-09-30 23:09:00,53.3,48.9,29.99,East,86,0.0,0.0,85,0.00,,---,0.00,VWS V14.01,2013-10-01 03:09:00,
2013-09-30 23:10:00,53.6,49.2,29.99,East,86,0.0,0.0,85,0.00,,---,0.00,VWS V14.01,2013-10-01 03:10:00,
2013-09-30 23:11:00,53.6,49.2,29.99,East,86,0.0,0.0,85,0.00,,---,0.00,VWS V14.01,2013-10-01 03:11:00,
2013-09-30 23:12:00,53.6,49.2,29.99,East,86,0.0,0.0,85,0.00,,---,0.00,VWS V14.01,2013-10-01 03:12:00,
2013-09-30 23:13:00,53.7,49.3,29.99,East,86,0.0,0.0,85,0.00,,---,0.00,VWS V14.01,2013-10-01 03:13:00,
2013-09-30 23:14:00,53.0,49.2,29.99,East,86,0.0,0.0,87,0.00,,---,0.00,VWS V14.01,2013-10-01 03:14:00,
2013-09-30 23:15:00,53.7,49.3,29.99,East,86,0.0,0.0,85,0.00,,---,0.00,VWS V14.01,2013-10-01 03:15:00,
2013-09-30 23:16:00,53.7,49.3,29.99,East,86,0.0,0.0,85,0.00,,---,0.00,VWS V14.01,2013-10-01 03:16:00,
2013-09-30 23:17:00,53.7,49.3,29.99,East,86,0.0,0.0,85,0.00,,---,0.00,VWS V14.01,2013-10-01 03:17:00,
2013-09-30 23:18:00,53.6,49.2,29.99,East,86,0.0,0.0,85,0.00,,---,0.00,VWS V14.01,2013-10-01 03:18:00,
2013-09-30 23:19:00,52.9,48.8,29.99,East,86,0.0,0.0,86,0.00,,---,0.00,VWS V14.01,2013-10-01 03:19:00,
2013-09-30 23:20:00,53.3,48.6,29.99,East,86,0.0,0.0,84,0.00,,---,0.00,VWS V14.01,2013-10-01 03:20:00,
2013-09-30 23:21:00,53.2,48.5,29.99,East,86,0.0,0.0,84,0.00,,---,0.00,VWS V14.01,2013-10-01 03:21:00,
2013-09-30 23:22:00,53.0,48.3,29.99,East,86,0.0,0.0,84,0.00,,---,0.00,VWS V14.01,2013-10-01 03:22:00,
2013-09-30 23:23:00,52.9,48.5,29.99,East,86,0.0,0.0,85,0.00,,---,0.00,VWS V14.01,2013-10-01 03:23:00,
2013-09-30 23:24:00,52.7,48.3,29.99,East,86,0.0,0.0,85,0.00,,---,0.00,VWS V14.01,2013-10-01 03:24:00,
2013-09-30 23:25:00,52.9,49.1,29.99,East,86,0.0,0.0,87,0.00,,---,0.00,VWS V14.01,2013-10-01 03:25:00,
2013-09-30 23:26:00,52.3,48.2,29.99,East,86,0.0,0.0,86,0.00,,---,0.00,VWS V14.01,2013-10-01 03:26:00,
2013-09-30 23:27:00,52.2,48.2,29.99,East,86,0.0,0.0,86,0.00,,---,0.00,VWS V14.01,2013-10-01 03:27:00,
2013-09-30 23:28:00,52.0,48.0,29.99,East,86,0.0,0.0,86,0.00,,---,0.00,VWS V14.01,2013-10-01 03:28:00,
2013-09-30 23:29:00,51.8,48.1,29.99,East,86,0.0,0.0,87,0.00,,---,0.00,VWS V14.01,2013-10-01 03:29:00,
2013-09-30 23:30:00,51.6,48.2,29.99,East,86,0.0,0.0,88,0.00,,---,0.00,VWS V14.01,2013-10-01 03:30:00,
2013-09-30 23:31:00,53.4,49.6,29.99,East,86,0.0,1.0,87,0.00,,---,0.00,VWS V14.01,2013-10-01 03:31:00,
2013-09-30 23:32:00,51.3,47.9,29.99,East,86,0.0,0.0,88,0.00,,---,0.00,VWS V14.01,2013-10-01 03:32:00,
2013-09-30 23:33:00,51.2,47.8,29.99,East,86,0.0,0.0,88,0.00,,---,0.00,VWS V14.01,2013-10-01 03:33:00,
2013-09-30 23:34:00,51.1,47.7,29.99,East,86,0.0,0.0,88,0.00,,---,0.00,VWS V14.01,2013-10-01 03:34:00,
2013-09-30 23:35:00,51.0,47.6,29.99,East,86,0.0,0.0,88,0.00,,---,0.00,VWS V14.01,2013-10-01 03:35:00,
2013-09-30 23:36:00,53.7,49.6,29.99,East,86,0.0,1.0,86,0.00,,---,0.00,VWS V14.01,2013-10-01 03:36:00,
2013-09-30 23:37:00,51.9,48.8,29.99,East,86,0.0,0.0,89,0.00,,---,0.00,VWS V14.01,2013-10-01 03:37:00,
2013-09-30 23:38:00,52.0,48.9,29.99,East,86,0.0,0.0,89,0.00,,---,0.00,VWS V14.01,2013-10-01 03:38:00,
2013-09-30 23:39:00,52.1,49.0,29.99,East,86,0.0,0.0,89,0.00,,---,0.00,VWS V14.01,2013-10-01 03:39:00,
2013-09-30 23:40:00,50.4,47.6,29.99,East,86,0.0,0.0,90,0.00,,---,0.00,VWS V14.01,2013-10-01 03:40:00,
2013-09-30 23:41:00,53.4,49.0,29.99,East,86,0.0,0.0,85,0.00,,---,0.00,VWS V14.01,2013-10-01 03:41:00,
2013-09-30 23:42:00,50.2,47.4,29.99,East,86,0.0,0.0,90,0.00,,---,0.00,VWS V14.01,2013-10-01 03:42:00,
2013-09-30 23:43:00,50.1,47.3,29.99,East,86,0.0,0.0,90,0.00,,---,0.00,VWS V14.01,2013-10-01 03:43:00,
2013-09-30 23:44:00,50.0,47.2,29.99,East,86,0.0,0.0,90,0.00,,---,0.00,VWS V14.01,2013-10-01 03:44:00,
2013-09-30 23:45:00,52.3,48.9,29.99,East,86,0.0,1.0,88,0.00,,---,0.00,VWS V14.01,2013-10-01 03:45:00,
2013-09-30 23:46:00,52.6,48.5,29.99,East,86,0.0,0.0,86,0.00,,---,0.00,VWS V14.01,2013-10-01 03:46:00,
2013-09-30 23:47:00,52.5,49.1,29.99,East,86,0.0,1.0,88,0.00,,---,0.00,VWS V14.01,2013-10-01 03:47:00,
2013-09-30 23:48:00,52.6,48.8,29.99,East,86,0.0,1.0,87,0.00,,---,0.00,VWS V14.01,2013-10-01 03:48:00,
2013-09-30 23:49:00,52.6,48.8,29.99,East,86,0.0,1.0,87,0.00,,---,0.00,VWS V14.01,2013-10-01 03:49:00,
2013-09-30 23:50:00,49.7,47.2,29.99,East,86,0.0,0.0,91,0.00,,---,0.00,VWS V14.01,2013-10-01 03:50:00,
2013-09-30 23:51:00,51.9,48.2,29.99,East,86,0.0,0.0,87,0.00,,---,0.00,VWS V14.01,2013-10-01 03:51:00,
2013-09-30 23:52:00,49.6,47.4,29.99,East,86,0.0,0.0,92,0.00,,---,0.00,VWS V14.01,2013-10-01 03:52:00,
2013-09-30 23:53:00,52.5,48.8,29.99,East,86,0.0,0.0,87,0.00,,---,0.00,VWS V14.01,2013-10-01 03:53:00,
2013-09-30 23:54:00,52.5,48.8,29.99,East,86,0.0,0.0,87,0.00,,---,0.00,VWS V14.01,2013-10-01 03:54:00,
2013-09-30 23:55:00,52.5,48.8,29.99,East,86,0.0,0.0,87,0.00,,---,0.00,VWS V14.01,2013-10-01 03:55:00,
2013-09-30 23:56:00,52.6,48.8,29.99,East,86,0.0,0.0,87,0.00,,---,0.00,VWS V14.01,2013-10-01 03:56:00,
2013-09-30 23:57:00,51.4,48.0,29.98,East,86,0.0,0.0,88,0.00,,---,0.00,VWS V14.01,2013-10-01 03:57:00,
2013-09-30 23:58:00,52.8,49.0,29.99,East,86,0.0,0.0,87,0.00,,---,0.00,VWS V14.01,2013-10-01 03:58:00,
2013-09-30 23:59:00,52.9,49.1,29.99,East,86,0.0,0.0,87,0.00,,---,0.00,VWS V14.01,2013-10-01 03:59:00,